﻿<?xml version="1.0" encoding="UTF-8" standalone="no" ?>
<gpx xmlns="http://www.topografix.com/GPX/1/1" creator="CompeGPS" version="1.1" xmlns:xsi="http://www.w3.org/2001/XMLSchema-instance" xsi:schemaLocation="http://www.topografix.com/GPX/1/1 http://www.topografix.com/GPX/1/1/gpx.xsd http://www.garmin.com/xmlschemas/GpxExtensions/v3 http://www.garmin.com/xmlschemas/GpxExtensionsv3.xsd http://www.garmin.com/xmlschemas/TrackPointExtension/v1 http://www.garmin.com/xmlschemas/TrackPointExtensionv1.xsd" xmlns:gpxtpx="http://www.garmin.com/xmlschemas/TrackPointExtension/v1">
  <metadata>
    <link href="http://www.compegps.com">
      <text>CompeGPS TEAM, SL</text>
    </link>
    <time>2019-03-04T20:28:35Z</time>
    <bounds maxlat="42.710557" maxlon="1.425420" minlat="42.670822" minlon="1.393593"/>
  </metadata>
  <trk>
    <name>montcalm2</name>
    <userMyTwoNav></userMyTwoNav>
    <serialNumber></serialNumber>
    <trkseg>
      <trkpt lat="42.710395" lon="1.425391">
        <ele>1198.1</ele>
        <time>2019-03-02T12:37:03Z</time>
      </trkpt>
      <trkpt lat="42.710382" lon="1.425271">
        <ele>1181.1</ele>
        <time>2019-03-02T12:37:31Z</time>
      </trkpt>
      <trkpt lat="42.710323" lon="1.425153">
        <ele>1181.6</ele>
        <time>2019-03-02T12:37:51Z</time>
      </trkpt>
      <trkpt lat="42.710270" lon="1.425029">
        <ele>1182.3</ele>
        <time>2019-03-02T12:38:05Z</time>
      </trkpt>
      <trkpt lat="42.710214" lon="1.424916">
        <ele>1182.8</ele>
        <time>2019-03-02T12:38:19Z</time>
      </trkpt>
      <trkpt lat="42.710140" lon="1.424848">
        <ele>1182.9</ele>
        <time>2019-03-02T12:38:35Z</time>
      </trkpt>
      <trkpt lat="42.710093" lon="1.424707">
        <ele>1182.5</ele>
        <time>2019-03-02T12:39:16Z</time>
      </trkpt>
      <trkpt lat="42.710051" lon="1.424549">
        <ele>1181.6</ele>
        <time>2019-03-02T12:39:30Z</time>
      </trkpt>
      <trkpt lat="42.709983" lon="1.424396">
        <ele>1181.4</ele>
        <time>2019-03-02T12:39:43Z</time>
      </trkpt>
      <trkpt lat="42.709934" lon="1.424229">
        <ele>1181.5</ele>
        <time>2019-03-02T12:39:58Z</time>
      </trkpt>
      <trkpt lat="42.709892" lon="1.424064">
        <ele>1181.3</ele>
        <time>2019-03-02T12:40:12Z</time>
      </trkpt>
      <trkpt lat="42.709840" lon="1.423912">
        <ele>1181.3</ele>
        <time>2019-03-02T12:40:24Z</time>
      </trkpt>
      <trkpt lat="42.709811" lon="1.423759">
        <ele>1181.7</ele>
        <time>2019-03-02T12:40:36Z</time>
      </trkpt>
      <trkpt lat="42.709816" lon="1.423600">
        <ele>1182.0</ele>
        <time>2019-03-02T12:40:50Z</time>
      </trkpt>
      <trkpt lat="42.709739" lon="1.423519">
        <ele>1181.7</ele>
        <time>2019-03-02T12:41:06Z</time>
      </trkpt>
      <trkpt lat="42.709731" lon="1.423470">
        <ele>1181.9</ele>
        <time>2019-03-02T12:41:39Z</time>
      </trkpt>
      <trkpt lat="42.709673" lon="1.423313">
        <ele>1182.0</ele>
        <time>2019-03-02T12:41:51Z</time>
      </trkpt>
      <trkpt lat="42.709599" lon="1.423170">
        <ele>1182.2</ele>
        <time>2019-03-02T12:42:02Z</time>
      </trkpt>
      <trkpt lat="42.709580" lon="1.423021">
        <ele>1182.2</ele>
        <time>2019-03-02T12:42:14Z</time>
      </trkpt>
      <trkpt lat="42.709582" lon="1.422859">
        <ele>1182.1</ele>
        <time>2019-03-02T12:42:26Z</time>
      </trkpt>
      <trkpt lat="42.709633" lon="1.422723">
        <ele>1181.9</ele>
        <time>2019-03-02T12:42:39Z</time>
      </trkpt>
      <trkpt lat="42.709608" lon="1.422574">
        <ele>1182.4</ele>
        <time>2019-03-02T12:42:50Z</time>
      </trkpt>
      <trkpt lat="42.709555" lon="1.422419">
        <ele>1182.6</ele>
        <time>2019-03-02T12:43:02Z</time>
      </trkpt>
      <trkpt lat="42.709515" lon="1.422258">
        <ele>1182.6</ele>
        <time>2019-03-02T12:43:14Z</time>
      </trkpt>
      <trkpt lat="42.709510" lon="1.422109">
        <ele>1182.3</ele>
        <time>2019-03-02T12:43:27Z</time>
      </trkpt>
      <trkpt lat="42.709519" lon="1.421953">
        <ele>1182.2</ele>
        <time>2019-03-02T12:43:40Z</time>
      </trkpt>
      <trkpt lat="42.709478" lon="1.421791">
        <ele>1182.4</ele>
        <time>2019-03-02T12:43:55Z</time>
      </trkpt>
      <trkpt lat="42.709437" lon="1.421625">
        <ele>1182.4</ele>
        <time>2019-03-02T12:44:08Z</time>
      </trkpt>
      <trkpt lat="42.709424" lon="1.421470">
        <ele>1182.9</ele>
        <time>2019-03-02T12:44:25Z</time>
      </trkpt>
      <trkpt lat="42.709372" lon="1.421340">
        <ele>1184.9</ele>
        <time>2019-03-02T12:44:42Z</time>
      </trkpt>
      <trkpt lat="42.709357" lon="1.421181">
        <ele>1187.3</ele>
        <time>2019-03-02T12:44:58Z</time>
      </trkpt>
      <trkpt lat="42.709306" lon="1.421105">
        <ele>1189.2</ele>
        <time>2019-03-02T12:45:28Z</time>
      </trkpt>
      <trkpt lat="42.709301" lon="1.420996">
        <ele>1192.1</ele>
        <time>2019-03-02T12:45:45Z</time>
      </trkpt>
      <trkpt lat="42.709296" lon="1.420861">
        <ele>1194.8</ele>
        <time>2019-03-02T12:46:02Z</time>
      </trkpt>
      <trkpt lat="42.709271" lon="1.420727">
        <ele>1197.5</ele>
        <time>2019-03-02T12:46:19Z</time>
      </trkpt>
      <trkpt lat="42.709185" lon="1.420619">
        <ele>1198.0</ele>
        <time>2019-03-02T12:46:35Z</time>
      </trkpt>
      <trkpt lat="42.709152" lon="1.420490">
        <ele>1198.8</ele>
        <time>2019-03-02T12:46:50Z</time>
      </trkpt>
      <trkpt lat="42.709172" lon="1.420305">
        <ele>1198.7</ele>
        <time>2019-03-02T12:47:05Z</time>
      </trkpt>
      <trkpt lat="42.709187" lon="1.420106">
        <ele>1199.1</ele>
        <time>2019-03-02T12:47:20Z</time>
      </trkpt>
      <trkpt lat="42.709209" lon="1.419947">
        <ele>1200.3</ele>
        <time>2019-03-02T12:47:33Z</time>
      </trkpt>
      <trkpt lat="42.709224" lon="1.419769">
        <ele>1201.9</ele>
        <time>2019-03-02T12:47:49Z</time>
      </trkpt>
      <trkpt lat="42.709266" lon="1.419621">
        <ele>1204.0</ele>
        <time>2019-03-02T12:48:08Z</time>
      </trkpt>
      <trkpt lat="42.709321" lon="1.419455">
        <ele>1205.8</ele>
        <time>2019-03-02T12:48:27Z</time>
      </trkpt>
      <trkpt lat="42.709371" lon="1.419289">
        <ele>1208.0</ele>
        <time>2019-03-02T12:48:44Z</time>
      </trkpt>
      <trkpt lat="42.709384" lon="1.419097">
        <ele>1208.3</ele>
        <time>2019-03-02T12:48:59Z</time>
      </trkpt>
      <trkpt lat="42.709392" lon="1.418906">
        <ele>1207.0</ele>
        <time>2019-03-02T12:49:15Z</time>
      </trkpt>
      <trkpt lat="42.709323" lon="1.418769">
        <ele>1204.3</ele>
        <time>2019-03-02T12:49:29Z</time>
      </trkpt>
      <trkpt lat="42.709286" lon="1.418630">
        <ele>1203.6</ele>
        <time>2019-03-02T12:49:42Z</time>
      </trkpt>
      <trkpt lat="42.709304" lon="1.418469">
        <ele>1204.0</ele>
        <time>2019-03-02T12:49:57Z</time>
      </trkpt>
      <trkpt lat="42.709292" lon="1.418349">
        <ele>1206.1</ele>
        <time>2019-03-02T12:50:14Z</time>
      </trkpt>
      <trkpt lat="42.709270" lon="1.418212">
        <ele>1207.1</ele>
        <time>2019-03-02T12:50:27Z</time>
      </trkpt>
      <trkpt lat="42.709245" lon="1.418151">
        <ele>1208.9</ele>
        <time>2019-03-02T12:52:07Z</time>
      </trkpt>
      <trkpt lat="42.709266" lon="1.418066">
        <ele>1206.8</ele>
        <time>2019-03-02T12:56:46Z</time>
      </trkpt>
      <trkpt lat="42.709248" lon="1.418088">
        <ele>1207.6</ele>
        <time>2019-03-02T13:00:13Z</time>
      </trkpt>
      <trkpt lat="42.709173" lon="1.417975">
        <ele>1208.2</ele>
        <time>2019-03-02T13:00:31Z</time>
      </trkpt>
      <trkpt lat="42.709057" lon="1.417872">
        <ele>1207.3</ele>
        <time>2019-03-02T13:00:48Z</time>
      </trkpt>
      <trkpt lat="42.708979" lon="1.417732">
        <ele>1207.8</ele>
        <time>2019-03-02T13:01:07Z</time>
      </trkpt>
      <trkpt lat="42.708989" lon="1.417579">
        <ele>1210.6</ele>
        <time>2019-03-02T13:01:26Z</time>
      </trkpt>
      <trkpt lat="42.709015" lon="1.417417">
        <ele>1213.3</ele>
        <time>2019-03-02T13:01:48Z</time>
      </trkpt>
      <trkpt lat="42.709031" lon="1.417272">
        <ele>1215.0</ele>
        <time>2019-03-02T13:02:05Z</time>
      </trkpt>
      <trkpt lat="42.709036" lon="1.417115">
        <ele>1214.8</ele>
        <time>2019-03-02T13:02:20Z</time>
      </trkpt>
      <trkpt lat="42.709023" lon="1.416942">
        <ele>1216.0</ele>
        <time>2019-03-02T13:02:37Z</time>
      </trkpt>
      <trkpt lat="42.708988" lon="1.416770">
        <ele>1218.1</ele>
        <time>2019-03-02T13:02:55Z</time>
      </trkpt>
      <trkpt lat="42.708939" lon="1.416674">
        <ele>1219.5</ele>
        <time>2019-03-02T13:03:11Z</time>
      </trkpt>
      <trkpt lat="42.708913" lon="1.416543">
        <ele>1221.1</ele>
        <time>2019-03-02T13:03:30Z</time>
      </trkpt>
      <trkpt lat="42.708917" lon="1.416396">
        <ele>1222.5</ele>
        <time>2019-03-02T13:03:45Z</time>
      </trkpt>
      <trkpt lat="42.708924" lon="1.416267">
        <ele>1224.0</ele>
        <time>2019-03-02T13:04:03Z</time>
      </trkpt>
      <trkpt lat="42.708889" lon="1.416098">
        <ele>1225.2</ele>
        <time>2019-03-02T13:04:22Z</time>
      </trkpt>
      <trkpt lat="42.708857" lon="1.415933">
        <ele>1226.2</ele>
        <time>2019-03-02T13:04:42Z</time>
      </trkpt>
      <trkpt lat="42.708841" lon="1.415760">
        <ele>1228.4</ele>
        <time>2019-03-02T13:05:02Z</time>
      </trkpt>
      <trkpt lat="42.708891" lon="1.415616">
        <ele>1230.6</ele>
        <time>2019-03-02T13:05:23Z</time>
      </trkpt>
      <trkpt lat="42.708927" lon="1.415465">
        <ele>1233.2</ele>
        <time>2019-03-02T13:05:46Z</time>
      </trkpt>
      <trkpt lat="42.708895" lon="1.415333">
        <ele>1236.1</ele>
        <time>2019-03-02T13:06:07Z</time>
      </trkpt>
      <trkpt lat="42.708818" lon="1.415308">
        <ele>1239.6</ele>
        <time>2019-03-02T13:06:34Z</time>
      </trkpt>
      <trkpt lat="42.708714" lon="1.415311">
        <ele>1243.0</ele>
        <time>2019-03-02T13:06:59Z</time>
      </trkpt>
      <trkpt lat="42.708622" lon="1.415370">
        <ele>1246.3</ele>
        <time>2019-03-02T13:07:22Z</time>
      </trkpt>
      <trkpt lat="42.708520" lon="1.415399">
        <ele>1249.4</ele>
        <time>2019-03-02T13:07:46Z</time>
      </trkpt>
      <trkpt lat="42.708426" lon="1.415419">
        <ele>1252.9</ele>
        <time>2019-03-02T13:08:11Z</time>
      </trkpt>
      <trkpt lat="42.708365" lon="1.415512">
        <ele>1257.3</ele>
        <time>2019-03-02T13:08:42Z</time>
      </trkpt>
      <trkpt lat="42.708333" lon="1.415638">
        <ele>1260.2</ele>
        <time>2019-03-02T13:09:07Z</time>
      </trkpt>
      <trkpt lat="42.708288" lon="1.415745">
        <ele>1263.1</ele>
        <time>2019-03-02T13:09:29Z</time>
      </trkpt>
      <trkpt lat="42.708205" lon="1.415778">
        <ele>1266.7</ele>
        <time>2019-03-02T13:09:56Z</time>
      </trkpt>
      <trkpt lat="42.708191" lon="1.415875">
        <ele>1270.2</ele>
        <time>2019-03-02T13:10:21Z</time>
      </trkpt>
      <trkpt lat="42.708096" lon="1.415918">
        <ele>1274.3</ele>
        <time>2019-03-02T13:10:51Z</time>
      </trkpt>
      <trkpt lat="42.708048" lon="1.416012">
        <ele>1278.0</ele>
        <time>2019-03-02T13:11:21Z</time>
      </trkpt>
      <trkpt lat="42.707974" lon="1.416087">
        <ele>1282.6</ele>
        <time>2019-03-02T13:11:53Z</time>
      </trkpt>
      <trkpt lat="42.707909" lon="1.416171">
        <ele>1286.5</ele>
        <time>2019-03-02T13:12:21Z</time>
      </trkpt>
      <trkpt lat="42.707845" lon="1.416267">
        <ele>1289.2</ele>
        <time>2019-03-02T13:12:47Z</time>
      </trkpt>
      <trkpt lat="42.707771" lon="1.416359">
        <ele>1294.5</ele>
        <time>2019-03-02T13:13:26Z</time>
      </trkpt>
      <trkpt lat="42.707699" lon="1.416427">
        <ele>1297.3</ele>
        <time>2019-03-02T13:13:50Z</time>
      </trkpt>
      <trkpt lat="42.707618" lon="1.416424">
        <ele>1300.3</ele>
        <time>2019-03-02T13:14:15Z</time>
      </trkpt>
      <trkpt lat="42.707545" lon="1.416395">
        <ele>1303.8</ele>
        <time>2019-03-02T13:14:44Z</time>
      </trkpt>
      <trkpt lat="42.707525" lon="1.416369">
        <ele>1306.6</ele>
        <time>2019-03-02T13:15:08Z</time>
      </trkpt>
      <trkpt lat="42.707466" lon="1.416467">
        <ele>1311.5</ele>
        <time>2019-03-02T13:15:43Z</time>
      </trkpt>
      <trkpt lat="42.707419" lon="1.416566">
        <ele>1313.9</ele>
        <time>2019-03-02T13:16:03Z</time>
      </trkpt>
      <trkpt lat="42.707353" lon="1.416638">
        <ele>1316.7</ele>
        <time>2019-03-02T13:16:27Z</time>
      </trkpt>
      <trkpt lat="42.707292" lon="1.416671">
        <ele>1320.0</ele>
        <time>2019-03-02T13:16:52Z</time>
      </trkpt>
      <trkpt lat="42.707229" lon="1.416733">
        <ele>1322.1</ele>
        <time>2019-03-02T13:17:09Z</time>
      </trkpt>
      <trkpt lat="42.707212" lon="1.416825">
        <ele>1325.6</ele>
        <time>2019-03-02T13:17:37Z</time>
      </trkpt>
      <trkpt lat="42.707182" lon="1.416928">
        <ele>1327.2</ele>
        <time>2019-03-02T13:17:56Z</time>
      </trkpt>
      <trkpt lat="42.707135" lon="1.417017">
        <ele>1329.9</ele>
        <time>2019-03-02T13:18:19Z</time>
      </trkpt>
      <trkpt lat="42.707095" lon="1.416985">
        <ele>1336.8</ele>
        <time>2019-03-02T13:20:01Z</time>
      </trkpt>
      <trkpt lat="42.707006" lon="1.416935">
        <ele>1339.6</ele>
        <time>2019-03-02T13:20:20Z</time>
      </trkpt>
      <trkpt lat="42.706944" lon="1.416865">
        <ele>1340.7</ele>
        <time>2019-03-02T13:20:34Z</time>
      </trkpt>
      <trkpt lat="42.706905" lon="1.416765">
        <ele>1342.1</ele>
        <time>2019-03-02T13:20:49Z</time>
      </trkpt>
      <trkpt lat="42.706812" lon="1.416702">
        <ele>1343.3</ele>
        <time>2019-03-02T13:21:04Z</time>
      </trkpt>
      <trkpt lat="42.706743" lon="1.416635">
        <ele>1346.0</ele>
        <time>2019-03-02T13:21:24Z</time>
      </trkpt>
      <trkpt lat="42.706751" lon="1.416506">
        <ele>1348.3</ele>
        <time>2019-03-02T13:21:42Z</time>
      </trkpt>
      <trkpt lat="42.706741" lon="1.416398">
        <ele>1350.3</ele>
        <time>2019-03-02T13:22:01Z</time>
      </trkpt>
      <trkpt lat="42.706743" lon="1.416287">
        <ele>1352.4</ele>
        <time>2019-03-02T13:22:18Z</time>
      </trkpt>
      <trkpt lat="42.706730" lon="1.416187">
        <ele>1353.3</ele>
        <time>2019-03-02T13:22:34Z</time>
      </trkpt>
      <trkpt lat="42.706747" lon="1.416087">
        <ele>1355.9</ele>
        <time>2019-03-02T13:22:51Z</time>
      </trkpt>
      <trkpt lat="42.706739" lon="1.415993">
        <ele>1357.8</ele>
        <time>2019-03-02T13:23:05Z</time>
      </trkpt>
      <trkpt lat="42.706720" lon="1.415921">
        <ele>1359.8</ele>
        <time>2019-03-02T13:23:25Z</time>
      </trkpt>
      <trkpt lat="42.706670" lon="1.415875">
        <ele>1361.8</ele>
        <time>2019-03-02T13:23:46Z</time>
      </trkpt>
      <trkpt lat="42.706627" lon="1.415805">
        <ele>1364.5</ele>
        <time>2019-03-02T13:24:07Z</time>
      </trkpt>
      <trkpt lat="42.706580" lon="1.415718">
        <ele>1366.4</ele>
        <time>2019-03-02T13:24:25Z</time>
      </trkpt>
      <trkpt lat="42.706582" lon="1.415598">
        <ele>1368.7</ele>
        <time>2019-03-02T13:24:47Z</time>
      </trkpt>
      <trkpt lat="42.706565" lon="1.415496">
        <ele>1370.4</ele>
        <time>2019-03-02T13:25:02Z</time>
      </trkpt>
      <trkpt lat="42.706542" lon="1.415389">
        <ele>1373.3</ele>
        <time>2019-03-02T13:25:24Z</time>
      </trkpt>
      <trkpt lat="42.706525" lon="1.415287">
        <ele>1376.2</ele>
        <time>2019-03-02T13:25:48Z</time>
      </trkpt>
      <trkpt lat="42.706623" lon="1.415202">
        <ele>1379.0</ele>
        <time>2019-03-02T13:26:13Z</time>
      </trkpt>
      <trkpt lat="42.706706" lon="1.415154">
        <ele>1383.2</ele>
        <time>2019-03-02T13:26:57Z</time>
      </trkpt>
      <trkpt lat="42.706743" lon="1.415130">
        <ele>1382.9</ele>
        <time>2019-03-02T13:30:18Z</time>
      </trkpt>
      <trkpt lat="42.706746" lon="1.414936">
        <ele>1383.7</ele>
        <time>2019-03-02T13:30:39Z</time>
      </trkpt>
      <trkpt lat="42.706740" lon="1.414750">
        <ele>1383.8</ele>
        <time>2019-03-02T13:30:56Z</time>
      </trkpt>
      <trkpt lat="42.706722" lon="1.414571">
        <ele>1385.1</ele>
        <time>2019-03-02T13:31:15Z</time>
      </trkpt>
      <trkpt lat="42.706728" lon="1.414379">
        <ele>1384.6</ele>
        <time>2019-03-02T13:31:32Z</time>
      </trkpt>
      <trkpt lat="42.706703" lon="1.414226">
        <ele>1386.0</ele>
        <time>2019-03-02T13:31:49Z</time>
      </trkpt>
      <trkpt lat="42.706729" lon="1.414099">
        <ele>1385.7</ele>
        <time>2019-03-02T13:32:04Z</time>
      </trkpt>
      <trkpt lat="42.706758" lon="1.413874">
        <ele>1384.7</ele>
        <time>2019-03-02T13:32:24Z</time>
      </trkpt>
      <trkpt lat="42.706782" lon="1.413716">
        <ele>1385.6</ele>
        <time>2019-03-02T13:32:39Z</time>
      </trkpt>
      <trkpt lat="42.706811" lon="1.413553">
        <ele>1386.9</ele>
        <time>2019-03-02T13:32:56Z</time>
      </trkpt>
      <trkpt lat="42.706824" lon="1.413397">
        <ele>1387.5</ele>
        <time>2019-03-02T13:33:13Z</time>
      </trkpt>
      <trkpt lat="42.706866" lon="1.413263">
        <ele>1388.6</ele>
        <time>2019-03-02T13:33:29Z</time>
      </trkpt>
      <trkpt lat="42.706864" lon="1.413072">
        <ele>1389.9</ele>
        <time>2019-03-02T13:33:50Z</time>
      </trkpt>
      <trkpt lat="42.706826" lon="1.412945">
        <ele>1392.4</ele>
        <time>2019-03-02T13:34:09Z</time>
      </trkpt>
      <trkpt lat="42.706790" lon="1.412811">
        <ele>1393.3</ele>
        <time>2019-03-02T13:34:24Z</time>
      </trkpt>
      <trkpt lat="42.706836" lon="1.412645">
        <ele>1393.8</ele>
        <time>2019-03-02T13:34:40Z</time>
      </trkpt>
      <trkpt lat="42.706813" lon="1.412521">
        <ele>1394.9</ele>
        <time>2019-03-02T13:34:54Z</time>
      </trkpt>
      <trkpt lat="42.706859" lon="1.412412">
        <ele>1395.7</ele>
        <time>2019-03-02T13:35:12Z</time>
      </trkpt>
      <trkpt lat="42.706898" lon="1.412301">
        <ele>1396.6</ele>
        <time>2019-03-02T13:35:27Z</time>
      </trkpt>
      <trkpt lat="42.706940" lon="1.412151">
        <ele>1397.0</ele>
        <time>2019-03-02T13:35:45Z</time>
      </trkpt>
      <trkpt lat="42.706916" lon="1.412036">
        <ele>1397.9</ele>
        <time>2019-03-02T13:36:02Z</time>
      </trkpt>
      <trkpt lat="42.706930" lon="1.411908">
        <ele>1399.4</ele>
        <time>2019-03-02T13:36:19Z</time>
      </trkpt>
      <trkpt lat="42.706929" lon="1.411795">
        <ele>1400.7</ele>
        <time>2019-03-02T13:36:35Z</time>
      </trkpt>
      <trkpt lat="42.706959" lon="1.411672">
        <ele>1402.8</ele>
        <time>2019-03-02T13:36:56Z</time>
      </trkpt>
      <trkpt lat="42.706997" lon="1.411539">
        <ele>1403.9</ele>
        <time>2019-03-02T13:37:13Z</time>
      </trkpt>
      <trkpt lat="42.706979" lon="1.411419">
        <ele>1406.8</ele>
        <time>2019-03-02T13:37:33Z</time>
      </trkpt>
      <trkpt lat="42.706915" lon="1.411338">
        <ele>1409.9</ele>
        <time>2019-03-02T13:37:56Z</time>
      </trkpt>
      <trkpt lat="42.706951" lon="1.411217">
        <ele>1412.7</ele>
        <time>2019-03-02T13:38:20Z</time>
      </trkpt>
      <trkpt lat="42.706953" lon="1.411099">
        <ele>1414.6</ele>
        <time>2019-03-02T13:38:42Z</time>
      </trkpt>
      <trkpt lat="42.706883" lon="1.411010">
        <ele>1416.4</ele>
        <time>2019-03-02T13:39:02Z</time>
      </trkpt>
      <trkpt lat="42.706856" lon="1.410916">
        <ele>1418.1</ele>
        <time>2019-03-02T13:39:18Z</time>
      </trkpt>
      <trkpt lat="42.706796" lon="1.410815">
        <ele>1419.7</ele>
        <time>2019-03-02T13:39:34Z</time>
      </trkpt>
      <trkpt lat="42.706780" lon="1.410695">
        <ele>1421.3</ele>
        <time>2019-03-02T13:39:50Z</time>
      </trkpt>
      <trkpt lat="42.706766" lon="1.410587">
        <ele>1423.3</ele>
        <time>2019-03-02T13:40:07Z</time>
      </trkpt>
      <trkpt lat="42.706779" lon="1.410485">
        <ele>1425.2</ele>
        <time>2019-03-02T13:40:25Z</time>
      </trkpt>
      <trkpt lat="42.706808" lon="1.410358">
        <ele>1427.2</ele>
        <time>2019-03-02T13:40:42Z</time>
      </trkpt>
      <trkpt lat="42.706721" lon="1.410275">
        <ele>1428.4</ele>
        <time>2019-03-02T13:40:55Z</time>
      </trkpt>
      <trkpt lat="42.706659" lon="1.410203">
        <ele>1430.7</ele>
        <time>2019-03-02T13:41:13Z</time>
      </trkpt>
      <trkpt lat="42.706606" lon="1.410196">
        <ele>1434.7</ele>
        <time>2019-03-02T13:41:53Z</time>
      </trkpt>
      <trkpt lat="42.706535" lon="1.410165">
        <ele>1437.8</ele>
        <time>2019-03-02T13:42:18Z</time>
      </trkpt>
      <trkpt lat="42.706493" lon="1.410064">
        <ele>1440.2</ele>
        <time>2019-03-02T13:42:37Z</time>
      </trkpt>
      <trkpt lat="42.706437" lon="1.409904">
        <ele>1445.1</ele>
        <time>2019-03-02T13:43:16Z</time>
      </trkpt>
      <trkpt lat="42.706400" lon="1.409804">
        <ele>1447.9</ele>
        <time>2019-03-02T13:43:39Z</time>
      </trkpt>
      <trkpt lat="42.706402" lon="1.409716">
        <ele>1448.7</ele>
        <time>2019-03-02T13:43:55Z</time>
      </trkpt>
      <trkpt lat="42.706369" lon="1.409589">
        <ele>1450.4</ele>
        <time>2019-03-02T13:44:13Z</time>
      </trkpt>
      <trkpt lat="42.706427" lon="1.409500">
        <ele>1451.4</ele>
        <time>2019-03-02T13:44:29Z</time>
      </trkpt>
      <trkpt lat="42.706420" lon="1.409381">
        <ele>1453.2</ele>
        <time>2019-03-02T13:44:47Z</time>
      </trkpt>
      <trkpt lat="42.706445" lon="1.409251">
        <ele>1455.1</ele>
        <time>2019-03-02T13:45:04Z</time>
      </trkpt>
      <trkpt lat="42.706455" lon="1.409151">
        <ele>1457.3</ele>
        <time>2019-03-02T13:45:23Z</time>
      </trkpt>
      <trkpt lat="42.706442" lon="1.409016">
        <ele>1459.2</ele>
        <time>2019-03-02T13:45:41Z</time>
      </trkpt>
      <trkpt lat="42.706435" lon="1.408922">
        <ele>1460.8</ele>
        <time>2019-03-02T13:45:56Z</time>
      </trkpt>
      <trkpt lat="42.706404" lon="1.408808">
        <ele>1462.3</ele>
        <time>2019-03-02T13:46:14Z</time>
      </trkpt>
      <trkpt lat="42.706418" lon="1.408722">
        <ele>1463.6</ele>
        <time>2019-03-02T13:46:28Z</time>
      </trkpt>
      <trkpt lat="42.706461" lon="1.408624">
        <ele>1465.7</ele>
        <time>2019-03-02T13:46:43Z</time>
      </trkpt>
      <trkpt lat="42.706497" lon="1.408517">
        <ele>1467.6</ele>
        <time>2019-03-02T13:46:58Z</time>
      </trkpt>
      <trkpt lat="42.706448" lon="1.408424">
        <ele>1468.7</ele>
        <time>2019-03-02T13:47:14Z</time>
      </trkpt>
      <trkpt lat="42.706431" lon="1.408301">
        <ele>1469.9</ele>
        <time>2019-03-02T13:47:36Z</time>
      </trkpt>
      <trkpt lat="42.706431" lon="1.408203">
        <ele>1471.9</ele>
        <time>2019-03-02T13:47:53Z</time>
      </trkpt>
      <trkpt lat="42.706377" lon="1.408115">
        <ele>1473.9</ele>
        <time>2019-03-02T13:48:12Z</time>
      </trkpt>
      <trkpt lat="42.706328" lon="1.408025">
        <ele>1475.5</ele>
        <time>2019-03-02T13:48:29Z</time>
      </trkpt>
      <trkpt lat="42.706253" lon="1.407970">
        <ele>1477.9</ele>
        <time>2019-03-02T13:48:46Z</time>
      </trkpt>
      <trkpt lat="42.706165" lon="1.407951">
        <ele>1481.5</ele>
        <time>2019-03-02T13:49:09Z</time>
      </trkpt>
      <trkpt lat="42.706083" lon="1.407887">
        <ele>1484.1</ele>
        <time>2019-03-02T13:49:31Z</time>
      </trkpt>
      <trkpt lat="42.705987" lon="1.407868">
        <ele>1486.4</ele>
        <time>2019-03-02T13:49:50Z</time>
      </trkpt>
      <trkpt lat="42.705907" lon="1.407877">
        <ele>1488.9</ele>
        <time>2019-03-02T13:50:09Z</time>
      </trkpt>
      <trkpt lat="42.705818" lon="1.407917">
        <ele>1491.8</ele>
        <time>2019-03-02T13:50:33Z</time>
      </trkpt>
      <trkpt lat="42.705788" lon="1.407988">
        <ele>1492.4</ele>
        <time>2019-03-02T13:50:52Z</time>
      </trkpt>
      <trkpt lat="42.705713" lon="1.408041">
        <ele>1495.2</ele>
        <time>2019-03-02T13:51:08Z</time>
      </trkpt>
      <trkpt lat="42.705654" lon="1.408110">
        <ele>1498.9</ele>
        <time>2019-03-02T13:51:33Z</time>
      </trkpt>
      <trkpt lat="42.705621" lon="1.408083">
        <ele>1501.3</ele>
        <time>2019-03-02T13:51:54Z</time>
      </trkpt>
      <trkpt lat="42.705571" lon="1.407999">
        <ele>1503.2</ele>
        <time>2019-03-02T13:52:10Z</time>
      </trkpt>
      <trkpt lat="42.705552" lon="1.407897">
        <ele>1504.4</ele>
        <time>2019-03-02T13:52:25Z</time>
      </trkpt>
      <trkpt lat="42.705575" lon="1.407744">
        <ele>1506.5</ele>
        <time>2019-03-02T13:52:45Z</time>
      </trkpt>
      <trkpt lat="42.705602" lon="1.407615">
        <ele>1509.3</ele>
        <time>2019-03-02T13:53:10Z</time>
      </trkpt>
      <trkpt lat="42.705533" lon="1.407557">
        <ele>1510.5</ele>
        <time>2019-03-02T13:53:22Z</time>
      </trkpt>
      <trkpt lat="42.705523" lon="1.407472">
        <ele>1511.1</ele>
        <time>2019-03-02T13:53:40Z</time>
      </trkpt>
      <trkpt lat="42.705514" lon="1.407411">
        <ele>1513.0</ele>
        <time>2019-03-02T13:53:57Z</time>
      </trkpt>
      <trkpt lat="42.705514" lon="1.407313">
        <ele>1516.2</ele>
        <time>2019-03-02T13:54:16Z</time>
      </trkpt>
      <trkpt lat="42.705495" lon="1.407196">
        <ele>1518.2</ele>
        <time>2019-03-02T13:54:38Z</time>
      </trkpt>
      <trkpt lat="42.705411" lon="1.407082">
        <ele>1531.3</ele>
        <time>2019-03-02T13:56:15Z</time>
      </trkpt>
      <trkpt lat="42.705428" lon="1.406943">
        <ele>1534.3</ele>
        <time>2019-03-02T13:56:38Z</time>
      </trkpt>
      <trkpt lat="42.705364" lon="1.406873">
        <ele>1537.4</ele>
        <time>2019-03-02T13:57:04Z</time>
      </trkpt>
      <trkpt lat="42.705362" lon="1.406790">
        <ele>1539.8</ele>
        <time>2019-03-02T13:57:25Z</time>
      </trkpt>
      <trkpt lat="42.705294" lon="1.406784">
        <ele>1543.9</ele>
        <time>2019-03-02T13:57:52Z</time>
      </trkpt>
      <trkpt lat="42.705311" lon="1.406664">
        <ele>1546.0</ele>
        <time>2019-03-02T13:58:10Z</time>
      </trkpt>
      <trkpt lat="42.705302" lon="1.406581">
        <ele>1548.4</ele>
        <time>2019-03-02T13:58:29Z</time>
      </trkpt>
      <trkpt lat="42.705218" lon="1.406528">
        <ele>1550.5</ele>
        <time>2019-03-02T13:58:46Z</time>
      </trkpt>
      <trkpt lat="42.705122" lon="1.406513">
        <ele>1553.4</ele>
        <time>2019-03-02T13:59:11Z</time>
      </trkpt>
      <trkpt lat="42.705074" lon="1.406561">
        <ele>1555.7</ele>
        <time>2019-03-02T13:59:43Z</time>
      </trkpt>
      <trkpt lat="42.705041" lon="1.406539">
        <ele>1561.3</ele>
        <time>2019-03-02T14:00:26Z</time>
      </trkpt>
      <trkpt lat="42.704949" lon="1.406429">
        <ele>1565.9</ele>
        <time>2019-03-02T14:01:01Z</time>
      </trkpt>
      <trkpt lat="42.704865" lon="1.406484">
        <ele>1568.8</ele>
        <time>2019-03-02T14:01:25Z</time>
      </trkpt>
      <trkpt lat="42.704778" lon="1.406540">
        <ele>1572.6</ele>
        <time>2019-03-02T14:01:50Z</time>
      </trkpt>
      <trkpt lat="42.704733" lon="1.406458">
        <ele>1575.0</ele>
        <time>2019-03-02T14:02:09Z</time>
      </trkpt>
      <trkpt lat="42.704666" lon="1.406445">
        <ele>1585.0</ele>
        <time>2019-03-02T14:08:59Z</time>
      </trkpt>
      <trkpt lat="42.704605" lon="1.406553">
        <ele>1588.1</ele>
        <time>2019-03-02T14:09:19Z</time>
      </trkpt>
      <trkpt lat="42.704523" lon="1.406586">
        <ele>1591.4</ele>
        <time>2019-03-02T14:09:41Z</time>
      </trkpt>
      <trkpt lat="42.704459" lon="1.406529">
        <ele>1593.6</ele>
        <time>2019-03-02T14:09:59Z</time>
      </trkpt>
      <trkpt lat="42.704387" lon="1.406527">
        <ele>1597.0</ele>
        <time>2019-03-02T14:10:25Z</time>
      </trkpt>
      <trkpt lat="42.704333" lon="1.406499">
        <ele>1600.4</ele>
        <time>2019-03-02T14:10:52Z</time>
      </trkpt>
      <trkpt lat="42.704230" lon="1.406484">
        <ele>1603.8</ele>
        <time>2019-03-02T14:11:17Z</time>
      </trkpt>
      <trkpt lat="42.704178" lon="1.406436">
        <ele>1607.0</ele>
        <time>2019-03-02T14:11:41Z</time>
      </trkpt>
      <trkpt lat="42.704122" lon="1.406380">
        <ele>1609.7</ele>
        <time>2019-03-02T14:12:13Z</time>
      </trkpt>
      <trkpt lat="42.704002" lon="1.406357">
        <ele>1614.5</ele>
        <time>2019-03-02T14:12:41Z</time>
      </trkpt>
      <trkpt lat="42.703941" lon="1.406293">
        <ele>1619.1</ele>
        <time>2019-03-02T14:13:12Z</time>
      </trkpt>
      <trkpt lat="42.703877" lon="1.406248">
        <ele>1622.9</ele>
        <time>2019-03-02T14:13:40Z</time>
      </trkpt>
      <trkpt lat="42.703787" lon="1.406253">
        <ele>1625.7</ele>
        <time>2019-03-02T14:14:11Z</time>
      </trkpt>
      <trkpt lat="42.703750" lon="1.406293">
        <ele>1630.1</ele>
        <time>2019-03-02T14:14:45Z</time>
      </trkpt>
      <trkpt lat="42.703692" lon="1.406305">
        <ele>1632.9</ele>
        <time>2019-03-02T14:15:10Z</time>
      </trkpt>
      <trkpt lat="42.703643" lon="1.406313">
        <ele>1636.8</ele>
        <time>2019-03-02T14:15:41Z</time>
      </trkpt>
      <trkpt lat="42.703566" lon="1.406267">
        <ele>1639.8</ele>
        <time>2019-03-02T14:16:07Z</time>
      </trkpt>
      <trkpt lat="42.703480" lon="1.406231">
        <ele>1642.6</ele>
        <time>2019-03-02T14:16:32Z</time>
      </trkpt>
      <trkpt lat="42.703416" lon="1.406192">
        <ele>1645.7</ele>
        <time>2019-03-02T14:16:56Z</time>
      </trkpt>
      <trkpt lat="42.703359" lon="1.406177">
        <ele>1649.5</ele>
        <time>2019-03-02T14:17:34Z</time>
      </trkpt>
      <trkpt lat="42.703268" lon="1.406136">
        <ele>1652.8</ele>
        <time>2019-03-02T14:17:58Z</time>
      </trkpt>
      <trkpt lat="42.703232" lon="1.406039">
        <ele>1654.5</ele>
        <time>2019-03-02T14:18:19Z</time>
      </trkpt>
      <trkpt lat="42.703153" lon="1.405955">
        <ele>1655.0</ele>
        <time>2019-03-02T14:18:37Z</time>
      </trkpt>
      <trkpt lat="42.702997" lon="1.405944">
        <ele>1654.7</ele>
        <time>2019-03-02T14:18:54Z</time>
      </trkpt>
      <trkpt lat="42.702877" lon="1.405857">
        <ele>1657.3</ele>
        <time>2019-03-02T14:20:06Z</time>
      </trkpt>
      <trkpt lat="42.702834" lon="1.405868">
        <ele>1656.2</ele>
        <time>2019-03-02T14:21:19Z</time>
      </trkpt>
      <trkpt lat="42.702756" lon="1.405787">
        <ele>1657.5</ele>
        <time>2019-03-02T14:21:39Z</time>
      </trkpt>
      <trkpt lat="42.702664" lon="1.405729">
        <ele>1661.4</ele>
        <time>2019-03-02T14:22:03Z</time>
      </trkpt>
      <trkpt lat="42.702566" lon="1.405719">
        <ele>1665.3</ele>
        <time>2019-03-02T14:22:27Z</time>
      </trkpt>
      <trkpt lat="42.702480" lon="1.405778">
        <ele>1669.7</ele>
        <time>2019-03-02T14:23:00Z</time>
      </trkpt>
      <trkpt lat="42.702388" lon="1.405786">
        <ele>1672.4</ele>
        <time>2019-03-02T14:23:23Z</time>
      </trkpt>
      <trkpt lat="42.702309" lon="1.405807">
        <ele>1673.1</ele>
        <time>2019-03-02T14:23:42Z</time>
      </trkpt>
      <trkpt lat="42.702212" lon="1.405836">
        <ele>1677.3</ele>
        <time>2019-03-02T14:24:05Z</time>
      </trkpt>
      <trkpt lat="42.702130" lon="1.405835">
        <ele>1679.2</ele>
        <time>2019-03-02T14:24:26Z</time>
      </trkpt>
      <trkpt lat="42.702045" lon="1.405854">
        <ele>1682.3</ele>
        <time>2019-03-02T14:24:53Z</time>
      </trkpt>
      <trkpt lat="42.701957" lon="1.405881">
        <ele>1685.4</ele>
        <time>2019-03-02T14:25:22Z</time>
      </trkpt>
      <trkpt lat="42.701853" lon="1.405915">
        <ele>1689.7</ele>
        <time>2019-03-02T14:25:51Z</time>
      </trkpt>
      <trkpt lat="42.701756" lon="1.405919">
        <ele>1692.4</ele>
        <time>2019-03-02T14:26:09Z</time>
      </trkpt>
      <trkpt lat="42.701667" lon="1.405873">
        <ele>1694.0</ele>
        <time>2019-03-02T14:26:26Z</time>
      </trkpt>
      <trkpt lat="42.701588" lon="1.405912">
        <ele>1699.7</ele>
        <time>2019-03-02T14:27:02Z</time>
      </trkpt>
      <trkpt lat="42.701492" lon="1.405889">
        <ele>1703.4</ele>
        <time>2019-03-02T14:27:30Z</time>
      </trkpt>
      <trkpt lat="42.701389" lon="1.405815">
        <ele>1709.4</ele>
        <time>2019-03-02T14:27:57Z</time>
      </trkpt>
      <trkpt lat="42.701326" lon="1.405717">
        <ele>1714.2</ele>
        <time>2019-03-02T14:28:30Z</time>
      </trkpt>
      <trkpt lat="42.701245" lon="1.405649">
        <ele>1717.8</ele>
        <time>2019-03-02T14:29:00Z</time>
      </trkpt>
      <trkpt lat="42.701177" lon="1.405548">
        <ele>1721.1</ele>
        <time>2019-03-02T14:29:25Z</time>
      </trkpt>
      <trkpt lat="42.701137" lon="1.405433">
        <ele>1723.8</ele>
        <time>2019-03-02T14:29:47Z</time>
      </trkpt>
      <trkpt lat="42.701119" lon="1.405336">
        <ele>1723.0</ele>
        <time>2019-03-02T14:30:20Z</time>
      </trkpt>
      <trkpt lat="42.701089" lon="1.405216">
        <ele>1724.3</ele>
        <time>2019-03-02T14:37:12Z</time>
      </trkpt>
      <trkpt lat="42.701000" lon="1.405153">
        <ele>1726.9</ele>
        <time>2019-03-02T14:37:36Z</time>
      </trkpt>
      <trkpt lat="42.700930" lon="1.405115">
        <ele>1730.1</ele>
        <time>2019-03-02T14:38:05Z</time>
      </trkpt>
      <trkpt lat="42.700850" lon="1.405021">
        <ele>1731.5</ele>
        <time>2019-03-02T14:38:36Z</time>
      </trkpt>
      <trkpt lat="42.700782" lon="1.404923">
        <ele>1732.8</ele>
        <time>2019-03-02T14:39:01Z</time>
      </trkpt>
      <trkpt lat="42.700711" lon="1.404850">
        <ele>1735.3</ele>
        <time>2019-03-02T14:39:22Z</time>
      </trkpt>
      <trkpt lat="42.700646" lon="1.404798">
        <ele>1736.2</ele>
        <time>2019-03-02T14:39:43Z</time>
      </trkpt>
      <trkpt lat="42.700574" lon="1.404701">
        <ele>1738.9</ele>
        <time>2019-03-02T14:40:13Z</time>
      </trkpt>
      <trkpt lat="42.700503" lon="1.404595">
        <ele>1741.2</ele>
        <time>2019-03-02T14:40:41Z</time>
      </trkpt>
      <trkpt lat="42.700445" lon="1.404486">
        <ele>1743.0</ele>
        <time>2019-03-02T14:41:03Z</time>
      </trkpt>
      <trkpt lat="42.700392" lon="1.404372">
        <ele>1746.4</ele>
        <time>2019-03-02T14:41:24Z</time>
      </trkpt>
      <trkpt lat="42.700341" lon="1.404274">
        <ele>1749.1</ele>
        <time>2019-03-02T14:41:52Z</time>
      </trkpt>
      <trkpt lat="42.700287" lon="1.404177">
        <ele>1750.5</ele>
        <time>2019-03-02T14:42:14Z</time>
      </trkpt>
      <trkpt lat="42.700222" lon="1.404119">
        <ele>1754.7</ele>
        <time>2019-03-02T14:42:45Z</time>
      </trkpt>
      <trkpt lat="42.700158" lon="1.404018">
        <ele>1754.6</ele>
        <time>2019-03-02T14:43:09Z</time>
      </trkpt>
      <trkpt lat="42.700110" lon="1.403903">
        <ele>1754.3</ele>
        <time>2019-03-02T14:43:36Z</time>
      </trkpt>
      <trkpt lat="42.700051" lon="1.403755">
        <ele>1754.9</ele>
        <time>2019-03-02T14:43:55Z</time>
      </trkpt>
      <trkpt lat="42.700016" lon="1.403626">
        <ele>1755.6</ele>
        <time>2019-03-02T14:44:17Z</time>
      </trkpt>
      <trkpt lat="42.699945" lon="1.403528">
        <ele>1756.9</ele>
        <time>2019-03-02T14:44:38Z</time>
      </trkpt>
      <trkpt lat="42.699881" lon="1.403426">
        <ele>1758.7</ele>
        <time>2019-03-02T14:45:06Z</time>
      </trkpt>
      <trkpt lat="42.699835" lon="1.403339">
        <ele>1760.5</ele>
        <time>2019-03-02T14:45:39Z</time>
      </trkpt>
      <trkpt lat="42.699798" lon="1.403213">
        <ele>1761.2</ele>
        <time>2019-03-02T14:46:00Z</time>
      </trkpt>
      <trkpt lat="42.699749" lon="1.403064">
        <ele>1762.0</ele>
        <time>2019-03-02T14:46:24Z</time>
      </trkpt>
      <trkpt lat="42.699699" lon="1.402931">
        <ele>1763.2</ele>
        <time>2019-03-02T14:46:46Z</time>
      </trkpt>
      <trkpt lat="42.699654" lon="1.402802">
        <ele>1764.1</ele>
        <time>2019-03-02T14:47:08Z</time>
      </trkpt>
      <trkpt lat="42.699611" lon="1.402675">
        <ele>1766.0</ele>
        <time>2019-03-02T14:47:31Z</time>
      </trkpt>
      <trkpt lat="42.699585" lon="1.402543">
        <ele>1768.7</ele>
        <time>2019-03-02T14:47:55Z</time>
      </trkpt>
      <trkpt lat="42.699547" lon="1.402424">
        <ele>1771.2</ele>
        <time>2019-03-02T14:48:19Z</time>
      </trkpt>
      <trkpt lat="42.699514" lon="1.402311">
        <ele>1773.2</ele>
        <time>2019-03-02T14:48:43Z</time>
      </trkpt>
      <trkpt lat="42.699506" lon="1.402209">
        <ele>1775.4</ele>
        <time>2019-03-02T14:49:11Z</time>
      </trkpt>
      <trkpt lat="42.699509" lon="1.402184">
        <ele>1774.5</ele>
        <time>2019-03-02T14:50:03Z</time>
      </trkpt>
      <trkpt lat="42.699445" lon="1.402101">
        <ele>1779.5</ele>
        <time>2019-03-02T14:50:20Z</time>
      </trkpt>
      <trkpt lat="42.699381" lon="1.402006">
        <ele>1782.2</ele>
        <time>2019-03-02T14:50:46Z</time>
      </trkpt>
      <trkpt lat="42.699312" lon="1.401962">
        <ele>1784.0</ele>
        <time>2019-03-02T14:51:07Z</time>
      </trkpt>
      <trkpt lat="42.699234" lon="1.401906">
        <ele>1788.0</ele>
        <time>2019-03-02T14:51:40Z</time>
      </trkpt>
      <trkpt lat="42.699165" lon="1.401878">
        <ele>1791.5</ele>
        <time>2019-03-02T14:51:59Z</time>
      </trkpt>
      <trkpt lat="42.699111" lon="1.401857">
        <ele>1795.6</ele>
        <time>2019-03-02T14:52:23Z</time>
      </trkpt>
      <trkpt lat="42.699001" lon="1.401838">
        <ele>1798.1</ele>
        <time>2019-03-02T14:52:47Z</time>
      </trkpt>
      <trkpt lat="42.698899" lon="1.401801">
        <ele>1797.4</ele>
        <time>2019-03-02T14:53:06Z</time>
      </trkpt>
      <trkpt lat="42.698807" lon="1.401752">
        <ele>1796.5</ele>
        <time>2019-03-02T14:53:28Z</time>
      </trkpt>
      <trkpt lat="42.698713" lon="1.401719">
        <ele>1798.6</ele>
        <time>2019-03-02T14:53:50Z</time>
      </trkpt>
      <trkpt lat="42.698640" lon="1.401694">
        <ele>1799.4</ele>
        <time>2019-03-02T14:55:03Z</time>
      </trkpt>
      <trkpt lat="42.698571" lon="1.401623">
        <ele>1800.3</ele>
        <time>2019-03-02T14:55:22Z</time>
      </trkpt>
      <trkpt lat="42.698500" lon="1.401530">
        <ele>1803.0</ele>
        <time>2019-03-02T14:55:44Z</time>
      </trkpt>
      <trkpt lat="42.698435" lon="1.401434">
        <ele>1804.4</ele>
        <time>2019-03-02T14:56:04Z</time>
      </trkpt>
      <trkpt lat="42.698376" lon="1.401339">
        <ele>1806.0</ele>
        <time>2019-03-02T14:56:20Z</time>
      </trkpt>
      <trkpt lat="42.698317" lon="1.401240">
        <ele>1807.4</ele>
        <time>2019-03-02T14:56:45Z</time>
      </trkpt>
      <trkpt lat="42.698245" lon="1.401154">
        <ele>1808.5</ele>
        <time>2019-03-02T14:57:29Z</time>
      </trkpt>
      <trkpt lat="42.698190" lon="1.401099">
        <ele>1811.0</ele>
        <time>2019-03-02T14:58:29Z</time>
      </trkpt>
      <trkpt lat="42.698113" lon="1.401033">
        <ele>1815.8</ele>
        <time>2019-03-02T14:59:00Z</time>
      </trkpt>
      <trkpt lat="42.698029" lon="1.400971">
        <ele>1818.0</ele>
        <time>2019-03-02T14:59:36Z</time>
      </trkpt>
      <trkpt lat="42.697945" lon="1.400927">
        <ele>1821.9</ele>
        <time>2019-03-02T15:00:11Z</time>
      </trkpt>
      <trkpt lat="42.697861" lon="1.400847">
        <ele>1826.4</ele>
        <time>2019-03-02T15:00:53Z</time>
      </trkpt>
      <trkpt lat="42.697780" lon="1.400769">
        <ele>1829.4</ele>
        <time>2019-03-02T15:01:30Z</time>
      </trkpt>
      <trkpt lat="42.697699" lon="1.400703">
        <ele>1832.5</ele>
        <time>2019-03-02T15:01:58Z</time>
      </trkpt>
      <trkpt lat="42.697621" lon="1.400643">
        <ele>1833.7</ele>
        <time>2019-03-02T15:02:25Z</time>
      </trkpt>
      <trkpt lat="42.697551" lon="1.400564">
        <ele>1837.9</ele>
        <time>2019-03-02T15:02:49Z</time>
      </trkpt>
      <trkpt lat="42.697479" lon="1.400480">
        <ele>1840.6</ele>
        <time>2019-03-02T15:03:11Z</time>
      </trkpt>
      <trkpt lat="42.697402" lon="1.400424">
        <ele>1843.5</ele>
        <time>2019-03-02T15:03:33Z</time>
      </trkpt>
      <trkpt lat="42.697336" lon="1.400334">
        <ele>1845.6</ele>
        <time>2019-03-02T15:04:00Z</time>
      </trkpt>
      <trkpt lat="42.697252" lon="1.400280">
        <ele>1847.2</ele>
        <time>2019-03-02T15:04:26Z</time>
      </trkpt>
      <trkpt lat="42.697171" lon="1.400198">
        <ele>1850.5</ele>
        <time>2019-03-02T15:04:56Z</time>
      </trkpt>
      <trkpt lat="42.697097" lon="1.400150">
        <ele>1852.6</ele>
        <time>2019-03-02T15:05:22Z</time>
      </trkpt>
      <trkpt lat="42.697002" lon="1.400104">
        <ele>1854.7</ele>
        <time>2019-03-02T15:05:55Z</time>
      </trkpt>
      <trkpt lat="42.696946" lon="1.400014">
        <ele>1858.3</ele>
        <time>2019-03-02T15:06:18Z</time>
      </trkpt>
      <trkpt lat="42.696897" lon="1.399905">
        <ele>1860.8</ele>
        <time>2019-03-02T15:06:45Z</time>
      </trkpt>
      <trkpt lat="42.696862" lon="1.399803">
        <ele>1862.4</ele>
        <time>2019-03-02T15:07:08Z</time>
      </trkpt>
      <trkpt lat="42.696858" lon="1.399674">
        <ele>1866.7</ele>
        <time>2019-03-02T15:07:37Z</time>
      </trkpt>
      <trkpt lat="42.696836" lon="1.399543">
        <ele>1870.8</ele>
        <time>2019-03-02T15:08:09Z</time>
      </trkpt>
      <trkpt lat="42.696846" lon="1.399406">
        <ele>1873.0</ele>
        <time>2019-03-02T15:08:41Z</time>
      </trkpt>
      <trkpt lat="42.696869" lon="1.399278">
        <ele>1877.2</ele>
        <time>2019-03-02T15:09:16Z</time>
      </trkpt>
      <trkpt lat="42.696894" lon="1.399138">
        <ele>1880.4</ele>
        <time>2019-03-02T15:09:32Z</time>
      </trkpt>
      <trkpt lat="42.696864" lon="1.399040">
        <ele>1886.1</ele>
        <time>2019-03-02T15:09:57Z</time>
      </trkpt>
      <trkpt lat="42.696887" lon="1.398921">
        <ele>1889.9</ele>
        <time>2019-03-02T15:10:22Z</time>
      </trkpt>
      <trkpt lat="42.696850" lon="1.398830">
        <ele>1896.2</ele>
        <time>2019-03-02T15:11:04Z</time>
      </trkpt>
      <trkpt lat="42.696844" lon="1.398711">
        <ele>1904.2</ele>
        <time>2019-03-02T15:11:54Z</time>
      </trkpt>
      <trkpt lat="42.696814" lon="1.398564">
        <ele>1912.8</ele>
        <time>2019-03-02T15:12:57Z</time>
      </trkpt>
      <trkpt lat="42.696825" lon="1.398445">
        <ele>1917.9</ele>
        <time>2019-03-02T15:13:37Z</time>
      </trkpt>
      <trkpt lat="42.696831" lon="1.398416">
        <ele>1920.2</ele>
        <time>2019-03-02T15:15:00Z</time>
      </trkpt>
      <trkpt lat="42.696858" lon="1.398446">
        <ele>1919.5</ele>
        <time>2019-03-02T15:16:22Z</time>
      </trkpt>
      <trkpt lat="42.696923" lon="1.398340">
        <ele>1920.4</ele>
        <time>2019-03-02T15:16:40Z</time>
      </trkpt>
      <trkpt lat="42.696956" lon="1.398214">
        <ele>1922.6</ele>
        <time>2019-03-02T15:16:59Z</time>
      </trkpt>
      <trkpt lat="42.696990" lon="1.398085">
        <ele>1923.7</ele>
        <time>2019-03-02T15:17:16Z</time>
      </trkpt>
      <trkpt lat="42.697032" lon="1.397966">
        <ele>1923.7</ele>
        <time>2019-03-02T15:17:29Z</time>
      </trkpt>
      <trkpt lat="42.697093" lon="1.397876">
        <ele>1924.7</ele>
        <time>2019-03-02T15:17:47Z</time>
      </trkpt>
      <trkpt lat="42.697103" lon="1.397757">
        <ele>1933.0</ele>
        <time>2019-03-02T15:32:09Z</time>
      </trkpt>
      <trkpt lat="42.697038" lon="1.397660">
        <ele>1933.8</ele>
        <time>2019-03-02T15:32:23Z</time>
      </trkpt>
      <trkpt lat="42.696953" lon="1.397577">
        <ele>1935.1</ele>
        <time>2019-03-02T15:32:36Z</time>
      </trkpt>
      <trkpt lat="42.696877" lon="1.397521">
        <ele>1938.6</ele>
        <time>2019-03-02T15:33:02Z</time>
      </trkpt>
      <trkpt lat="42.696810" lon="1.397456">
        <ele>1941.5</ele>
        <time>2019-03-02T15:33:26Z</time>
      </trkpt>
      <trkpt lat="42.696728" lon="1.397414">
        <ele>1945.6</ele>
        <time>2019-03-02T15:33:51Z</time>
      </trkpt>
      <trkpt lat="42.696636" lon="1.397392">
        <ele>1950.9</ele>
        <time>2019-03-02T15:34:21Z</time>
      </trkpt>
      <trkpt lat="42.696564" lon="1.397328">
        <ele>1956.1</ele>
        <time>2019-03-02T15:34:52Z</time>
      </trkpt>
      <trkpt lat="42.696525" lon="1.397224">
        <ele>1957.7</ele>
        <time>2019-03-02T15:35:14Z</time>
      </trkpt>
      <trkpt lat="42.696479" lon="1.397110">
        <ele>1961.7</ele>
        <time>2019-03-02T15:35:53Z</time>
      </trkpt>
      <trkpt lat="42.696448" lon="1.396995">
        <ele>1965.1</ele>
        <time>2019-03-02T15:36:26Z</time>
      </trkpt>
      <trkpt lat="42.696405" lon="1.396847">
        <ele>1971.5</ele>
        <time>2019-03-02T15:37:26Z</time>
      </trkpt>
      <trkpt lat="42.696331" lon="1.396727">
        <ele>1977.5</ele>
        <time>2019-03-02T15:38:22Z</time>
      </trkpt>
      <trkpt lat="42.696255" lon="1.396639">
        <ele>1984.1</ele>
        <time>2019-03-02T15:39:15Z</time>
      </trkpt>
      <trkpt lat="42.696197" lon="1.396541">
        <ele>1988.3</ele>
        <time>2019-03-02T15:39:53Z</time>
      </trkpt>
      <trkpt lat="42.696120" lon="1.396502">
        <ele>1989.8</ele>
        <time>2019-03-02T15:41:04Z</time>
      </trkpt>
      <trkpt lat="42.696037" lon="1.396423">
        <ele>1991.5</ele>
        <time>2019-03-02T15:41:20Z</time>
      </trkpt>
      <trkpt lat="42.695935" lon="1.396390">
        <ele>1994.6</ele>
        <time>2019-03-02T15:41:43Z</time>
      </trkpt>
      <trkpt lat="42.695857" lon="1.396322">
        <ele>1998.2</ele>
        <time>2019-03-02T15:42:10Z</time>
      </trkpt>
      <trkpt lat="42.695779" lon="1.396254">
        <ele>2003.6</ele>
        <time>2019-03-02T15:42:42Z</time>
      </trkpt>
      <trkpt lat="42.695692" lon="1.396201">
        <ele>2007.1</ele>
        <time>2019-03-02T15:43:20Z</time>
      </trkpt>
      <trkpt lat="42.695594" lon="1.396157">
        <ele>2012.0</ele>
        <time>2019-03-02T15:44:03Z</time>
      </trkpt>
      <trkpt lat="42.695507" lon="1.396109">
        <ele>2015.6</ele>
        <time>2019-03-02T15:44:37Z</time>
      </trkpt>
      <trkpt lat="42.695411" lon="1.396050">
        <ele>2021.4</ele>
        <time>2019-03-02T15:45:24Z</time>
      </trkpt>
      <trkpt lat="42.695303" lon="1.395978">
        <ele>2028.2</ele>
        <time>2019-03-02T15:46:17Z</time>
      </trkpt>
      <trkpt lat="42.695216" lon="1.395957">
        <ele>2031.8</ele>
        <time>2019-03-02T15:46:54Z</time>
      </trkpt>
      <trkpt lat="42.695127" lon="1.395901">
        <ele>2036.5</ele>
        <time>2019-03-02T15:47:44Z</time>
      </trkpt>
      <trkpt lat="42.695053" lon="1.395968">
        <ele>2043.3</ele>
        <time>2019-03-02T15:48:59Z</time>
      </trkpt>
      <trkpt lat="42.694973" lon="1.395934">
        <ele>2049.4</ele>
        <time>2019-03-02T15:49:42Z</time>
      </trkpt>
      <trkpt lat="42.694882" lon="1.395928">
        <ele>2054.4</ele>
        <time>2019-03-02T15:50:26Z</time>
      </trkpt>
      <trkpt lat="42.694803" lon="1.395948">
        <ele>2058.1</ele>
        <time>2019-03-02T15:50:57Z</time>
      </trkpt>
      <trkpt lat="42.694718" lon="1.395937">
        <ele>2061.5</ele>
        <time>2019-03-02T15:51:31Z</time>
      </trkpt>
      <trkpt lat="42.694624" lon="1.395944">
        <ele>2066.0</ele>
        <time>2019-03-02T15:52:06Z</time>
      </trkpt>
      <trkpt lat="42.694541" lon="1.395918">
        <ele>2072.9</ele>
        <time>2019-03-02T15:52:49Z</time>
      </trkpt>
      <trkpt lat="42.694472" lon="1.395831">
        <ele>2071.5</ele>
        <time>2019-03-02T15:53:58Z</time>
      </trkpt>
      <trkpt lat="42.694395" lon="1.395850">
        <ele>2074.7</ele>
        <time>2019-03-02T15:54:30Z</time>
      </trkpt>
      <trkpt lat="42.694333" lon="1.395926">
        <ele>2077.5</ele>
        <time>2019-03-02T15:55:00Z</time>
      </trkpt>
      <trkpt lat="42.694259" lon="1.395923">
        <ele>2078.7</ele>
        <time>2019-03-02T15:58:14Z</time>
      </trkpt>
      <trkpt lat="42.694173" lon="1.395880">
        <ele>2082.0</ele>
        <time>2019-03-02T15:58:38Z</time>
      </trkpt>
      <trkpt lat="42.694087" lon="1.395861">
        <ele>2087.3</ele>
        <time>2019-03-02T15:59:08Z</time>
      </trkpt>
      <trkpt lat="42.694016" lon="1.395823">
        <ele>2092.5</ele>
        <time>2019-03-02T15:59:32Z</time>
      </trkpt>
      <trkpt lat="42.693939" lon="1.395762">
        <ele>2092.5</ele>
        <time>2019-03-02T16:00:00Z</time>
      </trkpt>
      <trkpt lat="42.693858" lon="1.395703">
        <ele>2094.4</ele>
        <time>2019-03-02T16:00:29Z</time>
      </trkpt>
      <trkpt lat="42.693819" lon="1.395664">
        <ele>2096.7</ele>
        <time>2019-03-02T16:01:03Z</time>
      </trkpt>
      <trkpt lat="42.693733" lon="1.395610">
        <ele>2099.1</ele>
        <time>2019-03-02T16:01:31Z</time>
      </trkpt>
      <trkpt lat="42.693650" lon="1.395544">
        <ele>2103.9</ele>
        <time>2019-03-02T16:02:08Z</time>
      </trkpt>
      <trkpt lat="42.693576" lon="1.395493">
        <ele>2108.1</ele>
        <time>2019-03-02T16:02:35Z</time>
      </trkpt>
      <trkpt lat="42.693485" lon="1.395480">
        <ele>2111.4</ele>
        <time>2019-03-02T16:03:04Z</time>
      </trkpt>
      <trkpt lat="42.693419" lon="1.395398">
        <ele>2112.5</ele>
        <time>2019-03-02T16:03:35Z</time>
      </trkpt>
      <trkpt lat="42.693340" lon="1.395363">
        <ele>2116.8</ele>
        <time>2019-03-02T16:04:09Z</time>
      </trkpt>
      <trkpt lat="42.693266" lon="1.395349">
        <ele>2123.7</ele>
        <time>2019-03-02T16:04:46Z</time>
      </trkpt>
      <trkpt lat="42.693198" lon="1.395285">
        <ele>2125.6</ele>
        <time>2019-03-02T16:05:15Z</time>
      </trkpt>
      <trkpt lat="42.693153" lon="1.395254">
        <ele>2128.0</ele>
        <time>2019-03-02T16:07:02Z</time>
      </trkpt>
      <trkpt lat="42.693089" lon="1.395151">
        <ele>2129.9</ele>
        <time>2019-03-02T16:07:32Z</time>
      </trkpt>
      <trkpt lat="42.693029" lon="1.395068">
        <ele>2133.0</ele>
        <time>2019-03-02T16:08:15Z</time>
      </trkpt>
      <trkpt lat="42.692973" lon="1.394954">
        <ele>2136.4</ele>
        <time>2019-03-02T16:09:16Z</time>
      </trkpt>
      <trkpt lat="42.692897" lon="1.394862">
        <ele>2143.5</ele>
        <time>2019-03-02T16:10:24Z</time>
      </trkpt>
      <trkpt lat="42.692873" lon="1.394875">
        <ele>2147.3</ele>
        <time>2019-03-02T16:11:41Z</time>
      </trkpt>
      <trkpt lat="42.692793" lon="1.394962">
        <ele>2152.1</ele>
        <time>2019-03-02T16:13:11Z</time>
      </trkpt>
      <trkpt lat="42.692720" lon="1.394924">
        <ele>2161.0</ele>
        <time>2019-03-02T16:14:37Z</time>
      </trkpt>
      <trkpt lat="42.692618" lon="1.394978">
        <ele>2166.7</ele>
        <time>2019-03-02T16:16:00Z</time>
      </trkpt>
      <trkpt lat="42.692552" lon="1.394920">
        <ele>2169.2</ele>
        <time>2019-03-02T16:16:35Z</time>
      </trkpt>
      <trkpt lat="42.692482" lon="1.394993">
        <ele>2175.1</ele>
        <time>2019-03-02T16:17:45Z</time>
      </trkpt>
      <trkpt lat="42.692474" lon="1.395108">
        <ele>2177.9</ele>
        <time>2019-03-02T16:18:19Z</time>
      </trkpt>
      <trkpt lat="42.692444" lon="1.395179">
        <ele>2182.4</ele>
        <time>2019-03-02T16:19:03Z</time>
      </trkpt>
      <trkpt lat="42.692370" lon="1.395246">
        <ele>2185.6</ele>
        <time>2019-03-02T16:19:43Z</time>
      </trkpt>
      <trkpt lat="42.692293" lon="1.395316">
        <ele>2188.2</ele>
        <time>2019-03-02T16:20:13Z</time>
      </trkpt>
      <trkpt lat="42.692218" lon="1.395399">
        <ele>2190.8</ele>
        <time>2019-03-02T16:20:49Z</time>
      </trkpt>
      <trkpt lat="42.692157" lon="1.395499">
        <ele>2194.1</ele>
        <time>2019-03-02T16:21:24Z</time>
      </trkpt>
      <trkpt lat="42.692075" lon="1.395582">
        <ele>2197.9</ele>
        <time>2019-03-02T16:21:57Z</time>
      </trkpt>
      <trkpt lat="42.691988" lon="1.395621">
        <ele>2202.3</ele>
        <time>2019-03-02T16:22:29Z</time>
      </trkpt>
      <trkpt lat="42.691913" lon="1.395641">
        <ele>2202.6</ele>
        <time>2019-03-02T16:22:58Z</time>
      </trkpt>
      <trkpt lat="42.691852" lon="1.395662">
        <ele>2211.2</ele>
        <time>2019-03-02T16:23:26Z</time>
      </trkpt>
      <trkpt lat="42.691754" lon="1.395678">
        <ele>2212.3</ele>
        <time>2019-03-02T16:24:01Z</time>
      </trkpt>
      <trkpt lat="42.691682" lon="1.395717">
        <ele>2213.1</ele>
        <time>2019-03-02T16:24:29Z</time>
      </trkpt>
      <trkpt lat="42.691671" lon="1.395826">
        <ele>2216.6</ele>
        <time>2019-03-02T16:24:55Z</time>
      </trkpt>
      <trkpt lat="42.691573" lon="1.395861">
        <ele>2219.6</ele>
        <time>2019-03-02T16:25:33Z</time>
      </trkpt>
      <trkpt lat="42.691522" lon="1.395935">
        <ele>2223.9</ele>
        <time>2019-03-02T16:26:06Z</time>
      </trkpt>
      <trkpt lat="42.691455" lon="1.395993">
        <ele>2230.3</ele>
        <time>2019-03-02T16:26:31Z</time>
      </trkpt>
      <trkpt lat="42.691421" lon="1.395899">
        <ele>2223.2</ele>
        <time>2019-03-03T05:52:56Z</time>
      </trkpt>
      <trkpt lat="42.691375" lon="1.395785">
        <ele>2220.8</ele>
        <time>2019-03-03T05:53:09Z</time>
      </trkpt>
      <trkpt lat="42.691303" lon="1.395702">
        <ele>2221.4</ele>
        <time>2019-03-03T05:53:21Z</time>
      </trkpt>
      <trkpt lat="42.691248" lon="1.395598">
        <ele>2223.9</ele>
        <time>2019-03-03T05:53:37Z</time>
      </trkpt>
      <trkpt lat="42.691180" lon="1.395506">
        <ele>2227.6</ele>
        <time>2019-03-03T05:53:57Z</time>
      </trkpt>
      <trkpt lat="42.691120" lon="1.395409">
        <ele>2229.8</ele>
        <time>2019-03-03T05:54:14Z</time>
      </trkpt>
      <trkpt lat="42.691059" lon="1.395363">
        <ele>2232.3</ele>
        <time>2019-03-03T05:54:45Z</time>
      </trkpt>
      <trkpt lat="42.690975" lon="1.395291">
        <ele>2232.8</ele>
        <time>2019-03-03T05:54:56Z</time>
      </trkpt>
      <trkpt lat="42.690892" lon="1.395236">
        <ele>2233.1</ele>
        <time>2019-03-03T05:55:13Z</time>
      </trkpt>
      <trkpt lat="42.690812" lon="1.395145">
        <ele>2234.6</ele>
        <time>2019-03-03T05:55:29Z</time>
      </trkpt>
      <trkpt lat="42.690731" lon="1.395056">
        <ele>2237.7</ele>
        <time>2019-03-03T05:55:49Z</time>
      </trkpt>
      <trkpt lat="42.690649" lon="1.395013">
        <ele>2241.3</ele>
        <time>2019-03-03T05:56:12Z</time>
      </trkpt>
      <trkpt lat="42.690575" lon="1.394969">
        <ele>2243.6</ele>
        <time>2019-03-03T05:56:36Z</time>
      </trkpt>
      <trkpt lat="42.690493" lon="1.394976">
        <ele>2247.4</ele>
        <time>2019-03-03T05:57:03Z</time>
      </trkpt>
      <trkpt lat="42.690406" lon="1.395007">
        <ele>2251.2</ele>
        <time>2019-03-03T05:57:33Z</time>
      </trkpt>
      <trkpt lat="42.690318" lon="1.395016">
        <ele>2254.7</ele>
        <time>2019-03-03T05:57:59Z</time>
      </trkpt>
      <trkpt lat="42.690258" lon="1.395010">
        <ele>2257.7</ele>
        <time>2019-03-03T05:58:50Z</time>
      </trkpt>
      <trkpt lat="42.690245" lon="1.395027">
        <ele>2258.6</ele>
        <time>2019-03-03T05:59:54Z</time>
      </trkpt>
      <trkpt lat="42.690215" lon="1.395012">
        <ele>2259.6</ele>
        <time>2019-03-03T06:02:13Z</time>
      </trkpt>
      <trkpt lat="42.690153" lon="1.395075">
        <ele>2260.3</ele>
        <time>2019-03-03T06:03:54Z</time>
      </trkpt>
      <trkpt lat="42.690072" lon="1.395123">
        <ele>2263.4</ele>
        <time>2019-03-03T06:04:13Z</time>
      </trkpt>
      <trkpt lat="42.689996" lon="1.395213">
        <ele>2266.8</ele>
        <time>2019-03-03T06:04:35Z</time>
      </trkpt>
      <trkpt lat="42.689902" lon="1.395225">
        <ele>2270.8</ele>
        <time>2019-03-03T06:04:58Z</time>
      </trkpt>
      <trkpt lat="42.689813" lon="1.395223">
        <ele>2275.8</ele>
        <time>2019-03-03T06:05:19Z</time>
      </trkpt>
      <trkpt lat="42.689722" lon="1.395271">
        <ele>2277.4</ele>
        <time>2019-03-03T06:05:39Z</time>
      </trkpt>
      <trkpt lat="42.689633" lon="1.395285">
        <ele>2278.7</ele>
        <time>2019-03-03T06:06:02Z</time>
      </trkpt>
      <trkpt lat="42.689542" lon="1.395276">
        <ele>2281.1</ele>
        <time>2019-03-03T06:06:26Z</time>
      </trkpt>
      <trkpt lat="42.689454" lon="1.395295">
        <ele>2283.0</ele>
        <time>2019-03-03T06:06:44Z</time>
      </trkpt>
      <trkpt lat="42.689368" lon="1.395310">
        <ele>2287.7</ele>
        <time>2019-03-03T06:07:12Z</time>
      </trkpt>
      <trkpt lat="42.689296" lon="1.395343">
        <ele>2293.3</ele>
        <time>2019-03-03T06:07:48Z</time>
      </trkpt>
      <trkpt lat="42.689232" lon="1.395401">
        <ele>2297.2</ele>
        <time>2019-03-03T06:08:15Z</time>
      </trkpt>
      <trkpt lat="42.689156" lon="1.395469">
        <ele>2301.2</ele>
        <time>2019-03-03T06:08:50Z</time>
      </trkpt>
      <trkpt lat="42.689102" lon="1.395576">
        <ele>2304.9</ele>
        <time>2019-03-03T06:09:24Z</time>
      </trkpt>
      <trkpt lat="42.689023" lon="1.395657">
        <ele>2308.7</ele>
        <time>2019-03-03T06:09:54Z</time>
      </trkpt>
      <trkpt lat="42.688943" lon="1.395636">
        <ele>2310.8</ele>
        <time>2019-03-03T06:10:16Z</time>
      </trkpt>
      <trkpt lat="42.688860" lon="1.395726">
        <ele>2316.3</ele>
        <time>2019-03-03T06:10:57Z</time>
      </trkpt>
      <trkpt lat="42.688767" lon="1.395697">
        <ele>2319.6</ele>
        <time>2019-03-03T06:11:25Z</time>
      </trkpt>
      <trkpt lat="42.688707" lon="1.395709">
        <ele>2323.1</ele>
        <time>2019-03-03T06:12:33Z</time>
      </trkpt>
      <trkpt lat="42.688631" lon="1.395792">
        <ele>2325.7</ele>
        <time>2019-03-03T06:12:56Z</time>
      </trkpt>
      <trkpt lat="42.688549" lon="1.395861">
        <ele>2327.8</ele>
        <time>2019-03-03T06:13:17Z</time>
      </trkpt>
      <trkpt lat="42.688473" lon="1.395936">
        <ele>2331.2</ele>
        <time>2019-03-03T06:13:46Z</time>
      </trkpt>
      <trkpt lat="42.688384" lon="1.395974">
        <ele>2336.3</ele>
        <time>2019-03-03T06:14:27Z</time>
      </trkpt>
      <trkpt lat="42.688292" lon="1.395964">
        <ele>2339.4</ele>
        <time>2019-03-03T06:14:53Z</time>
      </trkpt>
      <trkpt lat="42.688198" lon="1.396004">
        <ele>2340.6</ele>
        <time>2019-03-03T06:15:09Z</time>
      </trkpt>
      <trkpt lat="42.688096" lon="1.396023">
        <ele>2340.6</ele>
        <time>2019-03-03T06:15:23Z</time>
      </trkpt>
      <trkpt lat="42.687996" lon="1.396055">
        <ele>2339.4</ele>
        <time>2019-03-03T06:15:40Z</time>
      </trkpt>
      <trkpt lat="42.687901" lon="1.396031">
        <ele>2341.8</ele>
        <time>2019-03-03T06:15:59Z</time>
      </trkpt>
      <trkpt lat="42.687823" lon="1.396058">
        <ele>2346.1</ele>
        <time>2019-03-03T06:16:33Z</time>
      </trkpt>
      <trkpt lat="42.687741" lon="1.396095">
        <ele>2347.2</ele>
        <time>2019-03-03T06:17:31Z</time>
      </trkpt>
      <trkpt lat="42.687655" lon="1.396138">
        <ele>2349.9</ele>
        <time>2019-03-03T06:17:53Z</time>
      </trkpt>
      <trkpt lat="42.687579" lon="1.396182">
        <ele>2352.8</ele>
        <time>2019-03-03T06:18:17Z</time>
      </trkpt>
      <trkpt lat="42.687494" lon="1.396228">
        <ele>2355.3</ele>
        <time>2019-03-03T06:18:39Z</time>
      </trkpt>
      <trkpt lat="42.687395" lon="1.396261">
        <ele>2359.9</ele>
        <time>2019-03-03T06:19:11Z</time>
      </trkpt>
      <trkpt lat="42.687300" lon="1.396234">
        <ele>2362.5</ele>
        <time>2019-03-03T06:19:36Z</time>
      </trkpt>
      <trkpt lat="42.687208" lon="1.396245">
        <ele>2366.7</ele>
        <time>2019-03-03T06:20:05Z</time>
      </trkpt>
      <trkpt lat="42.687112" lon="1.396246">
        <ele>2368.3</ele>
        <time>2019-03-03T06:20:29Z</time>
      </trkpt>
      <trkpt lat="42.687024" lon="1.396216">
        <ele>2371.2</ele>
        <time>2019-03-03T06:20:54Z</time>
      </trkpt>
      <trkpt lat="42.686932" lon="1.396216">
        <ele>2373.3</ele>
        <time>2019-03-03T06:21:16Z</time>
      </trkpt>
      <trkpt lat="42.686845" lon="1.396225">
        <ele>2376.0</ele>
        <time>2019-03-03T06:21:37Z</time>
      </trkpt>
      <trkpt lat="42.686742" lon="1.396181">
        <ele>2374.9</ele>
        <time>2019-03-03T06:21:53Z</time>
      </trkpt>
      <trkpt lat="42.686641" lon="1.396142">
        <ele>2374.2</ele>
        <time>2019-03-03T06:22:06Z</time>
      </trkpt>
      <trkpt lat="42.686570" lon="1.396089">
        <ele>2371.9</ele>
        <time>2019-03-03T06:22:21Z</time>
      </trkpt>
      <trkpt lat="42.686495" lon="1.396008">
        <ele>2371.8</ele>
        <time>2019-03-03T06:22:37Z</time>
      </trkpt>
      <trkpt lat="42.686409" lon="1.395951">
        <ele>2371.9</ele>
        <time>2019-03-03T06:22:53Z</time>
      </trkpt>
      <trkpt lat="42.686309" lon="1.395897">
        <ele>2373.6</ele>
        <time>2019-03-03T06:25:32Z</time>
      </trkpt>
      <trkpt lat="42.686218" lon="1.395844">
        <ele>2373.1</ele>
        <time>2019-03-03T06:25:47Z</time>
      </trkpt>
      <trkpt lat="42.686131" lon="1.395791">
        <ele>2373.4</ele>
        <time>2019-03-03T06:26:02Z</time>
      </trkpt>
      <trkpt lat="42.686035" lon="1.395769">
        <ele>2375.5</ele>
        <time>2019-03-03T06:26:31Z</time>
      </trkpt>
      <trkpt lat="42.685972" lon="1.395753">
        <ele>2378.4</ele>
        <time>2019-03-03T06:27:17Z</time>
      </trkpt>
      <trkpt lat="42.685938" lon="1.395748">
        <ele>2378.4</ele>
        <time>2019-03-03T06:32:09Z</time>
      </trkpt>
      <trkpt lat="42.685888" lon="1.395742">
        <ele>2377.3</ele>
        <time>2019-03-03T06:33:14Z</time>
      </trkpt>
      <trkpt lat="42.685795" lon="1.395720">
        <ele>2378.1</ele>
        <time>2019-03-03T06:33:30Z</time>
      </trkpt>
      <trkpt lat="42.685701" lon="1.395684">
        <ele>2378.2</ele>
        <time>2019-03-03T06:33:46Z</time>
      </trkpt>
      <trkpt lat="42.685608" lon="1.395636">
        <ele>2380.0</ele>
        <time>2019-03-03T06:34:03Z</time>
      </trkpt>
      <trkpt lat="42.685519" lon="1.395584">
        <ele>2379.4</ele>
        <time>2019-03-03T06:34:27Z</time>
      </trkpt>
      <trkpt lat="42.685470" lon="1.395540">
        <ele>2383.0</ele>
        <time>2019-03-03T06:35:06Z</time>
      </trkpt>
      <trkpt lat="42.685379" lon="1.395464">
        <ele>2380.1</ele>
        <time>2019-03-03T06:35:30Z</time>
      </trkpt>
      <trkpt lat="42.685304" lon="1.395421">
        <ele>2378.2</ele>
        <time>2019-03-03T06:35:58Z</time>
      </trkpt>
      <trkpt lat="42.685231" lon="1.395345">
        <ele>2377.1</ele>
        <time>2019-03-03T06:36:22Z</time>
      </trkpt>
      <trkpt lat="42.685151" lon="1.395304">
        <ele>2376.4</ele>
        <time>2019-03-03T06:36:53Z</time>
      </trkpt>
      <trkpt lat="42.685059" lon="1.395251">
        <ele>2375.6</ele>
        <time>2019-03-03T06:37:16Z</time>
      </trkpt>
      <trkpt lat="42.684976" lon="1.395195">
        <ele>2374.9</ele>
        <time>2019-03-03T06:37:38Z</time>
      </trkpt>
      <trkpt lat="42.684893" lon="1.395146">
        <ele>2374.7</ele>
        <time>2019-03-03T06:38:11Z</time>
      </trkpt>
      <trkpt lat="42.684806" lon="1.395102">
        <ele>2373.3</ele>
        <time>2019-03-03T06:38:36Z</time>
      </trkpt>
      <trkpt lat="42.684718" lon="1.395072">
        <ele>2374.6</ele>
        <time>2019-03-03T06:39:09Z</time>
      </trkpt>
      <trkpt lat="42.684637" lon="1.395017">
        <ele>2374.7</ele>
        <time>2019-03-03T06:40:00Z</time>
      </trkpt>
      <trkpt lat="42.684553" lon="1.394961">
        <ele>2374.1</ele>
        <time>2019-03-03T06:40:25Z</time>
      </trkpt>
      <trkpt lat="42.684480" lon="1.394927">
        <ele>2374.6</ele>
        <time>2019-03-03T06:40:57Z</time>
      </trkpt>
      <trkpt lat="42.684511" lon="1.394929">
        <ele>2374.9</ele>
        <time>2019-03-03T06:41:48Z</time>
      </trkpt>
      <trkpt lat="42.684417" lon="1.394898">
        <ele>2374.9</ele>
        <time>2019-03-03T06:42:16Z</time>
      </trkpt>
      <trkpt lat="42.684322" lon="1.394875">
        <ele>2375.9</ele>
        <time>2019-03-03T06:42:32Z</time>
      </trkpt>
      <trkpt lat="42.684230" lon="1.394855">
        <ele>2376.5</ele>
        <time>2019-03-03T06:42:50Z</time>
      </trkpt>
      <trkpt lat="42.684129" lon="1.394817">
        <ele>2378.3</ele>
        <time>2019-03-03T06:43:08Z</time>
      </trkpt>
      <trkpt lat="42.684032" lon="1.394810">
        <ele>2380.2</ele>
        <time>2019-03-03T06:43:24Z</time>
      </trkpt>
      <trkpt lat="42.683939" lon="1.394777">
        <ele>2379.6</ele>
        <time>2019-03-03T06:43:40Z</time>
      </trkpt>
      <trkpt lat="42.683854" lon="1.394720">
        <ele>2381.1</ele>
        <time>2019-03-03T06:43:59Z</time>
      </trkpt>
      <trkpt lat="42.683763" lon="1.394661">
        <ele>2380.4</ele>
        <time>2019-03-03T06:44:15Z</time>
      </trkpt>
      <trkpt lat="42.683673" lon="1.394630">
        <ele>2379.9</ele>
        <time>2019-03-03T06:44:39Z</time>
      </trkpt>
      <trkpt lat="42.683576" lon="1.394612">
        <ele>2382.8</ele>
        <time>2019-03-03T06:45:02Z</time>
      </trkpt>
      <trkpt lat="42.683476" lon="1.394597">
        <ele>2387.1</ele>
        <time>2019-03-03T06:45:26Z</time>
      </trkpt>
      <trkpt lat="42.683379" lon="1.394610">
        <ele>2388.9</ele>
        <time>2019-03-03T06:45:51Z</time>
      </trkpt>
      <trkpt lat="42.683285" lon="1.394587">
        <ele>2392.1</ele>
        <time>2019-03-03T06:46:24Z</time>
      </trkpt>
      <trkpt lat="42.683193" lon="1.394506">
        <ele>2392.0</ele>
        <time>2019-03-03T06:46:58Z</time>
      </trkpt>
      <trkpt lat="42.683101" lon="1.394490">
        <ele>2393.3</ele>
        <time>2019-03-03T06:47:18Z</time>
      </trkpt>
      <trkpt lat="42.683001" lon="1.394481">
        <ele>2396.4</ele>
        <time>2019-03-03T06:47:46Z</time>
      </trkpt>
      <trkpt lat="42.682912" lon="1.394435">
        <ele>2398.7</ele>
        <time>2019-03-03T06:48:17Z</time>
      </trkpt>
      <trkpt lat="42.682832" lon="1.394395">
        <ele>2401.4</ele>
        <time>2019-03-03T06:48:53Z</time>
      </trkpt>
      <trkpt lat="42.682757" lon="1.394315">
        <ele>2405.5</ele>
        <time>2019-03-03T06:49:15Z</time>
      </trkpt>
      <trkpt lat="42.682675" lon="1.394308">
        <ele>2405.9</ele>
        <time>2019-03-03T06:49:52Z</time>
      </trkpt>
      <trkpt lat="42.682577" lon="1.394287">
        <ele>2408.3</ele>
        <time>2019-03-03T06:50:15Z</time>
      </trkpt>
      <trkpt lat="42.682484" lon="1.394260">
        <ele>2412.5</ele>
        <time>2019-03-03T06:50:41Z</time>
      </trkpt>
      <trkpt lat="42.682392" lon="1.394250">
        <ele>2415.6</ele>
        <time>2019-03-03T06:51:04Z</time>
      </trkpt>
      <trkpt lat="42.682290" lon="1.394217">
        <ele>2417.8</ele>
        <time>2019-03-03T06:51:27Z</time>
      </trkpt>
      <trkpt lat="42.682212" lon="1.394147">
        <ele>2420.0</ele>
        <time>2019-03-03T06:51:51Z</time>
      </trkpt>
      <trkpt lat="42.682197" lon="1.394111">
        <ele>2418.6</ele>
        <time>2019-03-03T06:52:57Z</time>
      </trkpt>
      <trkpt lat="42.682176" lon="1.394108">
        <ele>2419.1</ele>
        <time>2019-03-03T06:55:04Z</time>
      </trkpt>
      <trkpt lat="42.682085" lon="1.394089">
        <ele>2419.9</ele>
        <time>2019-03-03T06:55:23Z</time>
      </trkpt>
      <trkpt lat="42.681993" lon="1.394040">
        <ele>2421.4</ele>
        <time>2019-03-03T06:55:37Z</time>
      </trkpt>
      <trkpt lat="42.681911" lon="1.393994">
        <ele>2422.5</ele>
        <time>2019-03-03T06:55:52Z</time>
      </trkpt>
      <trkpt lat="42.681817" lon="1.393973">
        <ele>2424.3</ele>
        <time>2019-03-03T06:56:07Z</time>
      </trkpt>
      <trkpt lat="42.681739" lon="1.393939">
        <ele>2426.3</ele>
        <time>2019-03-03T06:56:24Z</time>
      </trkpt>
      <trkpt lat="42.681643" lon="1.393905">
        <ele>2427.7</ele>
        <time>2019-03-03T06:56:39Z</time>
      </trkpt>
      <trkpt lat="42.681545" lon="1.393885">
        <ele>2429.0</ele>
        <time>2019-03-03T06:56:54Z</time>
      </trkpt>
      <trkpt lat="42.681445" lon="1.393905">
        <ele>2430.7</ele>
        <time>2019-03-03T06:57:12Z</time>
      </trkpt>
      <trkpt lat="42.681344" lon="1.393938">
        <ele>2432.5</ele>
        <time>2019-03-03T06:57:29Z</time>
      </trkpt>
      <trkpt lat="42.681249" lon="1.393974">
        <ele>2433.5</ele>
        <time>2019-03-03T06:57:45Z</time>
      </trkpt>
      <trkpt lat="42.681193" lon="1.393960">
        <ele>2437.0</ele>
        <time>2019-03-03T06:58:12Z</time>
      </trkpt>
      <trkpt lat="42.681035" lon="1.393783">
        <ele>2431.8</ele>
        <time>2019-03-03T07:01:31Z</time>
      </trkpt>
      <trkpt lat="42.680969" lon="1.393760">
        <ele>2426.9</ele>
        <time>2019-03-03T07:01:53Z</time>
      </trkpt>
      <trkpt lat="42.680934" lon="1.393873">
        <ele>2426.9</ele>
        <time>2019-03-03T07:02:18Z</time>
      </trkpt>
      <trkpt lat="42.680871" lon="1.393982">
        <ele>2427.4</ele>
        <time>2019-03-03T07:02:36Z</time>
      </trkpt>
      <trkpt lat="42.680801" lon="1.394092">
        <ele>2428.3</ele>
        <time>2019-03-03T07:03:04Z</time>
      </trkpt>
      <trkpt lat="42.680749" lon="1.394190">
        <ele>2429.6</ele>
        <time>2019-03-03T07:03:25Z</time>
      </trkpt>
      <trkpt lat="42.680700" lon="1.394290">
        <ele>2432.8</ele>
        <time>2019-03-03T07:03:50Z</time>
      </trkpt>
      <trkpt lat="42.680628" lon="1.394403">
        <ele>2433.8</ele>
        <time>2019-03-03T07:04:11Z</time>
      </trkpt>
      <trkpt lat="42.680586" lon="1.394516">
        <ele>2434.8</ele>
        <time>2019-03-03T07:04:30Z</time>
      </trkpt>
      <trkpt lat="42.680543" lon="1.394662">
        <ele>2435.8</ele>
        <time>2019-03-03T07:04:48Z</time>
      </trkpt>
      <trkpt lat="42.680498" lon="1.394683">
        <ele>2437.5</ele>
        <time>2019-03-03T07:05:11Z</time>
      </trkpt>
      <trkpt lat="42.680491" lon="1.394762">
        <ele>2440.0</ele>
        <time>2019-03-03T07:06:09Z</time>
      </trkpt>
      <trkpt lat="42.680492" lon="1.394916">
        <ele>2443.4</ele>
        <time>2019-03-03T07:06:31Z</time>
      </trkpt>
      <trkpt lat="42.680506" lon="1.395005">
        <ele>2448.1</ele>
        <time>2019-03-03T07:07:00Z</time>
      </trkpt>
      <trkpt lat="42.680500" lon="1.395100">
        <ele>2454.2</ele>
        <time>2019-03-03T07:07:42Z</time>
      </trkpt>
      <trkpt lat="42.680459" lon="1.395262">
        <ele>2462.1</ele>
        <time>2019-03-03T07:08:55Z</time>
      </trkpt>
      <trkpt lat="42.680431" lon="1.395351">
        <ele>2468.8</ele>
        <time>2019-03-03T07:09:48Z</time>
      </trkpt>
      <trkpt lat="42.680393" lon="1.395487">
        <ele>2475.7</ele>
        <time>2019-03-03T07:10:28Z</time>
      </trkpt>
      <trkpt lat="42.680400" lon="1.395509">
        <ele>2481.5</ele>
        <time>2019-03-03T07:12:12Z</time>
      </trkpt>
      <trkpt lat="42.680389" lon="1.395614">
        <ele>2484.1</ele>
        <time>2019-03-03T07:12:42Z</time>
      </trkpt>
      <trkpt lat="42.680354" lon="1.395729">
        <ele>2488.4</ele>
        <time>2019-03-03T07:13:21Z</time>
      </trkpt>
      <trkpt lat="42.680338" lon="1.395863">
        <ele>2492.8</ele>
        <time>2019-03-03T07:13:57Z</time>
      </trkpt>
      <trkpt lat="42.680344" lon="1.395971">
        <ele>2495.8</ele>
        <time>2019-03-03T07:14:23Z</time>
      </trkpt>
      <trkpt lat="42.680317" lon="1.396100">
        <ele>2500.6</ele>
        <time>2019-03-03T07:15:02Z</time>
      </trkpt>
      <trkpt lat="42.680298" lon="1.396226">
        <ele>2504.6</ele>
        <time>2019-03-03T07:15:27Z</time>
      </trkpt>
      <trkpt lat="42.680269" lon="1.396342">
        <ele>2507.9</ele>
        <time>2019-03-03T07:15:48Z</time>
      </trkpt>
      <trkpt lat="42.680256" lon="1.396416">
        <ele>2510.5</ele>
        <time>2019-03-03T07:16:53Z</time>
      </trkpt>
      <trkpt lat="42.680269" lon="1.396496">
        <ele>2512.2</ele>
        <time>2019-03-03T07:27:34Z</time>
      </trkpt>
      <trkpt lat="42.680274" lon="1.396556">
        <ele>2513.5</ele>
        <time>2019-03-03T07:29:08Z</time>
      </trkpt>
      <trkpt lat="42.680278" lon="1.396685">
        <ele>2515.4</ele>
        <time>2019-03-03T07:29:27Z</time>
      </trkpt>
      <trkpt lat="42.680288" lon="1.396810">
        <ele>2519.1</ele>
        <time>2019-03-03T07:29:48Z</time>
      </trkpt>
      <trkpt lat="42.680307" lon="1.396923">
        <ele>2522.7</ele>
        <time>2019-03-03T07:30:11Z</time>
      </trkpt>
      <trkpt lat="42.680287" lon="1.397056">
        <ele>2526.3</ele>
        <time>2019-03-03T07:30:35Z</time>
      </trkpt>
      <trkpt lat="42.680245" lon="1.397165">
        <ele>2527.5</ele>
        <time>2019-03-03T07:30:58Z</time>
      </trkpt>
      <trkpt lat="42.680201" lon="1.397278">
        <ele>2530.9</ele>
        <time>2019-03-03T07:31:21Z</time>
      </trkpt>
      <trkpt lat="42.680145" lon="1.397390">
        <ele>2534.3</ele>
        <time>2019-03-03T07:31:51Z</time>
      </trkpt>
      <trkpt lat="42.680081" lon="1.397454">
        <ele>2538.5</ele>
        <time>2019-03-03T07:32:14Z</time>
      </trkpt>
      <trkpt lat="42.680001" lon="1.397523">
        <ele>2541.3</ele>
        <time>2019-03-03T07:32:38Z</time>
      </trkpt>
      <trkpt lat="42.679975" lon="1.397621">
        <ele>2546.2</ele>
        <time>2019-03-03T07:33:09Z</time>
      </trkpt>
      <trkpt lat="42.679932" lon="1.397721">
        <ele>2550.9</ele>
        <time>2019-03-03T07:33:38Z</time>
      </trkpt>
      <trkpt lat="42.679936" lon="1.397843">
        <ele>2554.9</ele>
        <time>2019-03-03T07:34:05Z</time>
      </trkpt>
      <trkpt lat="42.679953" lon="1.397943">
        <ele>2556.7</ele>
        <time>2019-03-03T07:34:23Z</time>
      </trkpt>
      <trkpt lat="42.679926" lon="1.398067">
        <ele>2558.1</ele>
        <time>2019-03-03T07:34:43Z</time>
      </trkpt>
      <trkpt lat="42.679871" lon="1.398168">
        <ele>2558.2</ele>
        <time>2019-03-03T07:35:01Z</time>
      </trkpt>
      <trkpt lat="42.679848" lon="1.398176">
        <ele>2557.7</ele>
        <time>2019-03-03T07:37:46Z</time>
      </trkpt>
      <trkpt lat="42.679797" lon="1.398238">
        <ele>2558.6</ele>
        <time>2019-03-03T07:38:26Z</time>
      </trkpt>
      <trkpt lat="42.679715" lon="1.398332">
        <ele>2561.4</ele>
        <time>2019-03-03T07:38:45Z</time>
      </trkpt>
      <trkpt lat="42.679639" lon="1.398390">
        <ele>2562.7</ele>
        <time>2019-03-03T07:39:05Z</time>
      </trkpt>
      <trkpt lat="42.679550" lon="1.398442">
        <ele>2565.6</ele>
        <time>2019-03-03T07:39:37Z</time>
      </trkpt>
      <trkpt lat="42.679462" lon="1.398513">
        <ele>2568.0</ele>
        <time>2019-03-03T07:39:58Z</time>
      </trkpt>
      <trkpt lat="42.679410" lon="1.398576">
        <ele>2568.7</ele>
        <time>2019-03-03T07:40:13Z</time>
      </trkpt>
      <trkpt lat="42.679348" lon="1.398662">
        <ele>2570.9</ele>
        <time>2019-03-03T07:40:39Z</time>
      </trkpt>
      <trkpt lat="42.679259" lon="1.398734">
        <ele>2572.8</ele>
        <time>2019-03-03T07:40:59Z</time>
      </trkpt>
      <trkpt lat="42.679176" lon="1.398796">
        <ele>2573.6</ele>
        <time>2019-03-03T07:41:14Z</time>
      </trkpt>
      <trkpt lat="42.679069" lon="1.398777">
        <ele>2576.0</ele>
        <time>2019-03-03T07:41:37Z</time>
      </trkpt>
      <trkpt lat="42.679006" lon="1.398676">
        <ele>2577.7</ele>
        <time>2019-03-03T07:41:56Z</time>
      </trkpt>
      <trkpt lat="42.678958" lon="1.398572">
        <ele>2579.9</ele>
        <time>2019-03-03T07:42:22Z</time>
      </trkpt>
      <trkpt lat="42.678916" lon="1.398491">
        <ele>2580.7</ele>
        <time>2019-03-03T07:42:47Z</time>
      </trkpt>
      <trkpt lat="42.678917" lon="1.398536">
        <ele>2580.4</ele>
        <time>2019-03-03T07:43:18Z</time>
      </trkpt>
      <trkpt lat="42.678876" lon="1.398412">
        <ele>2580.6</ele>
        <time>2019-03-03T07:43:38Z</time>
      </trkpt>
      <trkpt lat="42.678888" lon="1.398281">
        <ele>2581.7</ele>
        <time>2019-03-03T07:43:52Z</time>
      </trkpt>
      <trkpt lat="42.678892" lon="1.398156">
        <ele>2582.6</ele>
        <time>2019-03-03T07:44:08Z</time>
      </trkpt>
      <trkpt lat="42.678909" lon="1.398027">
        <ele>2584.0</ele>
        <time>2019-03-03T07:44:24Z</time>
      </trkpt>
      <trkpt lat="42.678938" lon="1.397900">
        <ele>2585.3</ele>
        <time>2019-03-03T07:44:40Z</time>
      </trkpt>
      <trkpt lat="42.678893" lon="1.397798">
        <ele>2586.3</ele>
        <time>2019-03-03T07:44:58Z</time>
      </trkpt>
      <trkpt lat="42.678815" lon="1.397756">
        <ele>2588.2</ele>
        <time>2019-03-03T07:45:21Z</time>
      </trkpt>
      <trkpt lat="42.678718" lon="1.397789">
        <ele>2593.6</ele>
        <time>2019-03-03T07:46:05Z</time>
      </trkpt>
      <trkpt lat="42.678622" lon="1.397724">
        <ele>2599.2</ele>
        <time>2019-03-03T07:46:54Z</time>
      </trkpt>
      <trkpt lat="42.678536" lon="1.397681">
        <ele>2604.1</ele>
        <time>2019-03-03T07:47:31Z</time>
      </trkpt>
      <trkpt lat="42.678422" lon="1.397627">
        <ele>2612.1</ele>
        <time>2019-03-03T07:48:41Z</time>
      </trkpt>
      <trkpt lat="42.678309" lon="1.397580">
        <ele>2619.9</ele>
        <time>2019-03-03T07:49:50Z</time>
      </trkpt>
      <trkpt lat="42.678262" lon="1.397453">
        <ele>2625.6</ele>
        <time>2019-03-03T07:50:42Z</time>
      </trkpt>
      <trkpt lat="42.678237" lon="1.397327">
        <ele>2628.9</ele>
        <time>2019-03-03T07:51:18Z</time>
      </trkpt>
      <trkpt lat="42.678225" lon="1.397192">
        <ele>2634.4</ele>
        <time>2019-03-03T07:51:57Z</time>
      </trkpt>
      <trkpt lat="42.678238" lon="1.397064">
        <ele>2638.4</ele>
        <time>2019-03-03T07:52:23Z</time>
      </trkpt>
      <trkpt lat="42.678170" lon="1.396998">
        <ele>2640.2</ele>
        <time>2019-03-03T07:52:47Z</time>
      </trkpt>
      <trkpt lat="42.678193" lon="1.397000">
        <ele>2640.4</ele>
        <time>2019-03-03T07:54:47Z</time>
      </trkpt>
      <trkpt lat="42.678158" lon="1.397005">
        <ele>2640.0</ele>
        <time>2019-03-03T07:59:38Z</time>
      </trkpt>
      <trkpt lat="42.678082" lon="1.397040">
        <ele>2642.0</ele>
        <time>2019-03-03T08:00:43Z</time>
      </trkpt>
      <trkpt lat="42.677989" lon="1.397127">
        <ele>2642.9</ele>
        <time>2019-03-03T08:01:00Z</time>
      </trkpt>
      <trkpt lat="42.677937" lon="1.397221">
        <ele>2644.8</ele>
        <time>2019-03-03T08:01:34Z</time>
      </trkpt>
      <trkpt lat="42.677907" lon="1.397282">
        <ele>2647.5</ele>
        <time>2019-03-03T08:01:52Z</time>
      </trkpt>
      <trkpt lat="42.677921" lon="1.397387">
        <ele>2651.7</ele>
        <time>2019-03-03T08:02:24Z</time>
      </trkpt>
      <trkpt lat="42.677899" lon="1.397496">
        <ele>2658.8</ele>
        <time>2019-03-03T08:03:15Z</time>
      </trkpt>
      <trkpt lat="42.677897" lon="1.397576">
        <ele>2660.8</ele>
        <time>2019-03-03T08:03:54Z</time>
      </trkpt>
      <trkpt lat="42.677865" lon="1.397652">
        <ele>2663.9</ele>
        <time>2019-03-03T08:04:19Z</time>
      </trkpt>
      <trkpt lat="42.677778" lon="1.397714">
        <ele>2667.4</ele>
        <time>2019-03-03T08:04:50Z</time>
      </trkpt>
      <trkpt lat="42.677693" lon="1.397664">
        <ele>2670.7</ele>
        <time>2019-03-03T08:05:16Z</time>
      </trkpt>
      <trkpt lat="42.677605" lon="1.397646">
        <ele>2671.2</ele>
        <time>2019-03-03T08:05:41Z</time>
      </trkpt>
      <trkpt lat="42.677508" lon="1.397654">
        <ele>2673.2</ele>
        <time>2019-03-03T08:06:09Z</time>
      </trkpt>
      <trkpt lat="42.677410" lon="1.397666">
        <ele>2678.2</ele>
        <time>2019-03-03T08:06:40Z</time>
      </trkpt>
      <trkpt lat="42.677340" lon="1.397741">
        <ele>2681.1</ele>
        <time>2019-03-03T08:07:19Z</time>
      </trkpt>
      <trkpt lat="42.677254" lon="1.397795">
        <ele>2685.1</ele>
        <time>2019-03-03T08:07:52Z</time>
      </trkpt>
      <trkpt lat="42.677162" lon="1.397852">
        <ele>2686.9</ele>
        <time>2019-03-03T08:08:21Z</time>
      </trkpt>
      <trkpt lat="42.677106" lon="1.397918">
        <ele>2691.0</ele>
        <time>2019-03-03T08:08:56Z</time>
      </trkpt>
      <trkpt lat="42.677101" lon="1.397998">
        <ele>2694.7</ele>
        <time>2019-03-03T08:09:29Z</time>
      </trkpt>
      <trkpt lat="42.677066" lon="1.398123">
        <ele>2697.0</ele>
        <time>2019-03-03T08:10:01Z</time>
      </trkpt>
      <trkpt lat="42.677005" lon="1.398203">
        <ele>2699.5</ele>
        <time>2019-03-03T08:10:25Z</time>
      </trkpt>
      <trkpt lat="42.676990" lon="1.398324">
        <ele>2702.1</ele>
        <time>2019-03-03T08:10:53Z</time>
      </trkpt>
      <trkpt lat="42.676971" lon="1.398447">
        <ele>2704.5</ele>
        <time>2019-03-03T08:11:19Z</time>
      </trkpt>
      <trkpt lat="42.676974" lon="1.398559">
        <ele>2705.5</ele>
        <time>2019-03-03T08:11:40Z</time>
      </trkpt>
      <trkpt lat="42.677000" lon="1.398673">
        <ele>2707.3</ele>
        <time>2019-03-03T08:12:02Z</time>
      </trkpt>
      <trkpt lat="42.677009" lon="1.398791">
        <ele>2709.1</ele>
        <time>2019-03-03T08:12:21Z</time>
      </trkpt>
      <trkpt lat="42.676985" lon="1.398910">
        <ele>2711.6</ele>
        <time>2019-03-03T08:12:49Z</time>
      </trkpt>
      <trkpt lat="42.676913" lon="1.398981">
        <ele>2714.6</ele>
        <time>2019-03-03T08:13:20Z</time>
      </trkpt>
      <trkpt lat="42.676819" lon="1.398979">
        <ele>2718.0</ele>
        <time>2019-03-03T08:13:49Z</time>
      </trkpt>
      <trkpt lat="42.676728" lon="1.398964">
        <ele>2722.0</ele>
        <time>2019-03-03T08:14:27Z</time>
      </trkpt>
      <trkpt lat="42.676624" lon="1.398978">
        <ele>2725.6</ele>
        <time>2019-03-03T08:15:06Z</time>
      </trkpt>
      <trkpt lat="42.676537" lon="1.399015">
        <ele>2731.5</ele>
        <time>2019-03-03T08:15:54Z</time>
      </trkpt>
      <trkpt lat="42.676435" lon="1.399033">
        <ele>2735.2</ele>
        <time>2019-03-03T08:16:32Z</time>
      </trkpt>
      <trkpt lat="42.676342" lon="1.399033">
        <ele>2739.2</ele>
        <time>2019-03-03T08:17:17Z</time>
      </trkpt>
      <trkpt lat="42.676240" lon="1.399043">
        <ele>2743.5</ele>
        <time>2019-03-03T08:17:55Z</time>
      </trkpt>
      <trkpt lat="42.676175" lon="1.399091">
        <ele>2747.9</ele>
        <time>2019-03-03T08:18:35Z</time>
      </trkpt>
      <trkpt lat="42.676095" lon="1.399160">
        <ele>2753.1</ele>
        <time>2019-03-03T08:19:13Z</time>
      </trkpt>
      <trkpt lat="42.676020" lon="1.399196">
        <ele>2756.5</ele>
        <time>2019-03-03T08:19:58Z</time>
      </trkpt>
      <trkpt lat="42.675925" lon="1.399195">
        <ele>2761.3</ele>
        <time>2019-03-03T08:21:29Z</time>
      </trkpt>
      <trkpt lat="42.675854" lon="1.399246">
        <ele>2762.7</ele>
        <time>2019-03-03T08:23:11Z</time>
      </trkpt>
      <trkpt lat="42.675816" lon="1.399284">
        <ele>2762.7</ele>
        <time>2019-03-03T08:25:16Z</time>
      </trkpt>
      <trkpt lat="42.675718" lon="1.399330">
        <ele>2767.5</ele>
        <time>2019-03-03T08:25:57Z</time>
      </trkpt>
      <trkpt lat="42.675627" lon="1.399387">
        <ele>2771.3</ele>
        <time>2019-03-03T08:26:30Z</time>
      </trkpt>
      <trkpt lat="42.675547" lon="1.399428">
        <ele>2774.1</ele>
        <time>2019-03-03T08:26:58Z</time>
      </trkpt>
      <trkpt lat="42.675470" lon="1.399486">
        <ele>2776.7</ele>
        <time>2019-03-03T08:27:29Z</time>
      </trkpt>
      <trkpt lat="42.675397" lon="1.399538">
        <ele>2780.5</ele>
        <time>2019-03-03T08:28:03Z</time>
      </trkpt>
      <trkpt lat="42.675348" lon="1.399653">
        <ele>2784.4</ele>
        <time>2019-03-03T08:28:44Z</time>
      </trkpt>
      <trkpt lat="42.675333" lon="1.399774">
        <ele>2788.8</ele>
        <time>2019-03-03T08:29:15Z</time>
      </trkpt>
      <trkpt lat="42.675267" lon="1.399853">
        <ele>2790.7</ele>
        <time>2019-03-03T08:29:40Z</time>
      </trkpt>
      <trkpt lat="42.675185" lon="1.399919">
        <ele>2796.4</ele>
        <time>2019-03-03T08:30:27Z</time>
      </trkpt>
      <trkpt lat="42.675107" lon="1.399978">
        <ele>2800.6</ele>
        <time>2019-03-03T08:31:05Z</time>
      </trkpt>
      <trkpt lat="42.675016" lon="1.400023">
        <ele>2805.9</ele>
        <time>2019-03-03T08:31:53Z</time>
      </trkpt>
      <trkpt lat="42.674925" lon="1.400062">
        <ele>2809.0</ele>
        <time>2019-03-03T08:32:30Z</time>
      </trkpt>
      <trkpt lat="42.674818" lon="1.400057">
        <ele>2813.6</ele>
        <time>2019-03-03T08:33:14Z</time>
      </trkpt>
      <trkpt lat="42.674726" lon="1.400022">
        <ele>2816.6</ele>
        <time>2019-03-03T08:33:56Z</time>
      </trkpt>
      <trkpt lat="42.674638" lon="1.399991">
        <ele>2820.8</ele>
        <time>2019-03-03T08:34:24Z</time>
      </trkpt>
      <trkpt lat="42.674566" lon="1.399935">
        <ele>2824.2</ele>
        <time>2019-03-03T08:34:54Z</time>
      </trkpt>
      <trkpt lat="42.674472" lon="1.399920">
        <ele>2827.3</ele>
        <time>2019-03-03T08:35:23Z</time>
      </trkpt>
      <trkpt lat="42.674368" lon="1.399899">
        <ele>2831.5</ele>
        <time>2019-03-03T08:35:51Z</time>
      </trkpt>
      <trkpt lat="42.674273" lon="1.399939">
        <ele>2834.4</ele>
        <time>2019-03-03T08:36:16Z</time>
      </trkpt>
      <trkpt lat="42.674190" lon="1.399932">
        <ele>2836.1</ele>
        <time>2019-03-03T08:39:21Z</time>
      </trkpt>
      <trkpt lat="42.674100" lon="1.399889">
        <ele>2838.0</ele>
        <time>2019-03-03T08:39:40Z</time>
      </trkpt>
      <trkpt lat="42.674003" lon="1.399855">
        <ele>2839.2</ele>
        <time>2019-03-03T08:39:56Z</time>
      </trkpt>
      <trkpt lat="42.673904" lon="1.399844">
        <ele>2840.9</ele>
        <time>2019-03-03T08:40:13Z</time>
      </trkpt>
      <trkpt lat="42.673812" lon="1.399828">
        <ele>2842.9</ele>
        <time>2019-03-03T08:40:31Z</time>
      </trkpt>
      <trkpt lat="42.673726" lon="1.399819">
        <ele>2845.3</ele>
        <time>2019-03-03T08:40:49Z</time>
      </trkpt>
      <trkpt lat="42.673627" lon="1.399780">
        <ele>2847.7</ele>
        <time>2019-03-03T08:41:16Z</time>
      </trkpt>
      <trkpt lat="42.673532" lon="1.399764">
        <ele>2850.2</ele>
        <time>2019-03-03T08:41:34Z</time>
      </trkpt>
      <trkpt lat="42.673417" lon="1.399740">
        <ele>2852.2</ele>
        <time>2019-03-03T08:41:51Z</time>
      </trkpt>
      <trkpt lat="42.673319" lon="1.399745">
        <ele>2854.0</ele>
        <time>2019-03-03T08:42:11Z</time>
      </trkpt>
      <trkpt lat="42.673242" lon="1.399671">
        <ele>2855.7</ele>
        <time>2019-03-03T08:42:42Z</time>
      </trkpt>
      <trkpt lat="42.673154" lon="1.399617">
        <ele>2860.0</ele>
        <time>2019-03-03T08:43:09Z</time>
      </trkpt>
      <trkpt lat="42.673059" lon="1.399557">
        <ele>2863.9</ele>
        <time>2019-03-03T08:43:36Z</time>
      </trkpt>
      <trkpt lat="42.672976" lon="1.399485">
        <ele>2867.6</ele>
        <time>2019-03-03T08:44:02Z</time>
      </trkpt>
      <trkpt lat="42.672885" lon="1.399448">
        <ele>2871.7</ele>
        <time>2019-03-03T08:44:30Z</time>
      </trkpt>
      <trkpt lat="42.672791" lon="1.399420">
        <ele>2873.6</ele>
        <time>2019-03-03T08:44:52Z</time>
      </trkpt>
      <trkpt lat="42.672702" lon="1.399391">
        <ele>2875.2</ele>
        <time>2019-03-03T08:45:10Z</time>
      </trkpt>
      <trkpt lat="42.672612" lon="1.399377">
        <ele>2877.4</ele>
        <time>2019-03-03T08:45:30Z</time>
      </trkpt>
      <trkpt lat="42.672522" lon="1.399299">
        <ele>2878.3</ele>
        <time>2019-03-03T08:45:46Z</time>
      </trkpt>
      <trkpt lat="42.672430" lon="1.399270">
        <ele>2878.9</ele>
        <time>2019-03-03T08:46:08Z</time>
      </trkpt>
      <trkpt lat="42.672390" lon="1.399228">
        <ele>2881.3</ele>
        <time>2019-03-03T08:48:41Z</time>
      </trkpt>
      <trkpt lat="42.672393" lon="1.399228">
        <ele>2880.1</ele>
        <time>2019-03-03T08:50:29Z</time>
      </trkpt>
      <trkpt lat="42.672376" lon="1.399252">
        <ele>2880.4</ele>
        <time>2019-03-03T08:52:44Z</time>
      </trkpt>
      <trkpt lat="42.672290" lon="1.399296">
        <ele>2880.8</ele>
        <time>2019-03-03T08:52:59Z</time>
      </trkpt>
      <trkpt lat="42.672195" lon="1.399344">
        <ele>2882.1</ele>
        <time>2019-03-03T08:53:16Z</time>
      </trkpt>
      <trkpt lat="42.672098" lon="1.399370">
        <ele>2883.4</ele>
        <time>2019-03-03T08:53:34Z</time>
      </trkpt>
      <trkpt lat="42.672010" lon="1.399410">
        <ele>2886.1</ele>
        <time>2019-03-03T08:53:57Z</time>
      </trkpt>
      <trkpt lat="42.671917" lon="1.399469">
        <ele>2888.0</ele>
        <time>2019-03-03T08:54:22Z</time>
      </trkpt>
      <trkpt lat="42.671826" lon="1.399533">
        <ele>2890.2</ele>
        <time>2019-03-03T08:54:47Z</time>
      </trkpt>
      <trkpt lat="42.671727" lon="1.399551">
        <ele>2893.0</ele>
        <time>2019-03-03T08:55:11Z</time>
      </trkpt>
      <trkpt lat="42.671638" lon="1.399597">
        <ele>2897.2</ele>
        <time>2019-03-03T08:55:39Z</time>
      </trkpt>
      <trkpt lat="42.671551" lon="1.399648">
        <ele>2900.3</ele>
        <time>2019-03-03T08:56:01Z</time>
      </trkpt>
      <trkpt lat="42.671465" lon="1.399708">
        <ele>2902.4</ele>
        <time>2019-03-03T08:56:25Z</time>
      </trkpt>
      <trkpt lat="42.671449" lon="1.399721">
        <ele>2901.4</ele>
        <time>2019-03-03T08:57:09Z</time>
      </trkpt>
      <trkpt lat="42.671432" lon="1.399853">
        <ele>2904.5</ele>
        <time>2019-03-03T08:57:30Z</time>
      </trkpt>
      <trkpt lat="42.671410" lon="1.399958">
        <ele>2908.3</ele>
        <time>2019-03-03T08:58:02Z</time>
      </trkpt>
      <trkpt lat="42.671402" lon="1.400081">
        <ele>2910.5</ele>
        <time>2019-03-03T08:58:43Z</time>
      </trkpt>
      <trkpt lat="42.671375" lon="1.400207">
        <ele>2915.9</ele>
        <time>2019-03-03T08:59:43Z</time>
      </trkpt>
      <trkpt lat="42.671345" lon="1.400309">
        <ele>2920.6</ele>
        <time>2019-03-03T09:00:33Z</time>
      </trkpt>
      <trkpt lat="42.671344" lon="1.400451">
        <ele>2925.9</ele>
        <time>2019-03-03T09:01:17Z</time>
      </trkpt>
      <trkpt lat="42.671322" lon="1.400577">
        <ele>2927.9</ele>
        <time>2019-03-03T09:01:51Z</time>
      </trkpt>
      <trkpt lat="42.671354" lon="1.400684">
        <ele>2931.6</ele>
        <time>2019-03-03T09:02:55Z</time>
      </trkpt>
      <trkpt lat="42.671360" lon="1.400708">
        <ele>2935.1</ele>
        <time>2019-03-03T09:05:55Z</time>
      </trkpt>
      <trkpt lat="42.671346" lon="1.400816">
        <ele>2938.3</ele>
        <time>2019-03-03T09:06:36Z</time>
      </trkpt>
      <trkpt lat="42.671318" lon="1.400930">
        <ele>2940.6</ele>
        <time>2019-03-03T09:07:04Z</time>
      </trkpt>
      <trkpt lat="42.671299" lon="1.401050">
        <ele>2945.5</ele>
        <time>2019-03-03T09:07:35Z</time>
      </trkpt>
      <trkpt lat="42.671262" lon="1.401145">
        <ele>2948.6</ele>
        <time>2019-03-03T09:08:02Z</time>
      </trkpt>
      <trkpt lat="42.671239" lon="1.401263">
        <ele>2951.7</ele>
        <time>2019-03-03T09:08:38Z</time>
      </trkpt>
      <trkpt lat="42.671208" lon="1.401373">
        <ele>2956.1</ele>
        <time>2019-03-03T09:09:03Z</time>
      </trkpt>
      <trkpt lat="42.671167" lon="1.401466">
        <ele>2961.2</ele>
        <time>2019-03-03T09:09:32Z</time>
      </trkpt>
      <trkpt lat="42.671163" lon="1.401594">
        <ele>2963.7</ele>
        <time>2019-03-03T09:09:58Z</time>
      </trkpt>
      <trkpt lat="42.671135" lon="1.401713">
        <ele>2968.3</ele>
        <time>2019-03-03T09:10:31Z</time>
      </trkpt>
      <trkpt lat="42.671114" lon="1.401835">
        <ele>2972.9</ele>
        <time>2019-03-03T09:11:02Z</time>
      </trkpt>
      <trkpt lat="42.671058" lon="1.401929">
        <ele>2974.8</ele>
        <time>2019-03-03T09:11:30Z</time>
      </trkpt>
      <trkpt lat="42.671013" lon="1.402029">
        <ele>2978.8</ele>
        <time>2019-03-03T09:12:03Z</time>
      </trkpt>
      <trkpt lat="42.670995" lon="1.402112">
        <ele>2981.5</ele>
        <time>2019-03-03T09:12:53Z</time>
      </trkpt>
      <trkpt lat="42.671017" lon="1.402161">
        <ele>2985.3</ele>
        <time>2019-03-03T09:13:29Z</time>
      </trkpt>
      <trkpt lat="42.670988" lon="1.402260">
        <ele>2990.6</ele>
        <time>2019-03-03T09:13:55Z</time>
      </trkpt>
      <trkpt lat="42.671019" lon="1.402364">
        <ele>2997.7</ele>
        <time>2019-03-03T09:14:27Z</time>
      </trkpt>
      <trkpt lat="42.671068" lon="1.402436">
        <ele>3003.9</ele>
        <time>2019-03-03T09:14:52Z</time>
      </trkpt>
      <trkpt lat="42.671142" lon="1.402502">
        <ele>3003.0</ele>
        <time>2019-03-03T09:16:13Z</time>
      </trkpt>
      <trkpt lat="42.671224" lon="1.402531">
        <ele>3008.3</ele>
        <time>2019-03-03T09:16:40Z</time>
      </trkpt>
      <trkpt lat="42.671285" lon="1.402560">
        <ele>3015.8</ele>
        <time>2019-03-03T09:17:21Z</time>
      </trkpt>
      <trkpt lat="42.671361" lon="1.402521">
        <ele>3012.4</ele>
        <time>2019-03-03T09:17:52Z</time>
      </trkpt>
      <trkpt lat="42.671443" lon="1.402602">
        <ele>3027.7</ele>
        <time>2019-03-03T09:18:41Z</time>
      </trkpt>
      <trkpt lat="42.671513" lon="1.402658">
        <ele>3025.0</ele>
        <time>2019-03-03T09:19:09Z</time>
      </trkpt>
      <trkpt lat="42.671601" lon="1.402661">
        <ele>3021.3</ele>
        <time>2019-03-03T09:19:40Z</time>
      </trkpt>
      <trkpt lat="42.671654" lon="1.402760">
        <ele>3032.9</ele>
        <time>2019-03-03T09:19:55Z</time>
      </trkpt>
      <trkpt lat="42.671726" lon="1.402826">
        <ele>3033.7</ele>
        <time>2019-03-03T09:20:13Z</time>
      </trkpt>
      <trkpt lat="42.671769" lon="1.402905">
        <ele>3036.2</ele>
        <time>2019-03-03T09:20:33Z</time>
      </trkpt>
      <trkpt lat="42.671799" lon="1.403014">
        <ele>3037.6</ele>
        <time>2019-03-03T09:21:07Z</time>
      </trkpt>
      <trkpt lat="42.671824" lon="1.403137">
        <ele>3037.7</ele>
        <time>2019-03-03T09:21:21Z</time>
      </trkpt>
      <trkpt lat="42.671846" lon="1.403261">
        <ele>3040.3</ele>
        <time>2019-03-03T09:21:36Z</time>
      </trkpt>
      <trkpt lat="42.671827" lon="1.403395">
        <ele>3040.3</ele>
        <time>2019-03-03T09:21:53Z</time>
      </trkpt>
      <trkpt lat="42.671782" lon="1.403514">
        <ele>3044.1</ele>
        <time>2019-03-03T09:22:11Z</time>
      </trkpt>
      <trkpt lat="42.671749" lon="1.403616">
        <ele>3044.9</ele>
        <time>2019-03-03T09:22:39Z</time>
      </trkpt>
      <trkpt lat="42.671769" lon="1.403730">
        <ele>3052.8</ele>
        <time>2019-03-03T09:23:30Z</time>
      </trkpt>
      <trkpt lat="42.671785" lon="1.403859">
        <ele>3053.2</ele>
        <time>2019-03-03T09:23:54Z</time>
      </trkpt>
      <trkpt lat="42.671804" lon="1.403984">
        <ele>3054.1</ele>
        <time>2019-03-03T09:24:18Z</time>
      </trkpt>
      <trkpt lat="42.671828" lon="1.404098">
        <ele>3057.1</ele>
        <time>2019-03-03T09:24:43Z</time>
      </trkpt>
      <trkpt lat="42.671854" lon="1.404220">
        <ele>3065.2</ele>
        <time>2019-03-03T09:25:11Z</time>
      </trkpt>
      <trkpt lat="42.671844" lon="1.404332">
        <ele>3067.6</ele>
        <time>2019-03-03T09:25:33Z</time>
      </trkpt>
      <trkpt lat="42.671908" lon="1.404409">
        <ele>3062.3</ele>
        <time>2019-03-03T09:25:53Z</time>
      </trkpt>
      <trkpt lat="42.671955" lon="1.404511">
        <ele>3066.7</ele>
        <time>2019-03-03T09:26:12Z</time>
      </trkpt>
      <trkpt lat="42.671971" lon="1.404622">
        <ele>3071.4</ele>
        <time>2019-03-03T09:26:35Z</time>
      </trkpt>
      <trkpt lat="42.671960" lon="1.404743">
        <ele>3075.4</ele>
        <time>2019-03-03T09:26:59Z</time>
      </trkpt>
      <trkpt lat="42.671953" lon="1.404886">
        <ele>3077.3</ele>
        <time>2019-03-03T09:27:14Z</time>
      </trkpt>
      <trkpt lat="42.671967" lon="1.405020">
        <ele>3073.4</ele>
        <time>2019-03-03T09:27:27Z</time>
      </trkpt>
      <trkpt lat="42.671974" lon="1.405151">
        <ele>3076.3</ele>
        <time>2019-03-03T09:27:46Z</time>
      </trkpt>
      <trkpt lat="42.671980" lon="1.405281">
        <ele>3078.2</ele>
        <time>2019-03-03T09:28:44Z</time>
      </trkpt>
      <trkpt lat="42.672006" lon="1.405396">
        <ele>3073.2</ele>
        <time>2019-03-03T09:28:55Z</time>
      </trkpt>
      <trkpt lat="42.671991" lon="1.405518">
        <ele>3076.1</ele>
        <time>2019-03-03T09:29:11Z</time>
      </trkpt>
      <trkpt lat="42.672000" lon="1.405629">
        <ele>3073.6</ele>
        <time>2019-03-03T09:29:28Z</time>
      </trkpt>
      <trkpt lat="42.671994" lon="1.405750">
        <ele>3076.1</ele>
        <time>2019-03-03T09:29:46Z</time>
      </trkpt>
      <trkpt lat="42.671969" lon="1.405853">
        <ele>3077.0</ele>
        <time>2019-03-03T09:30:04Z</time>
      </trkpt>
      <trkpt lat="42.671962" lon="1.405973">
        <ele>3077.5</ele>
        <time>2019-03-03T09:30:18Z</time>
      </trkpt>
      <trkpt lat="42.671949" lon="1.406104">
        <ele>3074.7</ele>
        <time>2019-03-03T09:30:33Z</time>
      </trkpt>
      <trkpt lat="42.671917" lon="1.406221">
        <ele>3077.3</ele>
        <time>2019-03-03T09:30:47Z</time>
      </trkpt>
      <trkpt lat="42.671923" lon="1.406311">
        <ele>3076.7</ele>
        <time>2019-03-03T09:38:46Z</time>
      </trkpt>
      <trkpt lat="42.671881" lon="1.406344">
        <ele>3077.7</ele>
        <time>2019-03-03T09:43:19Z</time>
      </trkpt>
      <trkpt lat="42.671912" lon="1.406217">
        <ele>3076.8</ele>
        <time>2019-03-03T09:43:41Z</time>
      </trkpt>
      <trkpt lat="42.671938" lon="1.406090">
        <ele>3077.3</ele>
        <time>2019-03-03T09:43:51Z</time>
      </trkpt>
      <trkpt lat="42.671946" lon="1.406029">
        <ele>3076.4</ele>
        <time>2019-03-03T09:45:28Z</time>
      </trkpt>
      <trkpt lat="42.671956" lon="1.405921">
        <ele>3076.4</ele>
        <time>2019-03-03T09:45:44Z</time>
      </trkpt>
      <trkpt lat="42.671964" lon="1.405819">
        <ele>3076.2</ele>
        <time>2019-03-03T09:46:14Z</time>
      </trkpt>
      <trkpt lat="42.671977" lon="1.405691">
        <ele>3076.1</ele>
        <time>2019-03-03T09:46:22Z</time>
      </trkpt>
      <trkpt lat="42.671986" lon="1.405556">
        <ele>3073.4</ele>
        <time>2019-03-03T09:46:32Z</time>
      </trkpt>
      <trkpt lat="42.671989" lon="1.405421">
        <ele>3070.6</ele>
        <time>2019-03-03T09:46:42Z</time>
      </trkpt>
      <trkpt lat="42.671972" lon="1.405306">
        <ele>3070.6</ele>
        <time>2019-03-03T09:46:51Z</time>
      </trkpt>
      <trkpt lat="42.671957" lon="1.405196">
        <ele>3072.9</ele>
        <time>2019-03-03T09:47:09Z</time>
      </trkpt>
      <trkpt lat="42.671952" lon="1.405085">
        <ele>3078.6</ele>
        <time>2019-03-03T09:47:24Z</time>
      </trkpt>
      <trkpt lat="42.671939" lon="1.404953">
        <ele>3074.4</ele>
        <time>2019-03-03T09:47:36Z</time>
      </trkpt>
      <trkpt lat="42.671931" lon="1.404824">
        <ele>3072.0</ele>
        <time>2019-03-03T09:47:47Z</time>
      </trkpt>
      <trkpt lat="42.671948" lon="1.404717">
        <ele>3074.0</ele>
        <time>2019-03-03T09:48:02Z</time>
      </trkpt>
      <trkpt lat="42.671955" lon="1.404597">
        <ele>3079.7</ele>
        <time>2019-03-03T09:48:26Z</time>
      </trkpt>
      <trkpt lat="42.671928" lon="1.404469">
        <ele>3080.5</ele>
        <time>2019-03-03T09:48:43Z</time>
      </trkpt>
      <trkpt lat="42.671899" lon="1.404416">
        <ele>3074.1</ele>
        <time>2019-03-03T09:49:03Z</time>
      </trkpt>
      <trkpt lat="42.671903" lon="1.404442">
        <ele>3067.9</ele>
        <time>2019-03-03T09:50:04Z</time>
      </trkpt>
      <trkpt lat="42.671841" lon="1.404365">
        <ele>3069.4</ele>
        <time>2019-03-03T09:50:48Z</time>
      </trkpt>
      <trkpt lat="42.671831" lon="1.404244">
        <ele>3069.3</ele>
        <time>2019-03-03T09:50:56Z</time>
      </trkpt>
      <trkpt lat="42.671806" lon="1.404107">
        <ele>3068.3</ele>
        <time>2019-03-03T09:51:04Z</time>
      </trkpt>
      <trkpt lat="42.671780" lon="1.403980">
        <ele>3065.7</ele>
        <time>2019-03-03T09:51:12Z</time>
      </trkpt>
      <trkpt lat="42.671753" lon="1.403848">
        <ele>3061.2</ele>
        <time>2019-03-03T09:51:20Z</time>
      </trkpt>
      <trkpt lat="42.671740" lon="1.403729">
        <ele>3057.7</ele>
        <time>2019-03-03T09:51:28Z</time>
      </trkpt>
      <trkpt lat="42.671731" lon="1.403606">
        <ele>3055.1</ele>
        <time>2019-03-03T09:51:36Z</time>
      </trkpt>
      <trkpt lat="42.671779" lon="1.403499">
        <ele>3051.0</ele>
        <time>2019-03-03T09:51:45Z</time>
      </trkpt>
      <trkpt lat="42.671842" lon="1.403413">
        <ele>3047.5</ele>
        <time>2019-03-03T09:51:55Z</time>
      </trkpt>
      <trkpt lat="42.671836" lon="1.403295">
        <ele>3043.6</ele>
        <time>2019-03-03T09:52:07Z</time>
      </trkpt>
      <trkpt lat="42.671829" lon="1.403159">
        <ele>3039.3</ele>
        <time>2019-03-03T09:52:18Z</time>
      </trkpt>
      <trkpt lat="42.671806" lon="1.403039">
        <ele>3037.8</ele>
        <time>2019-03-03T09:52:28Z</time>
      </trkpt>
      <trkpt lat="42.671766" lon="1.402926">
        <ele>3037.0</ele>
        <time>2019-03-03T09:52:37Z</time>
      </trkpt>
      <trkpt lat="42.671698" lon="1.402814">
        <ele>3036.5</ele>
        <time>2019-03-03T09:52:48Z</time>
      </trkpt>
      <trkpt lat="42.671632" lon="1.402713">
        <ele>3034.2</ele>
        <time>2019-03-03T09:53:06Z</time>
      </trkpt>
      <trkpt lat="42.671563" lon="1.402661">
        <ele>3032.1</ele>
        <time>2019-03-03T09:54:17Z</time>
      </trkpt>
      <trkpt lat="42.671497" lon="1.402573">
        <ele>3028.0</ele>
        <time>2019-03-03T09:54:34Z</time>
      </trkpt>
      <trkpt lat="42.671450" lon="1.402530">
        <ele>3025.8</ele>
        <time>2019-03-03T09:54:50Z</time>
      </trkpt>
      <trkpt lat="42.671410" lon="1.402444">
        <ele>3016.6</ele>
        <time>2019-03-03T09:55:42Z</time>
      </trkpt>
      <trkpt lat="42.671356" lon="1.402385">
        <ele>3013.3</ele>
        <time>2019-03-03T09:56:32Z</time>
      </trkpt>
      <trkpt lat="42.671266" lon="1.402400">
        <ele>3009.3</ele>
        <time>2019-03-03T09:56:54Z</time>
      </trkpt>
      <trkpt lat="42.671206" lon="1.402356">
        <ele>3006.7</ele>
        <time>2019-03-03T09:57:16Z</time>
      </trkpt>
      <trkpt lat="42.671137" lon="1.402382">
        <ele>3004.5</ele>
        <time>2019-03-03T09:57:45Z</time>
      </trkpt>
      <trkpt lat="42.671043" lon="1.402389">
        <ele>3002.9</ele>
        <time>2019-03-03T09:58:05Z</time>
      </trkpt>
      <trkpt lat="42.670983" lon="1.402363">
        <ele>2996.3</ele>
        <time>2019-03-03T09:58:25Z</time>
      </trkpt>
      <trkpt lat="42.670942" lon="1.402291">
        <ele>2994.0</ele>
        <time>2019-03-03T09:58:39Z</time>
      </trkpt>
      <trkpt lat="42.670904" lon="1.402214">
        <ele>2989.9</ele>
        <time>2019-03-03T09:58:55Z</time>
      </trkpt>
      <trkpt lat="42.670831" lon="1.402206">
        <ele>2983.0</ele>
        <time>2019-03-03T09:59:32Z</time>
      </trkpt>
      <trkpt lat="42.670822" lon="1.402111">
        <ele>2980.9</ele>
        <time>2019-03-03T10:00:25Z</time>
      </trkpt>
      <trkpt lat="42.670827" lon="1.402006">
        <ele>2977.6</ele>
        <time>2019-03-03T10:00:38Z</time>
      </trkpt>
      <trkpt lat="42.670839" lon="1.401908">
        <ele>2973.1</ele>
        <time>2019-03-03T10:00:50Z</time>
      </trkpt>
      <trkpt lat="42.670868" lon="1.401800">
        <ele>2967.8</ele>
        <time>2019-03-03T10:01:04Z</time>
      </trkpt>
      <trkpt lat="42.670894" lon="1.401698">
        <ele>2963.9</ele>
        <time>2019-03-03T10:01:22Z</time>
      </trkpt>
      <trkpt lat="42.670891" lon="1.401531">
        <ele>2956.2</ele>
        <time>2019-03-03T10:01:57Z</time>
      </trkpt>
      <trkpt lat="42.670906" lon="1.401402">
        <ele>2952.3</ele>
        <time>2019-03-03T10:02:10Z</time>
      </trkpt>
      <trkpt lat="42.670973" lon="1.401290">
        <ele>2949.9</ele>
        <time>2019-03-03T10:02:23Z</time>
      </trkpt>
      <trkpt lat="42.671005" lon="1.401183">
        <ele>2946.5</ele>
        <time>2019-03-03T10:02:37Z</time>
      </trkpt>
      <trkpt lat="42.671043" lon="1.401081">
        <ele>2942.6</ele>
        <time>2019-03-03T10:02:49Z</time>
      </trkpt>
      <trkpt lat="42.671093" lon="1.400965">
        <ele>2939.4</ele>
        <time>2019-03-03T10:03:01Z</time>
      </trkpt>
      <trkpt lat="42.671149" lon="1.400864">
        <ele>2936.1</ele>
        <time>2019-03-03T10:03:12Z</time>
      </trkpt>
      <trkpt lat="42.671232" lon="1.400806">
        <ele>2934.1</ele>
        <time>2019-03-03T10:08:53Z</time>
      </trkpt>
      <trkpt lat="42.671261" lon="1.400718">
        <ele>2934.0</ele>
        <time>2019-03-03T10:11:10Z</time>
      </trkpt>
      <trkpt lat="42.671277" lon="1.400595">
        <ele>2932.0</ele>
        <time>2019-03-03T10:11:21Z</time>
      </trkpt>
      <trkpt lat="42.671313" lon="1.400458">
        <ele>2932.0</ele>
        <time>2019-03-03T10:11:33Z</time>
      </trkpt>
      <trkpt lat="42.671338" lon="1.400335">
        <ele>2929.9</ele>
        <time>2019-03-03T10:11:44Z</time>
      </trkpt>
      <trkpt lat="42.671356" lon="1.400203">
        <ele>2926.2</ele>
        <time>2019-03-03T10:11:55Z</time>
      </trkpt>
      <trkpt lat="42.671385" lon="1.400075">
        <ele>2921.9</ele>
        <time>2019-03-03T10:12:13Z</time>
      </trkpt>
      <trkpt lat="42.671399" lon="1.399964">
        <ele>2917.0</ele>
        <time>2019-03-03T10:12:26Z</time>
      </trkpt>
      <trkpt lat="42.671434" lon="1.399866">
        <ele>2911.7</ele>
        <time>2019-03-03T10:12:43Z</time>
      </trkpt>
      <trkpt lat="42.671432" lon="1.399753">
        <ele>2908.3</ele>
        <time>2019-03-03T10:12:54Z</time>
      </trkpt>
      <trkpt lat="42.671494" lon="1.399642">
        <ele>2904.7</ele>
        <time>2019-03-03T10:14:37Z</time>
      </trkpt>
      <trkpt lat="42.671570" lon="1.399589">
        <ele>2905.5</ele>
        <time>2019-03-03T10:14:49Z</time>
      </trkpt>
      <trkpt lat="42.671652" lon="1.399545">
        <ele>2902.6</ele>
        <time>2019-03-03T10:15:01Z</time>
      </trkpt>
      <trkpt lat="42.671738" lon="1.399501">
        <ele>2899.4</ele>
        <time>2019-03-03T10:15:15Z</time>
      </trkpt>
      <trkpt lat="42.671831" lon="1.399456">
        <ele>2896.1</ele>
        <time>2019-03-03T10:15:29Z</time>
      </trkpt>
      <trkpt lat="42.671922" lon="1.399410">
        <ele>2893.8</ele>
        <time>2019-03-03T10:15:42Z</time>
      </trkpt>
      <trkpt lat="42.672017" lon="1.399358">
        <ele>2891.2</ele>
        <time>2019-03-03T10:15:54Z</time>
      </trkpt>
      <trkpt lat="42.672113" lon="1.399311">
        <ele>2889.3</ele>
        <time>2019-03-03T10:16:06Z</time>
      </trkpt>
      <trkpt lat="42.672204" lon="1.399284">
        <ele>2887.4</ele>
        <time>2019-03-03T10:16:19Z</time>
      </trkpt>
      <trkpt lat="42.672292" lon="1.399259">
        <ele>2885.9</ele>
        <time>2019-03-03T10:16:29Z</time>
      </trkpt>
      <trkpt lat="42.672388" lon="1.399225">
        <ele>2885.6</ele>
        <time>2019-03-03T10:16:40Z</time>
      </trkpt>
      <trkpt lat="42.672490" lon="1.399218">
        <ele>2885.4</ele>
        <time>2019-03-03T10:16:51Z</time>
      </trkpt>
      <trkpt lat="42.672591" lon="1.399243">
        <ele>2884.1</ele>
        <time>2019-03-03T10:17:02Z</time>
      </trkpt>
      <trkpt lat="42.672688" lon="1.399269">
        <ele>2884.1</ele>
        <time>2019-03-03T10:17:12Z</time>
      </trkpt>
      <trkpt lat="42.672768" lon="1.399315">
        <ele>2881.6</ele>
        <time>2019-03-03T10:17:34Z</time>
      </trkpt>
      <trkpt lat="42.672854" lon="1.399367">
        <ele>2880.1</ele>
        <time>2019-03-03T10:17:45Z</time>
      </trkpt>
      <trkpt lat="42.672939" lon="1.399417">
        <ele>2876.5</ele>
        <time>2019-03-03T10:17:55Z</time>
      </trkpt>
      <trkpt lat="42.673016" lon="1.399491">
        <ele>2873.0</ele>
        <time>2019-03-03T10:18:06Z</time>
      </trkpt>
      <trkpt lat="42.673107" lon="1.399551">
        <ele>2871.2</ele>
        <time>2019-03-03T10:18:17Z</time>
      </trkpt>
      <trkpt lat="42.673198" lon="1.399609">
        <ele>2868.0</ele>
        <time>2019-03-03T10:18:28Z</time>
      </trkpt>
      <trkpt lat="42.673283" lon="1.399646">
        <ele>2864.6</ele>
        <time>2019-03-03T10:18:39Z</time>
      </trkpt>
      <trkpt lat="42.673374" lon="1.399689">
        <ele>2860.8</ele>
        <time>2019-03-03T10:18:50Z</time>
      </trkpt>
      <trkpt lat="42.673464" lon="1.399734">
        <ele>2858.6</ele>
        <time>2019-03-03T10:19:01Z</time>
      </trkpt>
      <trkpt lat="42.673575" lon="1.399783">
        <ele>2855.3</ele>
        <time>2019-03-03T10:19:15Z</time>
      </trkpt>
      <trkpt lat="42.673677" lon="1.399800">
        <ele>2854.6</ele>
        <time>2019-03-03T10:19:26Z</time>
      </trkpt>
      <trkpt lat="42.673786" lon="1.399825">
        <ele>2851.1</ele>
        <time>2019-03-03T10:19:37Z</time>
      </trkpt>
      <trkpt lat="42.673871" lon="1.399840">
        <ele>2849.6</ele>
        <time>2019-03-03T10:19:46Z</time>
      </trkpt>
      <trkpt lat="42.673961" lon="1.399863">
        <ele>2847.9</ele>
        <time>2019-03-03T10:19:55Z</time>
      </trkpt>
      <trkpt lat="42.674062" lon="1.399882">
        <ele>2846.2</ele>
        <time>2019-03-03T10:20:06Z</time>
      </trkpt>
      <trkpt lat="42.674158" lon="1.399900">
        <ele>2845.1</ele>
        <time>2019-03-03T10:20:16Z</time>
      </trkpt>
      <trkpt lat="42.674246" lon="1.399952">
        <ele>2843.4</ele>
        <time>2019-03-03T10:20:29Z</time>
      </trkpt>
      <trkpt lat="42.674296" lon="1.399992">
        <ele>2841.2</ele>
        <time>2019-03-03T10:21:47Z</time>
      </trkpt>
      <trkpt lat="42.674380" lon="1.400031">
        <ele>2838.8</ele>
        <time>2019-03-03T10:21:58Z</time>
      </trkpt>
      <trkpt lat="42.674467" lon="1.400039">
        <ele>2835.8</ele>
        <time>2019-03-03T10:22:11Z</time>
      </trkpt>
      <trkpt lat="42.674550" lon="1.399988">
        <ele>2833.4</ele>
        <time>2019-03-03T10:22:24Z</time>
      </trkpt>
      <trkpt lat="42.674645" lon="1.400026">
        <ele>2829.3</ele>
        <time>2019-03-03T10:22:43Z</time>
      </trkpt>
      <trkpt lat="42.674747" lon="1.400043">
        <ele>2826.0</ele>
        <time>2019-03-03T10:22:57Z</time>
      </trkpt>
      <trkpt lat="42.674845" lon="1.400073">
        <ele>2822.4</ele>
        <time>2019-03-03T10:23:17Z</time>
      </trkpt>
      <trkpt lat="42.674942" lon="1.400052">
        <ele>2818.0</ele>
        <time>2019-03-03T10:23:35Z</time>
      </trkpt>
      <trkpt lat="42.675039" lon="1.400036">
        <ele>2813.4</ele>
        <time>2019-03-03T10:23:48Z</time>
      </trkpt>
      <trkpt lat="42.675138" lon="1.400000">
        <ele>2807.2</ele>
        <time>2019-03-03T10:24:01Z</time>
      </trkpt>
      <trkpt lat="42.675226" lon="1.399943">
        <ele>2803.9</ele>
        <time>2019-03-03T10:24:15Z</time>
      </trkpt>
      <trkpt lat="42.675281" lon="1.399825">
        <ele>2801.1</ele>
        <time>2019-03-03T10:24:32Z</time>
      </trkpt>
      <trkpt lat="42.675340" lon="1.399732">
        <ele>2798.3</ele>
        <time>2019-03-03T10:24:45Z</time>
      </trkpt>
      <trkpt lat="42.675370" lon="1.399613">
        <ele>2794.5</ele>
        <time>2019-03-03T10:24:57Z</time>
      </trkpt>
      <trkpt lat="42.675424" lon="1.399508">
        <ele>2790.3</ele>
        <time>2019-03-03T10:25:09Z</time>
      </trkpt>
      <trkpt lat="42.675508" lon="1.399441">
        <ele>2786.0</ele>
        <time>2019-03-03T10:25:21Z</time>
      </trkpt>
      <trkpt lat="42.675595" lon="1.399386">
        <ele>2781.5</ele>
        <time>2019-03-03T10:25:35Z</time>
      </trkpt>
      <trkpt lat="42.675687" lon="1.399338">
        <ele>2779.4</ele>
        <time>2019-03-03T10:25:48Z</time>
      </trkpt>
      <trkpt lat="42.675774" lon="1.399302">
        <ele>2775.8</ele>
        <time>2019-03-03T10:26:19Z</time>
      </trkpt>
      <trkpt lat="42.675864" lon="1.399249">
        <ele>2770.8</ele>
        <time>2019-03-03T10:26:31Z</time>
      </trkpt>
      <trkpt lat="42.675919" lon="1.399134">
        <ele>2767.4</ele>
        <time>2019-03-03T10:26:51Z</time>
      </trkpt>
      <trkpt lat="42.675991" lon="1.399066">
        <ele>2764.1</ele>
        <time>2019-03-03T10:27:07Z</time>
      </trkpt>
      <trkpt lat="42.676094" lon="1.399104">
        <ele>2763.1</ele>
        <time>2019-03-03T10:27:44Z</time>
      </trkpt>
      <trkpt lat="42.676184" lon="1.399107">
        <ele>2759.6</ele>
        <time>2019-03-03T10:27:56Z</time>
      </trkpt>
      <trkpt lat="42.676278" lon="1.399078">
        <ele>2754.4</ele>
        <time>2019-03-03T10:28:08Z</time>
      </trkpt>
      <trkpt lat="42.676367" lon="1.399028">
        <ele>2750.2</ele>
        <time>2019-03-03T10:28:20Z</time>
      </trkpt>
      <trkpt lat="42.676454" lon="1.399001">
        <ele>2746.6</ele>
        <time>2019-03-03T10:28:31Z</time>
      </trkpt>
      <trkpt lat="42.676548" lon="1.398998">
        <ele>2742.8</ele>
        <time>2019-03-03T10:28:43Z</time>
      </trkpt>
      <trkpt lat="42.676636" lon="1.398987">
        <ele>2738.3</ele>
        <time>2019-03-03T10:28:54Z</time>
      </trkpt>
      <trkpt lat="42.676718" lon="1.398954">
        <ele>2734.2</ele>
        <time>2019-03-03T10:29:06Z</time>
      </trkpt>
      <trkpt lat="42.676819" lon="1.398965">
        <ele>2729.8</ele>
        <time>2019-03-03T10:29:21Z</time>
      </trkpt>
      <trkpt lat="42.676912" lon="1.399002">
        <ele>2725.7</ele>
        <time>2019-03-03T10:29:33Z</time>
      </trkpt>
      <trkpt lat="42.676977" lon="1.398920">
        <ele>2721.7</ele>
        <time>2019-03-03T10:29:45Z</time>
      </trkpt>
      <trkpt lat="42.677002" lon="1.398802">
        <ele>2718.9</ele>
        <time>2019-03-03T10:29:57Z</time>
      </trkpt>
      <trkpt lat="42.676999" lon="1.398670">
        <ele>2717.3</ele>
        <time>2019-03-03T10:30:10Z</time>
      </trkpt>
      <trkpt lat="42.677023" lon="1.398619">
        <ele>2716.9</ele>
        <time>2019-03-03T10:30:52Z</time>
      </trkpt>
      <trkpt lat="42.677084" lon="1.398548">
        <ele>2711.5</ele>
        <time>2019-03-03T10:31:07Z</time>
      </trkpt>
      <trkpt lat="42.677124" lon="1.398413">
        <ele>2705.8</ele>
        <time>2019-03-03T10:31:18Z</time>
      </trkpt>
      <trkpt lat="42.677167" lon="1.398298">
        <ele>2703.1</ele>
        <time>2019-03-03T10:31:28Z</time>
      </trkpt>
      <trkpt lat="42.677233" lon="1.398218">
        <ele>2699.0</ele>
        <time>2019-03-03T10:31:40Z</time>
      </trkpt>
      <trkpt lat="42.677342" lon="1.398157">
        <ele>2697.4</ele>
        <time>2019-03-03T10:33:51Z</time>
      </trkpt>
      <trkpt lat="42.677416" lon="1.398072">
        <ele>2694.1</ele>
        <time>2019-03-03T10:34:03Z</time>
      </trkpt>
      <trkpt lat="42.677490" lon="1.397999">
        <ele>2691.3</ele>
        <time>2019-03-03T10:34:14Z</time>
      </trkpt>
      <trkpt lat="42.677572" lon="1.397937">
        <ele>2688.8</ele>
        <time>2019-03-03T10:34:25Z</time>
      </trkpt>
      <trkpt lat="42.677649" lon="1.397868">
        <ele>2685.0</ele>
        <time>2019-03-03T10:34:36Z</time>
      </trkpt>
      <trkpt lat="42.677734" lon="1.397845">
        <ele>2682.6</ele>
        <time>2019-03-03T10:34:48Z</time>
      </trkpt>
      <trkpt lat="42.677794" lon="1.397752">
        <ele>2679.4</ele>
        <time>2019-03-03T10:35:06Z</time>
      </trkpt>
      <trkpt lat="42.677852" lon="1.397637">
        <ele>2675.3</ele>
        <time>2019-03-03T10:35:21Z</time>
      </trkpt>
      <trkpt lat="42.677887" lon="1.397537">
        <ele>2671.0</ele>
        <time>2019-03-03T10:35:34Z</time>
      </trkpt>
      <trkpt lat="42.677899" lon="1.397422">
        <ele>2667.2</ele>
        <time>2019-03-03T10:35:47Z</time>
      </trkpt>
      <trkpt lat="42.677935" lon="1.397309">
        <ele>2660.7</ele>
        <time>2019-03-03T10:36:04Z</time>
      </trkpt>
      <trkpt lat="42.677975" lon="1.397202">
        <ele>2656.0</ele>
        <time>2019-03-03T10:36:20Z</time>
      </trkpt>
      <trkpt lat="42.678002" lon="1.397104">
        <ele>2653.2</ele>
        <time>2019-03-03T10:36:30Z</time>
      </trkpt>
      <trkpt lat="42.678093" lon="1.397063">
        <ele>2652.2</ele>
        <time>2019-03-03T10:36:43Z</time>
      </trkpt>
      <trkpt lat="42.678179" lon="1.397002">
        <ele>2654.8</ele>
        <time>2019-03-03T10:36:56Z</time>
      </trkpt>
      <trkpt lat="42.678261" lon="1.397029">
        <ele>2650.3</ele>
        <time>2019-03-03T10:37:08Z</time>
      </trkpt>
      <trkpt lat="42.678289" lon="1.397082">
        <ele>2645.1</ele>
        <time>2019-03-03T10:37:47Z</time>
      </trkpt>
      <trkpt lat="42.678273" lon="1.397143">
        <ele>2643.2</ele>
        <time>2019-03-03T10:38:39Z</time>
      </trkpt>
      <trkpt lat="42.678270" lon="1.397273">
        <ele>2640.4</ele>
        <time>2019-03-03T10:38:54Z</time>
      </trkpt>
      <trkpt lat="42.678322" lon="1.397379">
        <ele>2636.3</ele>
        <time>2019-03-03T10:39:10Z</time>
      </trkpt>
      <trkpt lat="42.678336" lon="1.397498">
        <ele>2632.4</ele>
        <time>2019-03-03T10:39:24Z</time>
      </trkpt>
      <trkpt lat="42.678421" lon="1.397569">
        <ele>2626.4</ele>
        <time>2019-03-03T10:39:43Z</time>
      </trkpt>
      <trkpt lat="42.678489" lon="1.397624">
        <ele>2619.7</ele>
        <time>2019-03-03T10:40:11Z</time>
      </trkpt>
      <trkpt lat="42.678578" lon="1.397645">
        <ele>2616.4</ele>
        <time>2019-03-03T10:40:26Z</time>
      </trkpt>
      <trkpt lat="42.678665" lon="1.397684">
        <ele>2611.4</ele>
        <time>2019-03-03T10:40:41Z</time>
      </trkpt>
      <trkpt lat="42.678740" lon="1.397753">
        <ele>2606.2</ele>
        <time>2019-03-03T10:40:58Z</time>
      </trkpt>
      <trkpt lat="42.678751" lon="1.397876">
        <ele>2605.1</ele>
        <time>2019-03-03T10:41:10Z</time>
      </trkpt>
      <trkpt lat="42.678782" lon="1.397971">
        <ele>2603.4</ele>
        <time>2019-03-03T10:41:22Z</time>
      </trkpt>
      <trkpt lat="42.678801" lon="1.398098">
        <ele>2599.7</ele>
        <time>2019-03-03T10:41:37Z</time>
      </trkpt>
      <trkpt lat="42.678801" lon="1.398240">
        <ele>2596.1</ele>
        <time>2019-03-03T10:41:52Z</time>
      </trkpt>
      <trkpt lat="42.678830" lon="1.398374">
        <ele>2592.9</ele>
        <time>2019-03-03T10:42:05Z</time>
      </trkpt>
      <trkpt lat="42.678872" lon="1.398504">
        <ele>2589.5</ele>
        <time>2019-03-03T10:42:17Z</time>
      </trkpt>
      <trkpt lat="42.678927" lon="1.398611">
        <ele>2588.1</ele>
        <time>2019-03-03T10:42:32Z</time>
      </trkpt>
      <trkpt lat="42.678970" lon="1.398666">
        <ele>2587.2</ele>
        <time>2019-03-03T10:43:04Z</time>
      </trkpt>
      <trkpt lat="42.678989" lon="1.398658">
        <ele>2587.6</ele>
        <time>2019-03-03T10:43:41Z</time>
      </trkpt>
      <trkpt lat="42.678972" lon="1.398668">
        <ele>2587.3</ele>
        <time>2019-03-03T10:44:27Z</time>
      </trkpt>
      <trkpt lat="42.678958" lon="1.398669">
        <ele>2586.7</ele>
        <time>2019-03-03T10:51:55Z</time>
      </trkpt>
      <trkpt lat="42.678971" lon="1.398671">
        <ele>2588.1</ele>
        <time>2019-03-03T10:53:30Z</time>
      </trkpt>
      <trkpt lat="42.679071" lon="1.398725">
        <ele>2587.0</ele>
        <time>2019-03-03T10:53:45Z</time>
      </trkpt>
      <trkpt lat="42.679171" lon="1.398763">
        <ele>2586.2</ele>
        <time>2019-03-03T10:54:00Z</time>
      </trkpt>
      <trkpt lat="42.679271" lon="1.398728">
        <ele>2584.5</ele>
        <time>2019-03-03T10:54:12Z</time>
      </trkpt>
      <trkpt lat="42.679350" lon="1.398652">
        <ele>2581.6</ele>
        <time>2019-03-03T10:54:29Z</time>
      </trkpt>
      <trkpt lat="42.679416" lon="1.398512">
        <ele>2580.2</ele>
        <time>2019-03-03T10:54:42Z</time>
      </trkpt>
      <trkpt lat="42.679506" lon="1.398424">
        <ele>2578.3</ele>
        <time>2019-03-03T10:54:54Z</time>
      </trkpt>
      <trkpt lat="42.679605" lon="1.398411">
        <ele>2575.9</ele>
        <time>2019-03-03T10:55:07Z</time>
      </trkpt>
      <trkpt lat="42.679689" lon="1.398393">
        <ele>2571.9</ele>
        <time>2019-03-03T10:55:22Z</time>
      </trkpt>
      <trkpt lat="42.679769" lon="1.398326">
        <ele>2570.0</ele>
        <time>2019-03-03T10:55:34Z</time>
      </trkpt>
      <trkpt lat="42.679824" lon="1.398224">
        <ele>2568.9</ele>
        <time>2019-03-03T10:55:48Z</time>
      </trkpt>
      <trkpt lat="42.679880" lon="1.398096">
        <ele>2568.9</ele>
        <time>2019-03-03T10:56:01Z</time>
      </trkpt>
      <trkpt lat="42.679920" lon="1.397984">
        <ele>2569.6</ele>
        <time>2019-03-03T10:56:16Z</time>
      </trkpt>
      <trkpt lat="42.679939" lon="1.397867">
        <ele>2569.3</ele>
        <time>2019-03-03T10:56:30Z</time>
      </trkpt>
      <trkpt lat="42.679944" lon="1.397790">
        <ele>2568.2</ele>
        <time>2019-03-03T10:58:02Z</time>
      </trkpt>
      <trkpt lat="42.679946" lon="1.397659">
        <ele>2565.5</ele>
        <time>2019-03-03T10:58:15Z</time>
      </trkpt>
      <trkpt lat="42.679966" lon="1.397541">
        <ele>2561.6</ele>
        <time>2019-03-03T10:58:28Z</time>
      </trkpt>
      <trkpt lat="42.679999" lon="1.397450">
        <ele>2557.8</ele>
        <time>2019-03-03T10:58:39Z</time>
      </trkpt>
      <trkpt lat="42.680066" lon="1.397386">
        <ele>2553.2</ele>
        <time>2019-03-03T10:58:53Z</time>
      </trkpt>
      <trkpt lat="42.680130" lon="1.397311">
        <ele>2549.7</ele>
        <time>2019-03-03T10:59:07Z</time>
      </trkpt>
      <trkpt lat="42.680193" lon="1.397193">
        <ele>2545.4</ele>
        <time>2019-03-03T10:59:23Z</time>
      </trkpt>
      <trkpt lat="42.680234" lon="1.397063">
        <ele>2542.3</ele>
        <time>2019-03-03T10:59:35Z</time>
      </trkpt>
      <trkpt lat="42.680259" lon="1.396961">
        <ele>2539.7</ele>
        <time>2019-03-03T10:59:47Z</time>
      </trkpt>
      <trkpt lat="42.680291" lon="1.396871">
        <ele>2536.9</ele>
        <time>2019-03-03T10:59:59Z</time>
      </trkpt>
      <trkpt lat="42.680288" lon="1.396734">
        <ele>2534.1</ele>
        <time>2019-03-03T11:00:11Z</time>
      </trkpt>
      <trkpt lat="42.680269" lon="1.396641">
        <ele>2531.4</ele>
        <time>2019-03-03T11:00:23Z</time>
      </trkpt>
      <trkpt lat="42.680260" lon="1.396519">
        <ele>2528.0</ele>
        <time>2019-03-03T11:00:37Z</time>
      </trkpt>
      <trkpt lat="42.680257" lon="1.396384">
        <ele>2523.4</ele>
        <time>2019-03-03T11:00:52Z</time>
      </trkpt>
      <trkpt lat="42.680284" lon="1.396265">
        <ele>2520.8</ele>
        <time>2019-03-03T11:01:05Z</time>
      </trkpt>
      <trkpt lat="42.680316" lon="1.396141">
        <ele>2518.8</ele>
        <time>2019-03-03T11:01:21Z</time>
      </trkpt>
      <trkpt lat="42.680317" lon="1.396013">
        <ele>2515.5</ele>
        <time>2019-03-03T11:01:37Z</time>
      </trkpt>
      <trkpt lat="42.680346" lon="1.395877">
        <ele>2510.1</ele>
        <time>2019-03-03T11:01:55Z</time>
      </trkpt>
      <trkpt lat="42.680344" lon="1.395767">
        <ele>2505.4</ele>
        <time>2019-03-03T11:02:23Z</time>
      </trkpt>
      <trkpt lat="42.680350" lon="1.395648">
        <ele>2501.3</ele>
        <time>2019-03-03T11:02:44Z</time>
      </trkpt>
      <trkpt lat="42.680358" lon="1.395525">
        <ele>2496.8</ele>
        <time>2019-03-03T11:03:05Z</time>
      </trkpt>
      <trkpt lat="42.680385" lon="1.395421">
        <ele>2491.6</ele>
        <time>2019-03-03T11:03:40Z</time>
      </trkpt>
      <trkpt lat="42.680404" lon="1.395355">
        <ele>2487.6</ele>
        <time>2019-03-03T11:04:38Z</time>
      </trkpt>
      <trkpt lat="42.680381" lon="1.395306">
        <ele>2484.1</ele>
        <time>2019-03-03T11:05:28Z</time>
      </trkpt>
      <trkpt lat="42.680398" lon="1.395247">
        <ele>2480.1</ele>
        <time>2019-03-03T11:06:07Z</time>
      </trkpt>
      <trkpt lat="42.680446" lon="1.395149">
        <ele>2477.8</ele>
        <time>2019-03-03T11:06:32Z</time>
      </trkpt>
      <trkpt lat="42.680470" lon="1.395060">
        <ele>2475.4</ele>
        <time>2019-03-03T11:06:45Z</time>
      </trkpt>
      <trkpt lat="42.680443" lon="1.394922">
        <ele>2471.0</ele>
        <time>2019-03-03T11:06:58Z</time>
      </trkpt>
      <trkpt lat="42.680420" lon="1.394836">
        <ele>2464.0</ele>
        <time>2019-03-03T11:08:31Z</time>
      </trkpt>
      <trkpt lat="42.680435" lon="1.394773">
        <ele>2464.7</ele>
        <time>2019-03-03T11:08:52Z</time>
      </trkpt>
      <trkpt lat="42.680456" lon="1.394645">
        <ele>2461.8</ele>
        <time>2019-03-03T11:09:04Z</time>
      </trkpt>
      <trkpt lat="42.680463" lon="1.394530">
        <ele>2458.5</ele>
        <time>2019-03-03T11:09:14Z</time>
      </trkpt>
      <trkpt lat="42.680520" lon="1.394399">
        <ele>2454.5</ele>
        <time>2019-03-03T11:09:32Z</time>
      </trkpt>
      <trkpt lat="42.680576" lon="1.394288">
        <ele>2452.9</ele>
        <time>2019-03-03T11:09:57Z</time>
      </trkpt>
      <trkpt lat="42.680595" lon="1.394253">
        <ele>2453.9</ele>
        <time>2019-03-03T11:11:45Z</time>
      </trkpt>
      <trkpt lat="42.680649" lon="1.394180">
        <ele>2455.3</ele>
        <time>2019-03-03T11:12:18Z</time>
      </trkpt>
      <trkpt lat="42.680712" lon="1.394061">
        <ele>2454.0</ele>
        <time>2019-03-03T11:12:27Z</time>
      </trkpt>
      <trkpt lat="42.680779" lon="1.393942">
        <ele>2452.9</ele>
        <time>2019-03-03T11:12:36Z</time>
      </trkpt>
      <trkpt lat="42.680850" lon="1.393829">
        <ele>2451.9</ele>
        <time>2019-03-03T11:12:45Z</time>
      </trkpt>
      <trkpt lat="42.680901" lon="1.393745">
        <ele>2451.5</ele>
        <time>2019-03-03T11:12:53Z</time>
      </trkpt>
      <trkpt lat="42.680942" lon="1.393650">
        <ele>2451.2</ele>
        <time>2019-03-03T11:13:01Z</time>
      </trkpt>
      <trkpt lat="42.680997" lon="1.393600">
        <ele>2450.9</ele>
        <time>2019-03-03T11:13:10Z</time>
      </trkpt>
      <trkpt lat="42.681077" lon="1.393593">
        <ele>2453.1</ele>
        <time>2019-03-03T11:13:23Z</time>
      </trkpt>
      <trkpt lat="42.681100" lon="1.393631">
        <ele>2452.2</ele>
        <time>2019-03-03T11:13:57Z</time>
      </trkpt>
      <trkpt lat="42.681179" lon="1.393623">
        <ele>2452.1</ele>
        <time>2019-03-03T11:14:08Z</time>
      </trkpt>
      <trkpt lat="42.681246" lon="1.393703">
        <ele>2453.7</ele>
        <time>2019-03-03T11:14:23Z</time>
      </trkpt>
      <trkpt lat="42.681360" lon="1.393754">
        <ele>2455.3</ele>
        <time>2019-03-03T11:14:36Z</time>
      </trkpt>
      <trkpt lat="42.681453" lon="1.393792">
        <ele>2454.8</ele>
        <time>2019-03-03T11:14:49Z</time>
      </trkpt>
      <trkpt lat="42.681555" lon="1.393845">
        <ele>2454.7</ele>
        <time>2019-03-03T11:15:03Z</time>
      </trkpt>
      <trkpt lat="42.681659" lon="1.393866">
        <ele>2454.2</ele>
        <time>2019-03-03T11:15:15Z</time>
      </trkpt>
      <trkpt lat="42.681742" lon="1.393902">
        <ele>2453.2</ele>
        <time>2019-03-03T11:15:25Z</time>
      </trkpt>
      <trkpt lat="42.681823" lon="1.393944">
        <ele>2451.7</ele>
        <time>2019-03-03T11:15:36Z</time>
      </trkpt>
      <trkpt lat="42.681928" lon="1.394001">
        <ele>2449.8</ele>
        <time>2019-03-03T11:15:50Z</time>
      </trkpt>
      <trkpt lat="42.682022" lon="1.394048">
        <ele>2448.6</ele>
        <time>2019-03-03T11:16:02Z</time>
      </trkpt>
      <trkpt lat="42.682121" lon="1.394082">
        <ele>2446.8</ele>
        <time>2019-03-03T11:16:13Z</time>
      </trkpt>
      <trkpt lat="42.682204" lon="1.394146">
        <ele>2444.5</ele>
        <time>2019-03-03T11:16:25Z</time>
      </trkpt>
      <trkpt lat="42.682258" lon="1.394192">
        <ele>2442.2</ele>
        <time>2019-03-03T11:16:53Z</time>
      </trkpt>
      <trkpt lat="42.682375" lon="1.394212">
        <ele>2439.9</ele>
        <time>2019-03-03T11:17:02Z</time>
      </trkpt>
      <trkpt lat="42.682471" lon="1.394225">
        <ele>2437.6</ele>
        <time>2019-03-03T11:17:12Z</time>
      </trkpt>
      <trkpt lat="42.682554" lon="1.394276">
        <ele>2434.9</ele>
        <time>2019-03-03T11:17:22Z</time>
      </trkpt>
      <trkpt lat="42.682647" lon="1.394292">
        <ele>2432.1</ele>
        <time>2019-03-03T11:17:32Z</time>
      </trkpt>
      <trkpt lat="42.682721" lon="1.394334">
        <ele>2428.6</ele>
        <time>2019-03-03T11:17:43Z</time>
      </trkpt>
      <trkpt lat="42.682826" lon="1.394397">
        <ele>2426.6</ele>
        <time>2019-03-03T11:17:54Z</time>
      </trkpt>
      <trkpt lat="42.682923" lon="1.394438">
        <ele>2423.6</ele>
        <time>2019-03-03T11:18:11Z</time>
      </trkpt>
      <trkpt lat="42.683023" lon="1.394449">
        <ele>2421.1</ele>
        <time>2019-03-03T11:18:29Z</time>
      </trkpt>
      <trkpt lat="42.683111" lon="1.394462">
        <ele>2418.6</ele>
        <time>2019-03-03T11:18:44Z</time>
      </trkpt>
      <trkpt lat="42.683208" lon="1.394493">
        <ele>2416.1</ele>
        <time>2019-03-03T11:18:57Z</time>
      </trkpt>
      <trkpt lat="42.683296" lon="1.394506">
        <ele>2413.8</ele>
        <time>2019-03-03T11:19:12Z</time>
      </trkpt>
      <trkpt lat="42.683410" lon="1.394504">
        <ele>2412.1</ele>
        <time>2019-03-03T11:19:25Z</time>
      </trkpt>
      <trkpt lat="42.683509" lon="1.394517">
        <ele>2410.5</ele>
        <time>2019-03-03T11:19:37Z</time>
      </trkpt>
      <trkpt lat="42.683562" lon="1.394581">
        <ele>2408.2</ele>
        <time>2019-03-03T11:19:54Z</time>
      </trkpt>
      <trkpt lat="42.683665" lon="1.394604">
        <ele>2406.1</ele>
        <time>2019-03-03T11:20:08Z</time>
      </trkpt>
      <trkpt lat="42.683740" lon="1.394643">
        <ele>2403.1</ele>
        <time>2019-03-03T11:20:21Z</time>
      </trkpt>
      <trkpt lat="42.683812" lon="1.394709">
        <ele>2402.6</ele>
        <time>2019-03-03T11:20:39Z</time>
      </trkpt>
      <trkpt lat="42.683918" lon="1.394763">
        <ele>2402.3</ele>
        <time>2019-03-03T11:20:59Z</time>
      </trkpt>
      <trkpt lat="42.684033" lon="1.394780">
        <ele>2401.4</ele>
        <time>2019-03-03T11:21:16Z</time>
      </trkpt>
      <trkpt lat="42.684141" lon="1.394800">
        <ele>2400.5</ele>
        <time>2019-03-03T11:21:35Z</time>
      </trkpt>
      <trkpt lat="42.684240" lon="1.394836">
        <ele>2399.1</ele>
        <time>2019-03-03T11:21:51Z</time>
      </trkpt>
      <trkpt lat="42.684348" lon="1.394854">
        <ele>2397.8</ele>
        <time>2019-03-03T11:22:09Z</time>
      </trkpt>
      <trkpt lat="42.684441" lon="1.394870">
        <ele>2396.8</ele>
        <time>2019-03-03T11:22:24Z</time>
      </trkpt>
      <trkpt lat="42.684504" lon="1.394900">
        <ele>2395.0</ele>
        <time>2019-03-03T11:23:09Z</time>
      </trkpt>
      <trkpt lat="42.684609" lon="1.394947">
        <ele>2395.3</ele>
        <time>2019-03-03T11:23:24Z</time>
      </trkpt>
      <trkpt lat="42.684701" lon="1.394995">
        <ele>2395.8</ele>
        <time>2019-03-03T11:23:42Z</time>
      </trkpt>
      <trkpt lat="42.684785" lon="1.395034">
        <ele>2396.1</ele>
        <time>2019-03-03T11:23:59Z</time>
      </trkpt>
      <trkpt lat="42.684875" lon="1.395073">
        <ele>2396.2</ele>
        <time>2019-03-03T11:24:18Z</time>
      </trkpt>
      <trkpt lat="42.684962" lon="1.395127">
        <ele>2396.9</ele>
        <time>2019-03-03T11:24:33Z</time>
      </trkpt>
      <trkpt lat="42.685050" lon="1.395169">
        <ele>2397.4</ele>
        <time>2019-03-03T11:24:58Z</time>
      </trkpt>
      <trkpt lat="42.685135" lon="1.395232">
        <ele>2397.5</ele>
        <time>2019-03-03T11:25:14Z</time>
      </trkpt>
      <trkpt lat="42.685223" lon="1.395289">
        <ele>2397.6</ele>
        <time>2019-03-03T11:25:31Z</time>
      </trkpt>
      <trkpt lat="42.685294" lon="1.395371">
        <ele>2399.6</ele>
        <time>2019-03-03T11:25:49Z</time>
      </trkpt>
      <trkpt lat="42.685368" lon="1.395443">
        <ele>2399.8</ele>
        <time>2019-03-03T11:26:05Z</time>
      </trkpt>
      <trkpt lat="42.685449" lon="1.395504">
        <ele>2400.7</ele>
        <time>2019-03-03T11:26:21Z</time>
      </trkpt>
      <trkpt lat="42.685542" lon="1.395554">
        <ele>2401.1</ele>
        <time>2019-03-03T11:26:36Z</time>
      </trkpt>
      <trkpt lat="42.685627" lon="1.395601">
        <ele>2400.9</ele>
        <time>2019-03-03T11:26:47Z</time>
      </trkpt>
      <trkpt lat="42.685720" lon="1.395634">
        <ele>2400.3</ele>
        <time>2019-03-03T11:26:59Z</time>
      </trkpt>
      <trkpt lat="42.685815" lon="1.395659">
        <ele>2399.8</ele>
        <time>2019-03-03T11:27:11Z</time>
      </trkpt>
      <trkpt lat="42.685905" lon="1.395689">
        <ele>2398.9</ele>
        <time>2019-03-03T11:27:25Z</time>
      </trkpt>
      <trkpt lat="42.685995" lon="1.395718">
        <ele>2398.0</ele>
        <time>2019-03-03T11:27:37Z</time>
      </trkpt>
      <trkpt lat="42.686090" lon="1.395725">
        <ele>2396.5</ele>
        <time>2019-03-03T11:27:51Z</time>
      </trkpt>
      <trkpt lat="42.686175" lon="1.395763">
        <ele>2394.1</ele>
        <time>2019-03-03T11:28:08Z</time>
      </trkpt>
      <trkpt lat="42.686260" lon="1.395837">
        <ele>2395.1</ele>
        <time>2019-03-03T11:28:23Z</time>
      </trkpt>
      <trkpt lat="42.686347" lon="1.395885">
        <ele>2395.3</ele>
        <time>2019-03-03T11:28:36Z</time>
      </trkpt>
      <trkpt lat="42.686437" lon="1.395943">
        <ele>2394.9</ele>
        <time>2019-03-03T11:28:49Z</time>
      </trkpt>
      <trkpt lat="42.686528" lon="1.396009">
        <ele>2394.5</ele>
        <time>2019-03-03T11:29:01Z</time>
      </trkpt>
      <trkpt lat="42.686615" lon="1.396059">
        <ele>2394.9</ele>
        <time>2019-03-03T11:29:13Z</time>
      </trkpt>
      <trkpt lat="42.686706" lon="1.396075">
        <ele>2395.1</ele>
        <time>2019-03-03T11:29:27Z</time>
      </trkpt>
      <trkpt lat="42.686809" lon="1.396077">
        <ele>2396.2</ele>
        <time>2019-03-03T11:29:40Z</time>
      </trkpt>
      <trkpt lat="42.686880" lon="1.396060">
        <ele>2397.7</ele>
        <time>2019-03-03T11:29:57Z</time>
      </trkpt>
      <trkpt lat="42.686892" lon="1.396067">
        <ele>2390.8</ele>
        <time>2019-03-03T11:40:56Z</time>
      </trkpt>
      <trkpt lat="42.686991" lon="1.396134">
        <ele>2390.3</ele>
        <time>2019-03-03T11:41:16Z</time>
      </trkpt>
      <trkpt lat="42.687088" lon="1.396165">
        <ele>2388.3</ele>
        <time>2019-03-03T11:41:28Z</time>
      </trkpt>
      <trkpt lat="42.687179" lon="1.396170">
        <ele>2386.7</ele>
        <time>2019-03-03T11:41:39Z</time>
      </trkpt>
      <trkpt lat="42.687266" lon="1.396145">
        <ele>2384.3</ele>
        <time>2019-03-03T11:41:51Z</time>
      </trkpt>
      <trkpt lat="42.687353" lon="1.396154">
        <ele>2381.4</ele>
        <time>2019-03-03T11:42:02Z</time>
      </trkpt>
      <trkpt lat="42.687438" lon="1.396161">
        <ele>2378.7</ele>
        <time>2019-03-03T11:42:13Z</time>
      </trkpt>
      <trkpt lat="42.687519" lon="1.396111">
        <ele>2376.5</ele>
        <time>2019-03-03T11:42:22Z</time>
      </trkpt>
      <trkpt lat="42.687607" lon="1.396084">
        <ele>2372.5</ele>
        <time>2019-03-03T11:42:34Z</time>
      </trkpt>
      <trkpt lat="42.687676" lon="1.396055">
        <ele>2368.4</ele>
        <time>2019-03-03T11:42:53Z</time>
      </trkpt>
      <trkpt lat="42.687755" lon="1.396019">
        <ele>2365.9</ele>
        <time>2019-03-03T11:43:26Z</time>
      </trkpt>
      <trkpt lat="42.687837" lon="1.395979">
        <ele>2363.7</ele>
        <time>2019-03-03T11:43:37Z</time>
      </trkpt>
      <trkpt lat="42.687924" lon="1.395957">
        <ele>2360.5</ele>
        <time>2019-03-03T11:43:50Z</time>
      </trkpt>
      <trkpt lat="42.688016" lon="1.395970">
        <ele>2358.6</ele>
        <time>2019-03-03T11:44:00Z</time>
      </trkpt>
      <trkpt lat="42.688113" lon="1.395938">
        <ele>2357.6</ele>
        <time>2019-03-03T11:44:13Z</time>
      </trkpt>
      <trkpt lat="42.688206" lon="1.395941">
        <ele>2358.0</ele>
        <time>2019-03-03T11:44:27Z</time>
      </trkpt>
      <trkpt lat="42.688298" lon="1.395939">
        <ele>2358.6</ele>
        <time>2019-03-03T11:44:39Z</time>
      </trkpt>
      <trkpt lat="42.688375" lon="1.395964">
        <ele>2357.1</ele>
        <time>2019-03-03T11:44:56Z</time>
      </trkpt>
      <trkpt lat="42.688460" lon="1.396004">
        <ele>2355.8</ele>
        <time>2019-03-03T11:45:12Z</time>
      </trkpt>
      <trkpt lat="42.688553" lon="1.396069">
        <ele>2353.4</ele>
        <time>2019-03-03T11:45:28Z</time>
      </trkpt>
      <trkpt lat="42.688607" lon="1.396042">
        <ele>2349.5</ele>
        <time>2019-03-03T11:46:29Z</time>
      </trkpt>
      <trkpt lat="42.688687" lon="1.396075">
        <ele>2347.5</ele>
        <time>2019-03-03T11:46:41Z</time>
      </trkpt>
      <trkpt lat="42.688746" lon="1.396157">
        <ele>2343.3</ele>
        <time>2019-03-03T11:46:53Z</time>
      </trkpt>
      <trkpt lat="42.688809" lon="1.396243">
        <ele>2338.2</ele>
        <time>2019-03-03T11:47:04Z</time>
      </trkpt>
      <trkpt lat="42.688861" lon="1.396311">
        <ele>2332.5</ele>
        <time>2019-03-03T11:47:16Z</time>
      </trkpt>
      <trkpt lat="42.688892" lon="1.396409">
        <ele>2327.3</ele>
        <time>2019-03-03T11:47:33Z</time>
      </trkpt>
      <trkpt lat="42.688925" lon="1.396511">
        <ele>2322.3</ele>
        <time>2019-03-03T11:47:48Z</time>
      </trkpt>
      <trkpt lat="42.688980" lon="1.396613">
        <ele>2315.8</ele>
        <time>2019-03-03T11:48:12Z</time>
      </trkpt>
      <trkpt lat="42.689071" lon="1.396625">
        <ele>2311.5</ele>
        <time>2019-03-03T11:48:26Z</time>
      </trkpt>
      <trkpt lat="42.689164" lon="1.396642">
        <ele>2307.1</ele>
        <time>2019-03-03T11:48:38Z</time>
      </trkpt>
      <trkpt lat="42.689253" lon="1.396663">
        <ele>2302.8</ele>
        <time>2019-03-03T11:48:50Z</time>
      </trkpt>
      <trkpt lat="42.689342" lon="1.396717">
        <ele>2299.1</ele>
        <time>2019-03-03T11:49:03Z</time>
      </trkpt>
      <trkpt lat="42.689422" lon="1.396789">
        <ele>2295.9</ele>
        <time>2019-03-03T11:49:15Z</time>
      </trkpt>
      <trkpt lat="42.689506" lon="1.396858">
        <ele>2292.8</ele>
        <time>2019-03-03T11:49:28Z</time>
      </trkpt>
      <trkpt lat="42.689579" lon="1.396930">
        <ele>2289.6</ele>
        <time>2019-03-03T11:49:40Z</time>
      </trkpt>
      <trkpt lat="42.689666" lon="1.396982">
        <ele>2285.5</ele>
        <time>2019-03-03T11:49:54Z</time>
      </trkpt>
      <trkpt lat="42.689760" lon="1.397029">
        <ele>2281.5</ele>
        <time>2019-03-03T11:50:07Z</time>
      </trkpt>
      <trkpt lat="42.689841" lon="1.397101">
        <ele>2276.9</ele>
        <time>2019-03-03T11:50:21Z</time>
      </trkpt>
      <trkpt lat="42.689928" lon="1.397155">
        <ele>2275.0</ele>
        <time>2019-03-03T11:50:34Z</time>
      </trkpt>
      <trkpt lat="42.690005" lon="1.397227">
        <ele>2273.7</ele>
        <time>2019-03-03T11:50:47Z</time>
      </trkpt>
      <trkpt lat="42.690094" lon="1.397294">
        <ele>2272.1</ele>
        <time>2019-03-03T11:51:41Z</time>
      </trkpt>
      <trkpt lat="42.690179" lon="1.397349">
        <ele>2269.8</ele>
        <time>2019-03-03T11:51:53Z</time>
      </trkpt>
      <trkpt lat="42.690260" lon="1.397388">
        <ele>2267.5</ele>
        <time>2019-03-03T11:52:03Z</time>
      </trkpt>
      <trkpt lat="42.690363" lon="1.397416">
        <ele>2264.0</ele>
        <time>2019-03-03T11:52:15Z</time>
      </trkpt>
      <trkpt lat="42.690452" lon="1.397416">
        <ele>2260.7</ele>
        <time>2019-03-03T11:52:27Z</time>
      </trkpt>
      <trkpt lat="42.690522" lon="1.397424">
        <ele>2259.3</ele>
        <time>2019-03-03T11:53:19Z</time>
      </trkpt>
      <trkpt lat="42.690596" lon="1.397397">
        <ele>2256.1</ele>
        <time>2019-03-03T11:53:30Z</time>
      </trkpt>
      <trkpt lat="42.690666" lon="1.397332">
        <ele>2252.6</ele>
        <time>2019-03-03T11:53:46Z</time>
      </trkpt>
      <trkpt lat="42.690736" lon="1.397228">
        <ele>2252.1</ele>
        <time>2019-03-03T11:53:59Z</time>
      </trkpt>
      <trkpt lat="42.690823" lon="1.397143">
        <ele>2250.4</ele>
        <time>2019-03-03T11:54:11Z</time>
      </trkpt>
      <trkpt lat="42.690910" lon="1.397080">
        <ele>2248.5</ele>
        <time>2019-03-03T11:54:24Z</time>
      </trkpt>
      <trkpt lat="42.690985" lon="1.396996">
        <ele>2246.5</ele>
        <time>2019-03-03T11:54:37Z</time>
      </trkpt>
      <trkpt lat="42.691047" lon="1.396911">
        <ele>2243.9</ele>
        <time>2019-03-03T11:54:59Z</time>
      </trkpt>
      <trkpt lat="42.691116" lon="1.396820">
        <ele>2243.2</ele>
        <time>2019-03-03T11:55:13Z</time>
      </trkpt>
      <trkpt lat="42.691185" lon="1.396715">
        <ele>2245.4</ele>
        <time>2019-03-03T11:55:31Z</time>
      </trkpt>
      <trkpt lat="42.691253" lon="1.396644">
        <ele>2246.8</ele>
        <time>2019-03-03T11:56:11Z</time>
      </trkpt>
      <trkpt lat="42.691251" lon="1.396592">
        <ele>2244.7</ele>
        <time>2019-03-03T13:12:38Z</time>
      </trkpt>
      <trkpt lat="42.691275" lon="1.396550">
        <ele>2245.2</ele>
        <time>2019-03-03T13:13:12Z</time>
      </trkpt>
      <trkpt lat="42.691317" lon="1.396450">
        <ele>2245.5</ele>
        <time>2019-03-03T13:13:26Z</time>
      </trkpt>
      <trkpt lat="42.691358" lon="1.396406">
        <ele>2244.6</ele>
        <time>2019-03-03T13:13:41Z</time>
      </trkpt>
      <trkpt lat="42.691415" lon="1.396246">
        <ele>2242.4</ele>
        <time>2019-03-03T13:17:54Z</time>
      </trkpt>
      <trkpt lat="42.691455" lon="1.396125">
        <ele>2241.3</ele>
        <time>2019-03-03T13:18:04Z</time>
      </trkpt>
      <trkpt lat="42.691490" lon="1.396003">
        <ele>2240.4</ele>
        <time>2019-03-03T13:18:14Z</time>
      </trkpt>
      <trkpt lat="42.691568" lon="1.395955">
        <ele>2238.4</ele>
        <time>2019-03-03T13:18:25Z</time>
      </trkpt>
      <trkpt lat="42.691639" lon="1.395918">
        <ele>2235.0</ele>
        <time>2019-03-03T13:18:36Z</time>
      </trkpt>
      <trkpt lat="42.691714" lon="1.395889">
        <ele>2230.3</ele>
        <time>2019-03-03T13:18:48Z</time>
      </trkpt>
      <trkpt lat="42.691806" lon="1.395850">
        <ele>2226.8</ele>
        <time>2019-03-03T13:18:57Z</time>
      </trkpt>
      <trkpt lat="42.691886" lon="1.395804">
        <ele>2220.9</ele>
        <time>2019-03-03T13:19:12Z</time>
      </trkpt>
      <trkpt lat="42.691968" lon="1.395727">
        <ele>2217.6</ele>
        <time>2019-03-03T13:19:25Z</time>
      </trkpt>
      <trkpt lat="42.692034" lon="1.395642">
        <ele>2214.3</ele>
        <time>2019-03-03T13:19:37Z</time>
      </trkpt>
      <trkpt lat="42.692038" lon="1.395606">
        <ele>2213.1</ele>
        <time>2019-03-03T13:21:44Z</time>
      </trkpt>
      <trkpt lat="42.692137" lon="1.395598">
        <ele>2210.9</ele>
        <time>2019-03-03T13:22:06Z</time>
      </trkpt>
      <trkpt lat="42.692235" lon="1.395621">
        <ele>2206.3</ele>
        <time>2019-03-03T13:22:20Z</time>
      </trkpt>
      <trkpt lat="42.692323" lon="1.395706">
        <ele>2202.6</ele>
        <time>2019-03-03T13:22:33Z</time>
      </trkpt>
      <trkpt lat="42.692394" lon="1.395797">
        <ele>2199.9</ele>
        <time>2019-03-03T13:22:45Z</time>
      </trkpt>
      <trkpt lat="42.692462" lon="1.395875">
        <ele>2196.1</ele>
        <time>2019-03-03T13:22:57Z</time>
      </trkpt>
      <trkpt lat="42.692508" lon="1.395906">
        <ele>2192.5</ele>
        <time>2019-03-03T13:24:03Z</time>
      </trkpt>
      <trkpt lat="42.692577" lon="1.395945">
        <ele>2189.8</ele>
        <time>2019-03-03T13:28:57Z</time>
      </trkpt>
      <trkpt lat="42.692689" lon="1.396021">
        <ele>2182.2</ele>
        <time>2019-03-03T13:30:32Z</time>
      </trkpt>
      <trkpt lat="42.692768" lon="1.395973">
        <ele>2178.5</ele>
        <time>2019-03-03T13:30:51Z</time>
      </trkpt>
      <trkpt lat="42.692826" lon="1.396066">
        <ele>2174.0</ele>
        <time>2019-03-03T13:31:08Z</time>
      </trkpt>
      <trkpt lat="42.692899" lon="1.396127">
        <ele>2169.1</ele>
        <time>2019-03-03T13:31:43Z</time>
      </trkpt>
      <trkpt lat="42.692915" lon="1.396235">
        <ele>2165.0</ele>
        <time>2019-03-03T13:32:00Z</time>
      </trkpt>
      <trkpt lat="42.692962" lon="1.396313">
        <ele>2161.1</ele>
        <time>2019-03-03T13:32:20Z</time>
      </trkpt>
      <trkpt lat="42.693022" lon="1.396279">
        <ele>2155.0</ele>
        <time>2019-03-03T13:33:24Z</time>
      </trkpt>
      <trkpt lat="42.693099" lon="1.396265">
        <ele>2152.2</ele>
        <time>2019-03-03T13:33:43Z</time>
      </trkpt>
      <trkpt lat="42.693187" lon="1.396311">
        <ele>2146.7</ele>
        <time>2019-03-03T13:34:00Z</time>
      </trkpt>
      <trkpt lat="42.693273" lon="1.396359">
        <ele>2140.1</ele>
        <time>2019-03-03T13:34:18Z</time>
      </trkpt>
      <trkpt lat="42.693351" lon="1.396374">
        <ele>2133.6</ele>
        <time>2019-03-03T13:34:37Z</time>
      </trkpt>
      <trkpt lat="42.693395" lon="1.396412">
        <ele>2129.2</ele>
        <time>2019-03-03T13:35:06Z</time>
      </trkpt>
      <trkpt lat="42.693461" lon="1.396481">
        <ele>2126.0</ele>
        <time>2019-03-03T13:35:23Z</time>
      </trkpt>
      <trkpt lat="42.693554" lon="1.396459">
        <ele>2120.6</ele>
        <time>2019-03-03T13:35:44Z</time>
      </trkpt>
      <trkpt lat="42.693641" lon="1.396426">
        <ele>2117.2</ele>
        <time>2019-03-03T13:35:56Z</time>
      </trkpt>
      <trkpt lat="42.693712" lon="1.396393">
        <ele>2114.0</ele>
        <time>2019-03-03T13:36:08Z</time>
      </trkpt>
      <trkpt lat="42.693789" lon="1.396357">
        <ele>2110.3</ele>
        <time>2019-03-03T13:36:20Z</time>
      </trkpt>
      <trkpt lat="42.693870" lon="1.396381">
        <ele>2107.7</ele>
        <time>2019-03-03T13:36:32Z</time>
      </trkpt>
      <trkpt lat="42.693909" lon="1.396347">
        <ele>2103.5</ele>
        <time>2019-03-03T13:37:51Z</time>
      </trkpt>
      <trkpt lat="42.693935" lon="1.396311">
        <ele>2104.3</ele>
        <time>2019-03-03T13:46:32Z</time>
      </trkpt>
      <trkpt lat="42.693938" lon="1.396187">
        <ele>2102.0</ele>
        <time>2019-03-03T13:46:46Z</time>
      </trkpt>
      <trkpt lat="42.694011" lon="1.396095">
        <ele>2099.6</ele>
        <time>2019-03-03T13:47:04Z</time>
      </trkpt>
      <trkpt lat="42.694095" lon="1.396045">
        <ele>2097.7</ele>
        <time>2019-03-03T13:47:19Z</time>
      </trkpt>
      <trkpt lat="42.694166" lon="1.396006">
        <ele>2095.2</ele>
        <time>2019-03-03T13:48:03Z</time>
      </trkpt>
      <trkpt lat="42.694244" lon="1.395929">
        <ele>2092.2</ele>
        <time>2019-03-03T13:48:15Z</time>
      </trkpt>
      <trkpt lat="42.694303" lon="1.395826">
        <ele>2089.6</ele>
        <time>2019-03-03T13:48:29Z</time>
      </trkpt>
      <trkpt lat="42.694389" lon="1.395790">
        <ele>2086.8</ele>
        <time>2019-03-03T13:48:42Z</time>
      </trkpt>
      <trkpt lat="42.694479" lon="1.395757">
        <ele>2082.8</ele>
        <time>2019-03-03T13:48:55Z</time>
      </trkpt>
      <trkpt lat="42.694575" lon="1.395757">
        <ele>2080.1</ele>
        <time>2019-03-03T13:49:10Z</time>
      </trkpt>
      <trkpt lat="42.694667" lon="1.395800">
        <ele>2077.0</ele>
        <time>2019-03-03T13:49:24Z</time>
      </trkpt>
      <trkpt lat="42.694746" lon="1.395871">
        <ele>2074.5</ele>
        <time>2019-03-03T13:49:35Z</time>
      </trkpt>
      <trkpt lat="42.694830" lon="1.395909">
        <ele>2070.3</ele>
        <time>2019-03-03T13:49:49Z</time>
      </trkpt>
      <trkpt lat="42.694922" lon="1.395952">
        <ele>2065.8</ele>
        <time>2019-03-03T13:50:06Z</time>
      </trkpt>
      <trkpt lat="42.694993" lon="1.396038">
        <ele>2060.7</ele>
        <time>2019-03-03T13:51:03Z</time>
      </trkpt>
      <trkpt lat="42.695081" lon="1.396067">
        <ele>2056.6</ele>
        <time>2019-03-03T13:51:19Z</time>
      </trkpt>
      <trkpt lat="42.695169" lon="1.396053">
        <ele>2050.8</ele>
        <time>2019-03-03T13:51:34Z</time>
      </trkpt>
      <trkpt lat="42.695265" lon="1.396039">
        <ele>2044.6</ele>
        <time>2019-03-03T13:51:49Z</time>
      </trkpt>
      <trkpt lat="42.695358" lon="1.396057">
        <ele>2039.4</ele>
        <time>2019-03-03T13:52:02Z</time>
      </trkpt>
      <trkpt lat="42.695456" lon="1.396092">
        <ele>2034.1</ele>
        <time>2019-03-03T13:52:16Z</time>
      </trkpt>
      <trkpt lat="42.695557" lon="1.396133">
        <ele>2030.1</ele>
        <time>2019-03-03T13:52:27Z</time>
      </trkpt>
      <trkpt lat="42.695644" lon="1.396174">
        <ele>2026.5</ele>
        <time>2019-03-03T13:52:36Z</time>
      </trkpt>
      <trkpt lat="42.695732" lon="1.396221">
        <ele>2022.6</ele>
        <time>2019-03-03T13:52:46Z</time>
      </trkpt>
      <trkpt lat="42.695818" lon="1.396262">
        <ele>2018.4</ele>
        <time>2019-03-03T13:52:58Z</time>
      </trkpt>
      <trkpt lat="42.695900" lon="1.396331">
        <ele>2013.8</ele>
        <time>2019-03-03T13:53:12Z</time>
      </trkpt>
      <trkpt lat="42.695957" lon="1.396383">
        <ele>2010.7</ele>
        <time>2019-03-03T13:53:31Z</time>
      </trkpt>
      <trkpt lat="42.696034" lon="1.396457">
        <ele>2008.1</ele>
        <time>2019-03-03T13:53:43Z</time>
      </trkpt>
      <trkpt lat="42.696106" lon="1.396515">
        <ele>2005.7</ele>
        <time>2019-03-03T13:53:57Z</time>
      </trkpt>
      <trkpt lat="42.696178" lon="1.396598">
        <ele>2003.7</ele>
        <time>2019-03-03T13:54:11Z</time>
      </trkpt>
      <trkpt lat="42.696240" lon="1.396682">
        <ele>2000.2</ele>
        <time>2019-03-03T13:54:30Z</time>
      </trkpt>
      <trkpt lat="42.696304" lon="1.396753">
        <ele>1997.0</ele>
        <time>2019-03-03T13:55:34Z</time>
      </trkpt>
      <trkpt lat="42.696384" lon="1.396859">
        <ele>1991.0</ele>
        <time>2019-03-03T13:55:54Z</time>
      </trkpt>
      <trkpt lat="42.696449" lon="1.396949">
        <ele>1984.7</ele>
        <time>2019-03-03T13:56:12Z</time>
      </trkpt>
      <trkpt lat="42.696538" lon="1.397036">
        <ele>1979.2</ele>
        <time>2019-03-03T13:56:28Z</time>
      </trkpt>
      <trkpt lat="42.696620" lon="1.397101">
        <ele>1973.7</ele>
        <time>2019-03-03T13:56:41Z</time>
      </trkpt>
      <trkpt lat="42.696702" lon="1.397156">
        <ele>1968.6</ele>
        <time>2019-03-03T13:56:53Z</time>
      </trkpt>
      <trkpt lat="42.696762" lon="1.397253">
        <ele>1964.0</ele>
        <time>2019-03-03T13:57:04Z</time>
      </trkpt>
      <trkpt lat="42.696832" lon="1.397319">
        <ele>1959.9</ele>
        <time>2019-03-03T13:57:16Z</time>
      </trkpt>
      <trkpt lat="42.696917" lon="1.397380">
        <ele>1954.9</ele>
        <time>2019-03-03T13:57:31Z</time>
      </trkpt>
      <trkpt lat="42.697002" lon="1.397435">
        <ele>1952.5</ele>
        <time>2019-03-03T13:57:41Z</time>
      </trkpt>
      <trkpt lat="42.697090" lon="1.397499">
        <ele>1950.4</ele>
        <time>2019-03-03T13:57:51Z</time>
      </trkpt>
      <trkpt lat="42.697150" lon="1.397557">
        <ele>1948.7</ele>
        <time>2019-03-03T13:58:18Z</time>
      </trkpt>
      <trkpt lat="42.697143" lon="1.397576">
        <ele>1949.2</ele>
        <time>2019-03-03T14:02:28Z</time>
      </trkpt>
      <trkpt lat="42.697128" lon="1.397694">
        <ele>1947.8</ele>
        <time>2019-03-03T14:02:54Z</time>
      </trkpt>
      <trkpt lat="42.697145" lon="1.397841">
        <ele>1945.8</ele>
        <time>2019-03-03T14:03:05Z</time>
      </trkpt>
      <trkpt lat="42.697159" lon="1.397953">
        <ele>1942.9</ele>
        <time>2019-03-03T14:03:26Z</time>
      </trkpt>
      <trkpt lat="42.697174" lon="1.398076">
        <ele>1941.0</ele>
        <time>2019-03-03T14:03:36Z</time>
      </trkpt>
      <trkpt lat="42.697190" lon="1.398204">
        <ele>1937.8</ele>
        <time>2019-03-03T14:03:47Z</time>
      </trkpt>
      <trkpt lat="42.697206" lon="1.398341">
        <ele>1935.8</ele>
        <time>2019-03-03T14:04:00Z</time>
      </trkpt>
      <trkpt lat="42.697220" lon="1.398471">
        <ele>1934.5</ele>
        <time>2019-03-03T14:04:12Z</time>
      </trkpt>
      <trkpt lat="42.697204" lon="1.398602">
        <ele>1933.8</ele>
        <time>2019-03-03T14:04:26Z</time>
      </trkpt>
      <trkpt lat="42.697126" lon="1.398651">
        <ele>1932.2</ele>
        <time>2019-03-03T14:04:42Z</time>
      </trkpt>
      <trkpt lat="42.697002" lon="1.398627">
        <ele>1933.3</ele>
        <time>2019-03-03T14:04:56Z</time>
      </trkpt>
      <trkpt lat="42.696967" lon="1.398719">
        <ele>1930.4</ele>
        <time>2019-03-03T14:05:12Z</time>
      </trkpt>
      <trkpt lat="42.696977" lon="1.398828">
        <ele>1925.7</ele>
        <time>2019-03-03T14:05:24Z</time>
      </trkpt>
      <trkpt lat="42.696999" lon="1.398938">
        <ele>1919.5</ele>
        <time>2019-03-03T14:05:38Z</time>
      </trkpt>
      <trkpt lat="42.697027" lon="1.399040">
        <ele>1913.3</ele>
        <time>2019-03-03T14:05:54Z</time>
      </trkpt>
      <trkpt lat="42.697053" lon="1.399160">
        <ele>1908.8</ele>
        <time>2019-03-03T14:06:10Z</time>
      </trkpt>
      <trkpt lat="42.697069" lon="1.399278">
        <ele>1904.4</ele>
        <time>2019-03-03T14:06:25Z</time>
      </trkpt>
      <trkpt lat="42.697106" lon="1.399394">
        <ele>1899.3</ele>
        <time>2019-03-03T14:06:42Z</time>
      </trkpt>
      <trkpt lat="42.697115" lon="1.399516">
        <ele>1896.2</ele>
        <time>2019-03-03T14:06:55Z</time>
      </trkpt>
      <trkpt lat="42.697096" lon="1.399625">
        <ele>1892.5</ele>
        <time>2019-03-03T14:07:10Z</time>
      </trkpt>
      <trkpt lat="42.697099" lon="1.399697">
        <ele>1889.6</ele>
        <time>2019-03-03T14:07:47Z</time>
      </trkpt>
      <trkpt lat="42.697149" lon="1.399811">
        <ele>1887.2</ele>
        <time>2019-03-03T14:07:59Z</time>
      </trkpt>
      <trkpt lat="42.697174" lon="1.399925">
        <ele>1883.6</ele>
        <time>2019-03-03T14:08:11Z</time>
      </trkpt>
      <trkpt lat="42.697184" lon="1.400048">
        <ele>1879.4</ele>
        <time>2019-03-03T14:08:25Z</time>
      </trkpt>
      <trkpt lat="42.697201" lon="1.400166">
        <ele>1874.5</ele>
        <time>2019-03-03T14:08:42Z</time>
      </trkpt>
      <trkpt lat="42.697291" lon="1.400242">
        <ele>1870.4</ele>
        <time>2019-03-03T14:09:03Z</time>
      </trkpt>
      <trkpt lat="42.697367" lon="1.400299">
        <ele>1868.2</ele>
        <time>2019-03-03T14:09:24Z</time>
      </trkpt>
      <trkpt lat="42.697421" lon="1.400347">
        <ele>1865.6</ele>
        <time>2019-03-03T14:12:07Z</time>
      </trkpt>
      <trkpt lat="42.697497" lon="1.400401">
        <ele>1863.9</ele>
        <time>2019-03-03T14:12:17Z</time>
      </trkpt>
      <trkpt lat="42.697558" lon="1.400467">
        <ele>1860.7</ele>
        <time>2019-03-03T14:12:28Z</time>
      </trkpt>
      <trkpt lat="42.697618" lon="1.400549">
        <ele>1857.9</ele>
        <time>2019-03-03T14:12:41Z</time>
      </trkpt>
      <trkpt lat="42.697679" lon="1.400632">
        <ele>1856.5</ele>
        <time>2019-03-03T14:12:50Z</time>
      </trkpt>
      <trkpt lat="42.697751" lon="1.400719">
        <ele>1854.7</ele>
        <time>2019-03-03T14:13:01Z</time>
      </trkpt>
      <trkpt lat="42.697811" lon="1.400835">
        <ele>1852.9</ele>
        <time>2019-03-03T14:13:16Z</time>
      </trkpt>
      <trkpt lat="42.697831" lon="1.400962">
        <ele>1850.8</ele>
        <time>2019-03-03T14:13:30Z</time>
      </trkpt>
      <trkpt lat="42.697876" lon="1.401072">
        <ele>1848.7</ele>
        <time>2019-03-03T14:13:40Z</time>
      </trkpt>
      <trkpt lat="42.697914" lon="1.401178">
        <ele>1846.4</ele>
        <time>2019-03-03T14:13:51Z</time>
      </trkpt>
      <trkpt lat="42.697980" lon="1.401257">
        <ele>1843.3</ele>
        <time>2019-03-03T14:14:12Z</time>
      </trkpt>
      <trkpt lat="42.698040" lon="1.401376">
        <ele>1841.5</ele>
        <time>2019-03-03T14:14:30Z</time>
      </trkpt>
      <trkpt lat="42.698117" lon="1.401422">
        <ele>1840.0</ele>
        <time>2019-03-03T14:14:44Z</time>
      </trkpt>
      <trkpt lat="42.698191" lon="1.401446">
        <ele>1836.9</ele>
        <time>2019-03-03T14:14:58Z</time>
      </trkpt>
      <trkpt lat="42.698276" lon="1.401476">
        <ele>1834.4</ele>
        <time>2019-03-03T14:15:13Z</time>
      </trkpt>
      <trkpt lat="42.698367" lon="1.401504">
        <ele>1832.2</ele>
        <time>2019-03-03T14:15:26Z</time>
      </trkpt>
      <trkpt lat="42.698459" lon="1.401534">
        <ele>1829.1</ele>
        <time>2019-03-03T14:15:41Z</time>
      </trkpt>
      <trkpt lat="42.698555" lon="1.401511">
        <ele>1826.3</ele>
        <time>2019-03-03T14:15:55Z</time>
      </trkpt>
      <trkpt lat="42.698639" lon="1.401514">
        <ele>1821.1</ele>
        <time>2019-03-03T14:16:12Z</time>
      </trkpt>
      <trkpt lat="42.698718" lon="1.401484">
        <ele>1815.6</ele>
        <time>2019-03-03T14:16:40Z</time>
      </trkpt>
      <trkpt lat="42.698765" lon="1.401593">
        <ele>1815.1</ele>
        <time>2019-03-03T14:17:08Z</time>
      </trkpt>
      <trkpt lat="42.698837" lon="1.401696">
        <ele>1816.0</ele>
        <time>2019-03-03T14:17:28Z</time>
      </trkpt>
      <trkpt lat="42.698920" lon="1.401756">
        <ele>1817.4</ele>
        <time>2019-03-03T14:17:45Z</time>
      </trkpt>
      <trkpt lat="42.698994" lon="1.401827">
        <ele>1817.6</ele>
        <time>2019-03-03T14:17:58Z</time>
      </trkpt>
      <trkpt lat="42.699081" lon="1.401852">
        <ele>1815.5</ele>
        <time>2019-03-03T14:18:11Z</time>
      </trkpt>
      <trkpt lat="42.699168" lon="1.401880">
        <ele>1813.1</ele>
        <time>2019-03-03T14:18:23Z</time>
      </trkpt>
      <trkpt lat="42.699261" lon="1.401924">
        <ele>1810.5</ele>
        <time>2019-03-03T14:18:36Z</time>
      </trkpt>
      <trkpt lat="42.699343" lon="1.401980">
        <ele>1808.4</ele>
        <time>2019-03-03T14:18:49Z</time>
      </trkpt>
      <trkpt lat="42.699431" lon="1.402058">
        <ele>1805.4</ele>
        <time>2019-03-03T14:19:02Z</time>
      </trkpt>
      <trkpt lat="42.699500" lon="1.402153">
        <ele>1802.8</ele>
        <time>2019-03-03T14:19:15Z</time>
      </trkpt>
      <trkpt lat="42.699558" lon="1.402241">
        <ele>1800.1</ele>
        <time>2019-03-03T14:19:27Z</time>
      </trkpt>
      <trkpt lat="42.699603" lon="1.402338">
        <ele>1797.5</ele>
        <time>2019-03-03T14:19:39Z</time>
      </trkpt>
      <trkpt lat="42.699629" lon="1.402457">
        <ele>1796.2</ele>
        <time>2019-03-03T14:19:51Z</time>
      </trkpt>
      <trkpt lat="42.699653" lon="1.402574">
        <ele>1794.3</ele>
        <time>2019-03-03T14:20:03Z</time>
      </trkpt>
      <trkpt lat="42.699689" lon="1.402689">
        <ele>1792.0</ele>
        <time>2019-03-03T14:20:15Z</time>
      </trkpt>
      <trkpt lat="42.699729" lon="1.402800">
        <ele>1789.5</ele>
        <time>2019-03-03T14:20:29Z</time>
      </trkpt>
      <trkpt lat="42.699778" lon="1.402922">
        <ele>1787.9</ele>
        <time>2019-03-03T14:20:41Z</time>
      </trkpt>
      <trkpt lat="42.699814" lon="1.403051">
        <ele>1785.9</ele>
        <time>2019-03-03T14:20:55Z</time>
      </trkpt>
      <trkpt lat="42.699859" lon="1.403170">
        <ele>1784.9</ele>
        <time>2019-03-03T14:21:06Z</time>
      </trkpt>
      <trkpt lat="42.699902" lon="1.403278">
        <ele>1783.4</ele>
        <time>2019-03-03T14:21:19Z</time>
      </trkpt>
      <trkpt lat="42.699954" lon="1.403398">
        <ele>1782.6</ele>
        <time>2019-03-03T14:21:35Z</time>
      </trkpt>
      <trkpt lat="42.700019" lon="1.403523">
        <ele>1781.6</ele>
        <time>2019-03-03T14:21:50Z</time>
      </trkpt>
      <trkpt lat="42.700074" lon="1.403628">
        <ele>1780.8</ele>
        <time>2019-03-03T14:22:03Z</time>
      </trkpt>
      <trkpt lat="42.700127" lon="1.403738">
        <ele>1780.1</ele>
        <time>2019-03-03T14:22:16Z</time>
      </trkpt>
      <trkpt lat="42.700170" lon="1.403849">
        <ele>1779.2</ele>
        <time>2019-03-03T14:22:30Z</time>
      </trkpt>
      <trkpt lat="42.700218" lon="1.403954">
        <ele>1778.7</ele>
        <time>2019-03-03T14:22:43Z</time>
      </trkpt>
      <trkpt lat="42.700263" lon="1.404059">
        <ele>1778.2</ele>
        <time>2019-03-03T14:22:55Z</time>
      </trkpt>
      <trkpt lat="42.700315" lon="1.404143">
        <ele>1776.9</ele>
        <time>2019-03-03T14:23:06Z</time>
      </trkpt>
      <trkpt lat="42.700384" lon="1.404231">
        <ele>1774.4</ele>
        <time>2019-03-03T14:23:19Z</time>
      </trkpt>
      <trkpt lat="42.700431" lon="1.404328">
        <ele>1772.6</ele>
        <time>2019-03-03T14:23:32Z</time>
      </trkpt>
      <trkpt lat="42.700480" lon="1.404407">
        <ele>1770.8</ele>
        <time>2019-03-03T14:23:43Z</time>
      </trkpt>
      <trkpt lat="42.700520" lon="1.404519">
        <ele>1769.0</ele>
        <time>2019-03-03T14:23:55Z</time>
      </trkpt>
      <trkpt lat="42.700557" lon="1.404620">
        <ele>1766.3</ele>
        <time>2019-03-03T14:24:08Z</time>
      </trkpt>
      <trkpt lat="42.700611" lon="1.404706">
        <ele>1764.7</ele>
        <time>2019-03-03T14:24:22Z</time>
      </trkpt>
      <trkpt lat="42.700684" lon="1.404757">
        <ele>1762.4</ele>
        <time>2019-03-03T14:24:34Z</time>
      </trkpt>
      <trkpt lat="42.700760" lon="1.404839">
        <ele>1760.2</ele>
        <time>2019-03-03T14:24:49Z</time>
      </trkpt>
      <trkpt lat="42.700830" lon="1.404928">
        <ele>1758.0</ele>
        <time>2019-03-03T14:25:04Z</time>
      </trkpt>
      <trkpt lat="42.700907" lon="1.405016">
        <ele>1756.4</ele>
        <time>2019-03-03T14:25:16Z</time>
      </trkpt>
      <trkpt lat="42.700972" lon="1.405106">
        <ele>1753.8</ele>
        <time>2019-03-03T14:25:32Z</time>
      </trkpt>
      <trkpt lat="42.701061" lon="1.405163">
        <ele>1750.7</ele>
        <time>2019-03-03T14:25:45Z</time>
      </trkpt>
      <trkpt lat="42.701136" lon="1.405236">
        <ele>1748.6</ele>
        <time>2019-03-03T14:25:58Z</time>
      </trkpt>
      <trkpt lat="42.701206" lon="1.405319">
        <ele>1746.9</ele>
        <time>2019-03-03T14:26:12Z</time>
      </trkpt>
      <trkpt lat="42.701246" lon="1.405415">
        <ele>1745.9</ele>
        <time>2019-03-03T14:26:22Z</time>
      </trkpt>
      <trkpt lat="42.701323" lon="1.405504">
        <ele>1743.1</ele>
        <time>2019-03-03T14:26:35Z</time>
      </trkpt>
      <trkpt lat="42.701389" lon="1.405581">
        <ele>1737.9</ele>
        <time>2019-03-03T14:26:48Z</time>
      </trkpt>
      <trkpt lat="42.701466" lon="1.405636">
        <ele>1731.4</ele>
        <time>2019-03-03T14:27:11Z</time>
      </trkpt>
      <trkpt lat="42.701550" lon="1.405705">
        <ele>1729.2</ele>
        <time>2019-03-03T14:27:24Z</time>
      </trkpt>
      <trkpt lat="42.701623" lon="1.405772">
        <ele>1724.6</ele>
        <time>2019-03-03T14:27:38Z</time>
      </trkpt>
      <trkpt lat="42.701704" lon="1.405840">
        <ele>1721.7</ele>
        <time>2019-03-03T14:27:50Z</time>
      </trkpt>
      <trkpt lat="42.701785" lon="1.405879">
        <ele>1720.3</ele>
        <time>2019-03-03T14:28:02Z</time>
      </trkpt>
      <trkpt lat="42.701864" lon="1.405914">
        <ele>1719.1</ele>
        <time>2019-03-03T14:28:14Z</time>
      </trkpt>
      <trkpt lat="42.701944" lon="1.405877">
        <ele>1716.3</ele>
        <time>2019-03-03T14:28:26Z</time>
      </trkpt>
      <trkpt lat="42.702029" lon="1.405828">
        <ele>1712.5</ele>
        <time>2019-03-03T14:28:40Z</time>
      </trkpt>
      <trkpt lat="42.702110" lon="1.405785">
        <ele>1708.8</ele>
        <time>2019-03-03T14:28:53Z</time>
      </trkpt>
      <trkpt lat="42.702206" lon="1.405758">
        <ele>1705.7</ele>
        <time>2019-03-03T14:29:08Z</time>
      </trkpt>
      <trkpt lat="42.702298" lon="1.405733">
        <ele>1702.5</ele>
        <time>2019-03-03T14:29:21Z</time>
      </trkpt>
      <trkpt lat="42.702399" lon="1.405723">
        <ele>1700.5</ele>
        <time>2019-03-03T14:29:34Z</time>
      </trkpt>
      <trkpt lat="42.702502" lon="1.405728">
        <ele>1697.3</ele>
        <time>2019-03-03T14:29:47Z</time>
      </trkpt>
      <trkpt lat="42.702601" lon="1.405753">
        <ele>1693.7</ele>
        <time>2019-03-03T14:29:59Z</time>
      </trkpt>
      <trkpt lat="42.702695" lon="1.405770">
        <ele>1689.8</ele>
        <time>2019-03-03T14:30:10Z</time>
      </trkpt>
      <trkpt lat="42.702770" lon="1.405763">
        <ele>1685.4</ele>
        <time>2019-03-03T14:33:18Z</time>
      </trkpt>
      <trkpt lat="42.702874" lon="1.405774">
        <ele>1683.9</ele>
        <time>2019-03-03T14:34:18Z</time>
      </trkpt>
      <trkpt lat="42.702978" lon="1.405802">
        <ele>1682.5</ele>
        <time>2019-03-03T14:34:31Z</time>
      </trkpt>
      <trkpt lat="42.703056" lon="1.405802">
        <ele>1681.0</ele>
        <time>2019-03-03T14:35:27Z</time>
      </trkpt>
      <trkpt lat="42.703144" lon="1.405824">
        <ele>1679.7</ele>
        <time>2019-03-03T14:35:39Z</time>
      </trkpt>
      <trkpt lat="42.703237" lon="1.405841">
        <ele>1676.8</ele>
        <time>2019-03-03T14:35:51Z</time>
      </trkpt>
      <trkpt lat="42.703325" lon="1.405896">
        <ele>1674.1</ele>
        <time>2019-03-03T14:36:03Z</time>
      </trkpt>
      <trkpt lat="42.703384" lon="1.405993">
        <ele>1673.8</ele>
        <time>2019-03-03T14:36:19Z</time>
      </trkpt>
      <trkpt lat="42.703457" lon="1.406095">
        <ele>1673.7</ele>
        <time>2019-03-03T14:36:34Z</time>
      </trkpt>
      <trkpt lat="42.703503" lon="1.406207">
        <ele>1674.4</ele>
        <time>2019-03-03T14:36:47Z</time>
      </trkpt>
      <trkpt lat="42.703557" lon="1.406328">
        <ele>1672.9</ele>
        <time>2019-03-03T14:37:00Z</time>
      </trkpt>
      <trkpt lat="42.703604" lon="1.406442">
        <ele>1669.3</ele>
        <time>2019-03-03T14:37:14Z</time>
      </trkpt>
      <trkpt lat="42.703670" lon="1.406528">
        <ele>1665.7</ele>
        <time>2019-03-03T14:37:31Z</time>
      </trkpt>
      <trkpt lat="42.703764" lon="1.406546">
        <ele>1662.3</ele>
        <time>2019-03-03T14:37:46Z</time>
      </trkpt>
      <trkpt lat="42.703856" lon="1.406533">
        <ele>1657.8</ele>
        <time>2019-03-03T14:37:59Z</time>
      </trkpt>
      <trkpt lat="42.703947" lon="1.406533">
        <ele>1653.1</ele>
        <time>2019-03-03T14:38:17Z</time>
      </trkpt>
      <trkpt lat="42.704051" lon="1.406506">
        <ele>1645.5</ele>
        <time>2019-03-03T14:39:41Z</time>
      </trkpt>
      <trkpt lat="42.704133" lon="1.406457">
        <ele>1642.4</ele>
        <time>2019-03-03T14:39:56Z</time>
      </trkpt>
      <trkpt lat="42.704230" lon="1.406441">
        <ele>1638.1</ele>
        <time>2019-03-03T14:40:10Z</time>
      </trkpt>
      <trkpt lat="42.704326" lon="1.406449">
        <ele>1634.2</ele>
        <time>2019-03-03T14:40:24Z</time>
      </trkpt>
      <trkpt lat="42.704391" lon="1.406518">
        <ele>1629.0</ele>
        <time>2019-03-03T14:40:40Z</time>
      </trkpt>
      <trkpt lat="42.704478" lon="1.406488">
        <ele>1624.8</ele>
        <time>2019-03-03T14:40:56Z</time>
      </trkpt>
      <trkpt lat="42.704618" lon="1.406531">
        <ele>1616.4</ele>
        <time>2019-03-03T14:41:31Z</time>
      </trkpt>
      <trkpt lat="42.704679" lon="1.406434">
        <ele>1613.1</ele>
        <time>2019-03-03T14:42:04Z</time>
      </trkpt>
      <trkpt lat="42.704772" lon="1.406345">
        <ele>1610.6</ele>
        <time>2019-03-03T14:42:16Z</time>
      </trkpt>
      <trkpt lat="42.704870" lon="1.406308">
        <ele>1607.0</ele>
        <time>2019-03-03T14:42:30Z</time>
      </trkpt>
      <trkpt lat="42.704960" lon="1.406328">
        <ele>1601.7</ele>
        <time>2019-03-03T14:42:46Z</time>
      </trkpt>
      <trkpt lat="42.705016" lon="1.406426">
        <ele>1598.6</ele>
        <time>2019-03-03T14:43:00Z</time>
      </trkpt>
      <trkpt lat="42.705101" lon="1.406447">
        <ele>1594.5</ele>
        <time>2019-03-03T14:43:14Z</time>
      </trkpt>
      <trkpt lat="42.705189" lon="1.406441">
        <ele>1588.6</ele>
        <time>2019-03-03T14:43:31Z</time>
      </trkpt>
      <trkpt lat="42.705281" lon="1.406444">
        <ele>1582.6</ele>
        <time>2019-03-03T14:43:49Z</time>
      </trkpt>
      <trkpt lat="42.705347" lon="1.406521">
        <ele>1578.0</ele>
        <time>2019-03-03T14:44:04Z</time>
      </trkpt>
      <trkpt lat="42.705325" lon="1.406678">
        <ele>1574.7</ele>
        <time>2019-03-03T14:44:45Z</time>
      </trkpt>
      <trkpt lat="42.705339" lon="1.406826">
        <ele>1572.5</ele>
        <time>2019-03-03T14:45:02Z</time>
      </trkpt>
      <trkpt lat="42.705399" lon="1.407029">
        <ele>1569.1</ele>
        <time>2019-03-03T14:45:19Z</time>
      </trkpt>
      <trkpt lat="42.705432" lon="1.407216">
        <ele>1564.6</ele>
        <time>2019-03-03T14:45:36Z</time>
      </trkpt>
      <trkpt lat="42.705472" lon="1.407350">
        <ele>1561.1</ele>
        <time>2019-03-03T14:45:51Z</time>
      </trkpt>
      <trkpt lat="42.705602" lon="1.407382">
        <ele>1556.9</ele>
        <time>2019-03-03T14:46:06Z</time>
      </trkpt>
      <trkpt lat="42.705680" lon="1.407495">
        <ele>1551.9</ele>
        <time>2019-03-03T14:46:19Z</time>
      </trkpt>
      <trkpt lat="42.705727" lon="1.407612">
        <ele>1545.7</ele>
        <time>2019-03-03T14:46:38Z</time>
      </trkpt>
      <trkpt lat="42.705733" lon="1.407792">
        <ele>1541.8</ele>
        <time>2019-03-03T14:46:55Z</time>
      </trkpt>
      <trkpt lat="42.705762" lon="1.407972">
        <ele>1538.0</ele>
        <time>2019-03-03T14:47:11Z</time>
      </trkpt>
      <trkpt lat="42.705831" lon="1.408100">
        <ele>1533.6</ele>
        <time>2019-03-03T14:47:29Z</time>
      </trkpt>
      <trkpt lat="42.705961" lon="1.408044">
        <ele>1528.1</ele>
        <time>2019-03-03T14:47:46Z</time>
      </trkpt>
      <trkpt lat="42.706108" lon="1.407989">
        <ele>1522.9</ele>
        <time>2019-03-03T14:48:02Z</time>
      </trkpt>
      <trkpt lat="42.706244" lon="1.407915">
        <ele>1520.1</ele>
        <time>2019-03-03T14:48:16Z</time>
      </trkpt>
      <trkpt lat="42.706341" lon="1.407958">
        <ele>1516.8</ele>
        <time>2019-03-03T14:48:30Z</time>
      </trkpt>
      <trkpt lat="42.706423" lon="1.408033">
        <ele>1513.0</ele>
        <time>2019-03-03T14:48:44Z</time>
      </trkpt>
      <trkpt lat="42.706483" lon="1.408100">
        <ele>1508.6</ele>
        <time>2019-03-03T14:49:01Z</time>
      </trkpt>
      <trkpt lat="42.706519" lon="1.408233">
        <ele>1505.9</ele>
        <time>2019-03-03T14:49:20Z</time>
      </trkpt>
      <trkpt lat="42.706551" lon="1.408383">
        <ele>1502.1</ele>
        <time>2019-03-03T14:49:38Z</time>
      </trkpt>
      <trkpt lat="42.706559" lon="1.408511">
        <ele>1499.8</ele>
        <time>2019-03-03T14:49:55Z</time>
      </trkpt>
      <trkpt lat="42.706576" lon="1.408614">
        <ele>1498.9</ele>
        <time>2019-03-03T14:51:09Z</time>
      </trkpt>
      <trkpt lat="42.706581" lon="1.408756">
        <ele>1496.8</ele>
        <time>2019-03-03T14:51:24Z</time>
      </trkpt>
      <trkpt lat="42.706563" lon="1.408918">
        <ele>1494.4</ele>
        <time>2019-03-03T14:51:40Z</time>
      </trkpt>
      <trkpt lat="42.706549" lon="1.409089">
        <ele>1491.6</ele>
        <time>2019-03-03T14:51:55Z</time>
      </trkpt>
      <trkpt lat="42.706548" lon="1.409261">
        <ele>1488.9</ele>
        <time>2019-03-03T14:52:09Z</time>
      </trkpt>
      <trkpt lat="42.706512" lon="1.409476">
        <ele>1486.6</ele>
        <time>2019-03-03T14:52:25Z</time>
      </trkpt>
      <trkpt lat="42.706509" lon="1.409664">
        <ele>1483.1</ele>
        <time>2019-03-03T14:52:41Z</time>
      </trkpt>
      <trkpt lat="42.706544" lon="1.409852">
        <ele>1480.2</ele>
        <time>2019-03-03T14:53:00Z</time>
      </trkpt>
      <trkpt lat="42.706562" lon="1.410030">
        <ele>1477.4</ele>
        <time>2019-03-03T14:53:17Z</time>
      </trkpt>
      <trkpt lat="42.706622" lon="1.410160">
        <ele>1473.5</ele>
        <time>2019-03-03T14:55:50Z</time>
      </trkpt>
      <trkpt lat="42.706710" lon="1.410297">
        <ele>1469.8</ele>
        <time>2019-03-03T14:56:07Z</time>
      </trkpt>
      <trkpt lat="42.706761" lon="1.410421">
        <ele>1465.9</ele>
        <time>2019-03-03T14:56:21Z</time>
      </trkpt>
      <trkpt lat="42.706842" lon="1.410528">
        <ele>1460.5</ele>
        <time>2019-03-03T14:56:38Z</time>
      </trkpt>
      <trkpt lat="42.706900" lon="1.410649">
        <ele>1454.5</ele>
        <time>2019-03-03T14:56:55Z</time>
      </trkpt>
      <trkpt lat="42.706918" lon="1.410812">
        <ele>1451.1</ele>
        <time>2019-03-03T14:57:12Z</time>
      </trkpt>
      <trkpt lat="42.706974" lon="1.410958">
        <ele>1447.6</ele>
        <time>2019-03-03T14:57:30Z</time>
      </trkpt>
      <trkpt lat="42.707037" lon="1.411125">
        <ele>1445.2</ele>
        <time>2019-03-03T14:57:49Z</time>
      </trkpt>
      <trkpt lat="42.707018" lon="1.411304">
        <ele>1442.0</ele>
        <time>2019-03-03T14:58:08Z</time>
      </trkpt>
      <trkpt lat="42.707039" lon="1.411481">
        <ele>1439.3</ele>
        <time>2019-03-03T14:58:24Z</time>
      </trkpt>
      <trkpt lat="42.707040" lon="1.411680">
        <ele>1435.4</ele>
        <time>2019-03-03T14:58:40Z</time>
      </trkpt>
      <trkpt lat="42.707042" lon="1.411804">
        <ele>1432.4</ele>
        <time>2019-03-03T14:59:01Z</time>
      </trkpt>
      <trkpt lat="42.707006" lon="1.411989">
        <ele>1428.2</ele>
        <time>2019-03-03T14:59:19Z</time>
      </trkpt>
      <trkpt lat="42.706968" lon="1.412193">
        <ele>1425.4</ele>
        <time>2019-03-03T14:59:38Z</time>
      </trkpt>
      <trkpt lat="42.706929" lon="1.412404">
        <ele>1423.5</ele>
        <time>2019-03-03T14:59:56Z</time>
      </trkpt>
      <trkpt lat="42.706905" lon="1.412574">
        <ele>1422.8</ele>
        <time>2019-03-03T15:00:17Z</time>
      </trkpt>
      <trkpt lat="42.706881" lon="1.412782">
        <ele>1420.2</ele>
        <time>2019-03-03T15:00:36Z</time>
      </trkpt>
      <trkpt lat="42.706884" lon="1.412979">
        <ele>1419.2</ele>
        <time>2019-03-03T15:00:56Z</time>
      </trkpt>
      <trkpt lat="42.706894" lon="1.413148">
        <ele>1418.4</ele>
        <time>2019-03-03T15:01:14Z</time>
      </trkpt>
      <trkpt lat="42.706927" lon="1.413322">
        <ele>1416.3</ele>
        <time>2019-03-03T15:01:32Z</time>
      </trkpt>
      <trkpt lat="42.706891" lon="1.413468">
        <ele>1415.4</ele>
        <time>2019-03-03T15:01:49Z</time>
      </trkpt>
      <trkpt lat="42.706854" lon="1.413638">
        <ele>1413.3</ele>
        <time>2019-03-03T15:02:06Z</time>
      </trkpt>
      <trkpt lat="42.706858" lon="1.413765">
        <ele>1411.7</ele>
        <time>2019-03-03T15:02:26Z</time>
      </trkpt>
      <trkpt lat="42.706861" lon="1.413923">
        <ele>1410.6</ele>
        <time>2019-03-03T15:02:43Z</time>
      </trkpt>
      <trkpt lat="42.706843" lon="1.414098">
        <ele>1409.2</ele>
        <time>2019-03-03T15:03:02Z</time>
      </trkpt>
      <trkpt lat="42.706827" lon="1.414248">
        <ele>1410.2</ele>
        <time>2019-03-03T15:03:20Z</time>
      </trkpt>
      <trkpt lat="42.706799" lon="1.414443">
        <ele>1410.0</ele>
        <time>2019-03-03T15:03:38Z</time>
      </trkpt>
      <trkpt lat="42.706800" lon="1.414616">
        <ele>1408.1</ele>
        <time>2019-03-03T15:03:56Z</time>
      </trkpt>
      <trkpt lat="42.706811" lon="1.414774">
        <ele>1408.5</ele>
        <time>2019-03-03T15:04:13Z</time>
      </trkpt>
      <trkpt lat="42.706835" lon="1.414902">
        <ele>1407.3</ele>
        <time>2019-03-03T15:04:28Z</time>
      </trkpt>
      <trkpt lat="42.706840" lon="1.415045">
        <ele>1406.5</ele>
        <time>2019-03-03T15:04:45Z</time>
      </trkpt>
      <trkpt lat="42.706798" lon="1.415179">
        <ele>1406.7</ele>
        <time>2019-03-03T15:04:59Z</time>
      </trkpt>
      <trkpt lat="42.706779" lon="1.415233">
        <ele>1406.0</ele>
        <time>2019-03-03T15:05:29Z</time>
      </trkpt>
      <trkpt lat="42.706736" lon="1.415285">
        <ele>1405.2</ele>
        <time>2019-03-03T15:06:15Z</time>
      </trkpt>
      <trkpt lat="42.706621" lon="1.415368">
        <ele>1401.5</ele>
        <time>2019-03-03T15:06:45Z</time>
      </trkpt>
      <trkpt lat="42.706585" lon="1.415485">
        <ele>1398.2</ele>
        <time>2019-03-03T15:07:01Z</time>
      </trkpt>
      <trkpt lat="42.706642" lon="1.415603">
        <ele>1394.2</ele>
        <time>2019-03-03T15:07:15Z</time>
      </trkpt>
      <trkpt lat="42.706667" lon="1.415744">
        <ele>1389.6</ele>
        <time>2019-03-03T15:07:32Z</time>
      </trkpt>
      <trkpt lat="42.706766" lon="1.415875">
        <ele>1385.7</ele>
        <time>2019-03-03T15:07:48Z</time>
      </trkpt>
      <trkpt lat="42.706868" lon="1.416048">
        <ele>1380.6</ele>
        <time>2019-03-03T15:08:05Z</time>
      </trkpt>
      <trkpt lat="42.706884" lon="1.416222">
        <ele>1376.8</ele>
        <time>2019-03-03T15:08:22Z</time>
      </trkpt>
      <trkpt lat="42.706910" lon="1.416398">
        <ele>1373.4</ele>
        <time>2019-03-03T15:08:43Z</time>
      </trkpt>
      <trkpt lat="42.706940" lon="1.416560">
        <ele>1369.5</ele>
        <time>2019-03-03T15:09:01Z</time>
      </trkpt>
      <trkpt lat="42.706994" lon="1.416733">
        <ele>1365.8</ele>
        <time>2019-03-03T15:09:18Z</time>
      </trkpt>
      <trkpt lat="42.707045" lon="1.416845">
        <ele>1362.5</ele>
        <time>2019-03-03T15:09:38Z</time>
      </trkpt>
      <trkpt lat="42.707094" lon="1.417011">
        <ele>1360.0</ele>
        <time>2019-03-03T15:09:54Z</time>
      </trkpt>
      <trkpt lat="42.707112" lon="1.417154">
        <ele>1356.8</ele>
        <time>2019-03-03T15:10:14Z</time>
      </trkpt>
      <trkpt lat="42.707227" lon="1.417104">
        <ele>1353.7</ele>
        <time>2019-03-03T15:10:31Z</time>
      </trkpt>
      <trkpt lat="42.707270" lon="1.416943">
        <ele>1349.4</ele>
        <time>2019-03-03T15:10:49Z</time>
      </trkpt>
      <trkpt lat="42.707308" lon="1.416785">
        <ele>1345.7</ele>
        <time>2019-03-03T15:11:09Z</time>
      </trkpt>
      <trkpt lat="42.707357" lon="1.416712">
        <ele>1342.5</ele>
        <time>2019-03-03T15:11:25Z</time>
      </trkpt>
      <trkpt lat="42.707462" lon="1.416741">
        <ele>1338.1</ele>
        <time>2019-03-03T15:11:41Z</time>
      </trkpt>
      <trkpt lat="42.707545" lon="1.416686">
        <ele>1333.7</ele>
        <time>2019-03-03T15:12:06Z</time>
      </trkpt>
      <trkpt lat="42.707659" lon="1.416685">
        <ele>1327.5</ele>
        <time>2019-03-03T15:12:25Z</time>
      </trkpt>
      <trkpt lat="42.707726" lon="1.416780">
        <ele>1322.3</ele>
        <time>2019-03-03T15:12:43Z</time>
      </trkpt>
      <trkpt lat="42.707815" lon="1.416755">
        <ele>1316.6</ele>
        <time>2019-03-03T15:13:02Z</time>
      </trkpt>
      <trkpt lat="42.708016" lon="1.416808">
        <ele>1300.7</ele>
        <time>2019-03-03T15:15:09Z</time>
      </trkpt>
      <trkpt lat="42.708135" lon="1.416833">
        <ele>1294.5</ele>
        <time>2019-03-03T15:15:28Z</time>
      </trkpt>
      <trkpt lat="42.708234" lon="1.416926">
        <ele>1289.3</ele>
        <time>2019-03-03T15:15:47Z</time>
      </trkpt>
      <trkpt lat="42.708361" lon="1.416951">
        <ele>1282.8</ele>
        <time>2019-03-03T15:16:04Z</time>
      </trkpt>
      <trkpt lat="42.708444" lon="1.416956">
        <ele>1276.1</ele>
        <time>2019-03-03T15:16:23Z</time>
      </trkpt>
      <trkpt lat="42.708513" lon="1.417014">
        <ele>1271.4</ele>
        <time>2019-03-03T15:18:55Z</time>
      </trkpt>
      <trkpt lat="42.708631" lon="1.417038">
        <ele>1265.6</ele>
        <time>2019-03-03T15:19:12Z</time>
      </trkpt>
      <trkpt lat="42.708712" lon="1.417122">
        <ele>1261.5</ele>
        <time>2019-03-03T15:19:29Z</time>
      </trkpt>
      <trkpt lat="42.708795" lon="1.417124">
        <ele>1253.9</ele>
        <time>2019-03-03T15:19:50Z</time>
      </trkpt>
      <trkpt lat="42.708894" lon="1.417192">
        <ele>1247.4</ele>
        <time>2019-03-03T15:20:05Z</time>
      </trkpt>
      <trkpt lat="42.709016" lon="1.417252">
        <ele>1242.7</ele>
        <time>2019-03-03T15:20:18Z</time>
      </trkpt>
      <trkpt lat="42.709029" lon="1.417395">
        <ele>1239.0</ele>
        <time>2019-03-03T15:20:35Z</time>
      </trkpt>
      <trkpt lat="42.709080" lon="1.417485">
        <ele>1236.7</ele>
        <time>2019-03-03T15:20:46Z</time>
      </trkpt>
      <trkpt lat="42.709049" lon="1.417535">
        <ele>1234.0</ele>
        <time>2019-03-03T15:21:00Z</time>
      </trkpt>
      <trkpt lat="42.708980" lon="1.417562">
        <ele>1233.5</ele>
        <time>2019-03-03T15:21:58Z</time>
      </trkpt>
      <trkpt lat="42.708990" lon="1.417744">
        <ele>1231.4</ele>
        <time>2019-03-03T15:22:09Z</time>
      </trkpt>
      <trkpt lat="42.709057" lon="1.417907">
        <ele>1227.0</ele>
        <time>2019-03-03T15:22:24Z</time>
      </trkpt>
      <trkpt lat="42.709190" lon="1.418000">
        <ele>1227.0</ele>
        <time>2019-03-03T15:22:44Z</time>
      </trkpt>
      <trkpt lat="42.709282" lon="1.418126">
        <ele>1226.8</ele>
        <time>2019-03-03T15:23:03Z</time>
      </trkpt>
      <trkpt lat="42.709375" lon="1.418288">
        <ele>1226.7</ele>
        <time>2019-03-03T15:23:19Z</time>
      </trkpt>
      <trkpt lat="42.709386" lon="1.418407">
        <ele>1225.7</ele>
        <time>2019-03-03T15:23:38Z</time>
      </trkpt>
      <trkpt lat="42.709401" lon="1.418498">
        <ele>1225.1</ele>
        <time>2019-03-03T15:23:54Z</time>
      </trkpt>
      <trkpt lat="42.709389" lon="1.418634">
        <ele>1223.5</ele>
        <time>2019-03-03T15:24:05Z</time>
      </trkpt>
      <trkpt lat="42.709417" lon="1.418771">
        <ele>1221.8</ele>
        <time>2019-03-03T15:24:18Z</time>
      </trkpt>
      <trkpt lat="42.709464" lon="1.418897">
        <ele>1221.7</ele>
        <time>2019-03-03T15:24:33Z</time>
      </trkpt>
      <trkpt lat="42.709504" lon="1.419042">
        <ele>1223.6</ele>
        <time>2019-03-03T15:24:48Z</time>
      </trkpt>
      <trkpt lat="42.709482" lon="1.419202">
        <ele>1225.5</ele>
        <time>2019-03-03T15:25:05Z</time>
      </trkpt>
      <trkpt lat="42.709435" lon="1.419379">
        <ele>1225.0</ele>
        <time>2019-03-03T15:25:22Z</time>
      </trkpt>
      <trkpt lat="42.709376" lon="1.419542">
        <ele>1223.1</ele>
        <time>2019-03-03T15:25:35Z</time>
      </trkpt>
      <trkpt lat="42.709317" lon="1.419679">
        <ele>1220.4</ele>
        <time>2019-03-03T15:25:49Z</time>
      </trkpt>
      <trkpt lat="42.709280" lon="1.419839">
        <ele>1219.0</ele>
        <time>2019-03-03T15:26:06Z</time>
      </trkpt>
      <trkpt lat="42.709258" lon="1.420052">
        <ele>1216.0</ele>
        <time>2019-03-03T15:26:23Z</time>
      </trkpt>
      <trkpt lat="42.709243" lon="1.420259">
        <ele>1214.7</ele>
        <time>2019-03-03T15:26:36Z</time>
      </trkpt>
      <trkpt lat="42.709247" lon="1.420439">
        <ele>1214.6</ele>
        <time>2019-03-03T15:26:47Z</time>
      </trkpt>
      <trkpt lat="42.709276" lon="1.420610">
        <ele>1214.3</ele>
        <time>2019-03-03T15:26:59Z</time>
      </trkpt>
      <trkpt lat="42.709360" lon="1.420717">
        <ele>1213.8</ele>
        <time>2019-03-03T15:27:12Z</time>
      </trkpt>
      <trkpt lat="42.709390" lon="1.420880">
        <ele>1213.1</ele>
        <time>2019-03-03T15:27:26Z</time>
      </trkpt>
      <trkpt lat="42.709408" lon="1.421020">
        <ele>1209.0</ele>
        <time>2019-03-03T15:27:47Z</time>
      </trkpt>
      <trkpt lat="42.709435" lon="1.421187">
        <ele>1203.9</ele>
        <time>2019-03-03T15:28:04Z</time>
      </trkpt>
      <trkpt lat="42.709465" lon="1.421347">
        <ele>1200.3</ele>
        <time>2019-03-03T15:28:19Z</time>
      </trkpt>
      <trkpt lat="42.709498" lon="1.421535">
        <ele>1197.6</ele>
        <time>2019-03-03T15:28:32Z</time>
      </trkpt>
      <trkpt lat="42.709536" lon="1.421687">
        <ele>1195.4</ele>
        <time>2019-03-03T15:28:52Z</time>
      </trkpt>
      <trkpt lat="42.709588" lon="1.421903">
        <ele>1195.0</ele>
        <time>2019-03-03T15:29:07Z</time>
      </trkpt>
      <trkpt lat="42.709643" lon="1.422024">
        <ele>1194.8</ele>
        <time>2019-03-03T15:29:19Z</time>
      </trkpt>
      <trkpt lat="42.709624" lon="1.422200">
        <ele>1194.6</ele>
        <time>2019-03-03T15:29:34Z</time>
      </trkpt>
      <trkpt lat="42.709625" lon="1.422346">
        <ele>1194.1</ele>
        <time>2019-03-03T15:29:48Z</time>
      </trkpt>
      <trkpt lat="42.709663" lon="1.422481">
        <ele>1194.1</ele>
        <time>2019-03-03T15:30:01Z</time>
      </trkpt>
      <trkpt lat="42.709669" lon="1.422606">
        <ele>1194.3</ele>
        <time>2019-03-03T15:30:18Z</time>
      </trkpt>
      <trkpt lat="42.709654" lon="1.422705">
        <ele>1193.5</ele>
        <time>2019-03-03T15:31:24Z</time>
      </trkpt>
      <trkpt lat="42.709668" lon="1.422844">
        <ele>1193.2</ele>
        <time>2019-03-03T15:31:33Z</time>
      </trkpt>
      <trkpt lat="42.709676" lon="1.423004">
        <ele>1192.7</ele>
        <time>2019-03-03T15:31:45Z</time>
      </trkpt>
      <trkpt lat="42.709710" lon="1.423150">
        <ele>1192.8</ele>
        <time>2019-03-03T15:31:59Z</time>
      </trkpt>
      <trkpt lat="42.709759" lon="1.423291">
        <ele>1192.8</ele>
        <time>2019-03-03T15:32:12Z</time>
      </trkpt>
      <trkpt lat="42.709813" lon="1.423424">
        <ele>1192.8</ele>
        <time>2019-03-03T15:32:24Z</time>
      </trkpt>
      <trkpt lat="42.709861" lon="1.423541">
        <ele>1192.6</ele>
        <time>2019-03-03T15:32:35Z</time>
      </trkpt>
      <trkpt lat="42.709911" lon="1.423677">
        <ele>1192.8</ele>
        <time>2019-03-03T15:32:54Z</time>
      </trkpt>
      <trkpt lat="42.709896" lon="1.423744">
        <ele>1192.6</ele>
        <time>2019-03-03T15:33:17Z</time>
      </trkpt>
      <trkpt lat="42.709928" lon="1.423908">
        <ele>1191.9</ele>
        <time>2019-03-03T15:33:31Z</time>
      </trkpt>
      <trkpt lat="42.709962" lon="1.424058">
        <ele>1191.8</ele>
        <time>2019-03-03T15:33:44Z</time>
      </trkpt>
      <trkpt lat="42.709997" lon="1.424217">
        <ele>1191.7</ele>
        <time>2019-03-03T15:33:56Z</time>
      </trkpt>
      <trkpt lat="42.710041" lon="1.424354">
        <ele>1191.6</ele>
        <time>2019-03-03T15:34:08Z</time>
      </trkpt>
      <trkpt lat="42.710082" lon="1.424496">
        <ele>1191.5</ele>
        <time>2019-03-03T15:34:20Z</time>
      </trkpt>
      <trkpt lat="42.710119" lon="1.424643">
        <ele>1191.5</ele>
        <time>2019-03-03T15:34:33Z</time>
      </trkpt>
      <trkpt lat="42.710186" lon="1.424788">
        <ele>1192.2</ele>
        <time>2019-03-03T15:34:50Z</time>
      </trkpt>
      <trkpt lat="42.710227" lon="1.424916">
        <ele>1192.6</ele>
        <time>2019-03-03T15:35:02Z</time>
      </trkpt>
      <trkpt lat="42.710289" lon="1.425010">
        <ele>1192.4</ele>
        <time>2019-03-03T15:35:12Z</time>
      </trkpt>
      <trkpt lat="42.710372" lon="1.425085">
        <ele>1192.2</ele>
        <time>2019-03-03T15:35:20Z</time>
      </trkpt>
      <trkpt lat="42.710444" lon="1.425166">
        <ele>1192.1</ele>
        <time>2019-03-03T15:35:28Z</time>
      </trkpt>
      <trkpt lat="42.710499" lon="1.425290">
        <ele>1191.2</ele>
        <time>2019-03-03T15:35:37Z</time>
      </trkpt>
      <trkpt lat="42.710557" lon="1.425420">
        <ele>1190.2</ele>
        <time>2019-03-03T15:35:49Z</time>
      </trkpt>
    </trkseg>
  </trk>
</gpx>

